[[{"header":{"parameterUnit":"m.s-1","parameterCategory":1,"la1":31.0,"la2":29.5877,"lo1":-88.7671,"lo2":-86.6584,"dy":0.0162,"dx":0.0185,"nx":115,"ny":88,"refTime":"2024-06-07T06:00:00:Z","depth":0,"parameterNumber":2,"parameterNumberName":"U-component_of_WINDS"},"data":[0.0,0.0,0.0,0.0,0.0,0.0,0.0,0.0,0.0,0.0,0.0,0.0,0.0,0.0,0.0,0.0,0.0,0.0,0.0,0.0,0.0,0.0,0.0,0.0,0.0,0.0,0.0,0.0,0.0,0.0,0.0,0.0,0.0,0.0,0.0,0.0,0.0,0.0,0.0,0.0,0.0,0.0,0.0,0.0,0.0,0.0,0.0,0.0,0.0,0.0,0.0,0.0,0.0,0.0,0.0,0.0,0.0,0.0,0.0,0.0,0.0,0.0,0.0,0.0,0.0,0.0,0.0,0.0,0.0,0.0,0.0,0.0,0.0,0.0,0.0,0.0,0.0,0.0,0.0,0.0,0.0,0.0,0.0,0.0,0.0,0.0,0.0,0.0,0.0,0.0,0.0,0.0,0.0,0.0,0.0,0.0,0.0,0.0,0.0,0.0,0.0,0.0,0.0,0.0,0.0,0.0,0.0,0.0,0.0,0.0,0.0,0.0,0.0,0.0,0.0,0.0,0.0,0.0,0.0,0.0,0.0,0.0,0.0,0.0,0.0,0.0,0.0,0.0,0.0,0.0,0.0,0.0,0.0,0.0,0.0,0.0,0.0,0.0,0.0,0.0,0.0,0.0,0.0,0.0,0.0,0.0,0.0,0.0,0.0,0.0,0.0,0.0,0.0,0.0,0.0,0.0,0.0,0.0,0.0,0.0,0.0,0.0,0.0,0.0,0.0,0.0,0.0,0.0,0.0,0.0,0.0,0.0,0.0,0.0,0.0,0.0,0.0,0.0,0.0,0.0,0.0,0.0,0.0,0.0,0.0,0.0,0.0,0.0,0.0,0.0,0.0,0.0,0.0,0.0,0.0,0.0,0.0,0.0,0.0,0.0,0.0,0.0,0.0,0.0,0.0,0.0,0.0,0.0,0.0,0.0,0.0,0.0,0.0,0.0,0.0,0.0,0.0,0.0,0.0,0.0,0.0,0.0,0.0,0.0,0.0,0.0,0.0,0.0,0.0,0.0,0.0,0.0,0.0,0.0,0.0,0.0,0.0,0.0,0.0,0.0,0.0,0.0,0.0,0.0,0.0,0.0,0.0,0.0,0.0,0.0,0.0,0.0,0.0,0.0,0.0,0.0,0.0,0.0,0.0,0.0,0.0,0.0,0.0,0.0,0.0,0.0,0.0,0.0,0.0,0.0,0.0,0.0,0.0,0.0,0.0,0.0,0.0,0.0,0.0,0.0,0.0,0.0,0.0,0.0,0.0,0.0,0.0,0.0,0.0,0.0,0.0,0.0,0.0,0.0,0.0,0.0,0.0,0.0,0.0,0.0,0.0,0.0,0.0,0.0,0.0,0.0,0.0,0.0,0.0,0.0,0.0,0.0,0.0,0.0,0.0,0.0,0.0,0.0,0.0,0.0,0.0,0.0,0.0,0.0,0.0,0.0,0.0,0.0,0.0,0.0,0.0,0.0,0.0,0.0,0.0,0.0,0.0,0.0,0.0,0.0,0.0,0.0,0.0,0.0,0.0,0.0,0.0,0.0,0.0,0.0,0.0,0.0,0.0,0.0,0.0,0.0,0.0,0.0,0.0,0.0,0.0,0.0,0.0,0.0,0.0,0.0,0.0,0.0,0.0,0.0,0.0,0.0,0.0,0.0,0.0,0.0,0.0,0.0,0.0,0.0,0.0,0.0,0.0,0.0,0.0,0.0,0.0,0.0,0.0,0.0,0.0,0.0,0.0,0.0,0.0,0.0,0.0,0.0,0.0,0.0,0.0,0.0,0.0,0.0,0.0,0.0,0.0,0.0,0.0,0.0,0.0,0.0,0.0,0.0,0.0,0.0,0.0,0.0,0.0,0.0,0.0,0.0,0.0,0.0,0.0,0.0,0.0,0.0,0.0,0.0,0.0,0.0,0.0,0.0,0.0,0.0,0.0,0.0,0.0,0.0,0.0,0.0,0.0,0.0,0.0,0.0,0.0,0.0,0.0,0.0,0.0,0.0,0.0,0.0,0.0,0.0,0.0,0.0,0.0,0.0,0.0,0.0,0.0,0.0,0.0,0.0,0.0,0.0,0.0,0.0,0.0,0.0,0.0,0.0,0.0,0.0,0.0,0.0,0.0,0.0,0.0,0.0,0.0,0.0,0.0,0.0,0.0,0.0,0.0,0.0,0.0,0.0,0.0,0.0,0.0,0.0,0.0,0.0,0.0,0.0,0.0,0.0,0.0,0.0,0.0,0.0,0.0,0.0,0.0,0.0,0.0,0.0,0.0,0.0,0.0,0.0,0.0,0.0,0.0,0.0,0.0,0.0,0.0,0.0,0.0,0.0,0.0,0.0,0.0,0.0,0.0,0.0,0.0,0.0,0.0,0.0,0.0,0.0,0.0,0.0,0.0,0.0,0.0,0.0,0.0,0.0,0.0,0.0,0.0,0.0,0.0,0.0,0.0,0.0,0.0,0.0,0.0,0.0,0.0,0.0,0.0,0.0,0.0,0.0,0.0,0.0,0.0,0.0,0.0,0.0,0.0,0.0,0.0,0.0,0.0,0.0,0.0,0.0,0.0,0.0,0.0,0.0,0.0,0.0,0.0,0.0,0.0,0.0,0.0,0.0,0.0,0.0,0.0,0.0,0.0,0.0,0.0,0.0,0.0,0.0,0.0,0.0,0.0,0.0,0.0,0.0,0.0,0.0,0.0,0.0,0.0,0.0,0.0,0.0,0.0,0.0,0.0,0.0,0.0,0.0,0.0,0.0,0.0,0.0,0.0,0.0,0.0,0.0,0.0,0.0,0.0,0.0,0.0,0.0,0.0,0.0,0.0,0.0,0.0,0.0,0.0,0.0,0.0,0.0,0.0,0.0,0.0,0.0,0.0,0.0,0.0,0.0,0.0,0.0,0.0,0.0,0.0,0.0,0.0,0.0,0.0,0.0,0.0,0.0,0.0,0.0,0.0,0.0,0.0,0.0,0.0,0.0,0.0,0.0,0.0,0.0,0.0,0.0,0.0,0.0,0.0,0.0,0.0,0.0,0.0,0.0,0.0,0.0,0.0,0.0,0.0,0.0,0.0,0.0,0.0,0.0,0.0,0.0,0.0,0.0,0.0,0.0,0.0,0.0,0.0,0.0,0.0,0.0,0.0,0.0,0.0,0.0,0.0,0.0,0.0,0.0,0.0,0.0,0.0,0.0,0.0,0.0,0.0,0.0,0.0,0.0,0.0,0.0,0.0,0.0,0.0,0.0,0.0,0.0,0.0,0.0,0.0,0.0,0.0,0.0,0.0,0.0,0.0,0.0,0.0,0.0,0.0,0.0,0.0,0.0,0.0,0.0,0.0,0.0,0.0,0.0,0.0,0.0,0.0,0.0,0.0,0.0,0.0,0.0,0.0,0.0,0.0,0.0,0.0,0.0,0.0,0.0,0.0,0.0,0.0,0.0,0.0,0.0,0.0,0.0,0.0,0.0,0.0,0.0,0.0,0.0,0.0,0.0,0.0,0.0,0.0,0.0,0.0,0.0,0.0,0.0,0.0,0.0,0.0,0.0,0.0,0.0,0.0,0.0,0.0,0.0,0.0,0.0,0.0,0.0,0.0,0.0,0.0,0.0,0.0,0.0,0.0,0.0,0.0,0.0,0.0,0.0,0.0,0.0,0.0,0.0,0.0,0.0,0.0,0.0,0.0,0.0,0.0,0.0,0.0,0.0,0.0,0.0,0.0,0.0,0.0,0.0,0.0,0.0,0.0,0.0,0.0,0.0,0.0,0.0,0.0,0.0,0.0,0.0,0.0,0.0,0.0,0.0,0.0,0.0,0.0,0.0,0.0,0.0,0.0,0.0,0.0,0.0,0.0,0.0,0.0,0.0,0.0,0.0,0.0,0.0,0.0,0.0,0.0,0.0,0.0,0.0,0.0,0.0,0.0,0.0,0.0,0.0,0.0,0.0,0.0,0.0,0.0,0.0,0.0,0.0,0.0,0.0,0.0,0.0,0.0,0.0,0.0,0.0,0.0,0.0,0.0,0.0,0.0,0.0,0.0,0.0,0.0,0.0,0.0,0.0,0.0,0.0,0.0,0.0,0.0,0.0,0.0,0.0,0.0,0.0,0.0,0.0,0.0,0.0,0.0,0.0,0.0,0.0,0.0,0.0,0.0,0.0,0.0,0.0,0.0,0.0,0.0,0.0,0.0,0.0,0.0,0.0,0.0,0.0,0.0,0.0,0.0,0.0,0.0,0.0,0.0,0.0,0.0,0.0,0.0,0.0,0.0,0.0,0.0,0.0,1.2958,0.0,0.0,0.0,0.0,0.0,0.0,0.0,0.0,0.0,0.0,0.0,0.0,0.0,0.0,0.0,0.0,0.0,0.0,0.0,0.0,0.0,0.0,0.0,0.0,0.0,0.0,0.0,0.0,0.0,0.0,0.0,0.0,0.0,0.0,0.0,0.0,0.0,0.0,0.0,0.0,0.0,0.0,0.0,0.0,0.0,0.0,0.0,0.0,0.0,0.0,0.0,0.0,0.0,0.0,0.0,0.0,0.0,0.0,0.0,0.0,0.0,0.0,0.0,0.0,0.0,0.0,0.0,0.0,0.0,0.0,0.0,0.0,0.0,0.0,0.0,0.0,0.0,0.0,0.0,0.0,0.0,0.0,0.0,0.0,0.0,0.0,0.0,0.0,0.0,0.0,0.0,0.0,0.0,0.0,0.0,0.0,0.0,0.0,0.0,0.0,0.0,0.0,0.0,0.0,0.0,0.0,0.0,0.0,0.0,0.0,1.5916,1.5278,1.4915,1.4294,1.3359,0.0,0.0,0.0,0.0,0.0,0.0,0.0,0.0,0.0,0.0,0.0,0.0,0.0,0.0,0.0,0.0,0.0,0.0,0.0,0.0,0.0,0.0,0.0,0.0,0.0,0.0,0.0,0.0,0.0,0.0,0.0,0.0,0.0,0.0,0.0,0.0,0.0,0.0,0.0,0.0,0.0,0.0,0.0,0.0,0.0,0.0,0.0,0.0,0.0,0.0,0.0,0.0,0.0,0.0,0.0,0.0,0.0,0.0,0.0,0.0,0.0,0.0,0.0,0.0,0.0,0.0,0.0,0.0,0.0,0.0,0.0,0.0,0.0,0.0,0.0,0.0,0.0,0.0,0.0,0.0,0.0,0.0,0.0,0.0,0.0,0.0,0.0,0.0,0.0,0.0,0.0,0.0,0.0,0.0,0.0,0.0,0.0,0.0,0.0,0.0,0.0,0.0,0.0,0.0,0.0,0.0,0.0,0.0,0.0,0.0,0.0,0.0,1.4663,1.4086,1.3584,0.0,0.0,0.0,0.0,0.0,0.0,0.0,0.0,0.0,0.0,0.0,0.0,0.0,0.0,0.0,0.0,0.0,0.0,0.0,0.0,0.0,0.0,0.0,0.0,0.0,0.0,0.0,0.0,0.0,0.0,0.0,0.0,0.0,0.0,0.0,0.0,0.0,0.0,0.0,0.0,0.0,0.0,0.0,0.0,0.0,0.0,0.0,0.0,0.0,0.0,0.0,0.0,0.0,0.0,0.0,0.0,0.0,0.0,0.0,0.0,0.0,0.0,0.0,0.0,0.0,0.0,0.0,0.0,0.0,0.0,0.0,0.0,0.0,0.0,0.0,0.0,0.0,0.0,0.0,0.0,0.0,0.0,0.0,0.0,0.0,0.0,0.0,0.0,0.0,0.0,0.0,0.0,0.0,0.0,0.0,0.0,0.0,0.0,0.0,0.0,0.0,0.0,0.0,0.0,0.0,0.0,0.0,0.0,0.0,0.0,1.4472,1.5182,1.4263,0.0,1.2952,0.0,0.0,0.0,0.0,0.0,0.0,0.0,0.0,0.0,0.0,0.0,0.0,0.0,0.0,0.0,0.0,0.0,0.0,0.0,0.0,0.0,0.0,0.0,0.0,0.0,0.0,0.0,0.0,0.0,0.0,0.0,0.0,0.0,0.0,0.0,0.0,0.0,0.0,0.0,0.0,0.0,0.0,0.0,0.0,0.0,0.0,0.0,0.0,0.0,0.0,0.0,0.0,0.0,0.0,0.0,0.0,0.0,0.0,0.0,0.0,0.0,0.0,0.0,0.0,0.0,0.0,0.0,0.0,0.0,0.0,0.0,0.0,0.0,0.0,0.0,0.0,0.0,0.0,0.0,0.0,0.0,0.0,0.0,0.0,0.0,0.0,0.0,0.0,0.0,0.0,0.0,0.0,0.0,0.0,0.0,0.0,0.0,0.0,0.0,0.0,0.0,0.0,0.0,0.0,0.0,0.0,0.0,0.0,0.0,0.0,1.4745,1.4444,1.3508,1.2837,0.0,0.0,0.0,0.0,0.0,0.0,0.0,0.0,0.0,0.0,0.0,0.0,0.0,0.0,0.0,0.0,0.0,0.0,0.0,0.0,0.0,0.0,0.0,0.0,0.0,0.0,0.0,0.0,0.0,0.0,0.0,0.0,0.0,0.0,0.0,0.0,0.0,0.0,0.0,0.0,0.0,0.0,0.0,0.0,0.0,0.0,0.0,0.0,0.0,0.0,0.0,0.0,0.0,0.0,0.0,0.0,0.0,0.0,0.0,0.0,0.0,0.0,0.0,0.0,0.0,0.0,0.0,0.0,0.0,0.0,0.0,0.0,0.0,0.0,0.0,0.0,0.0,0.0,0.0,0.0,0.0,0.0,0.0,0.0,0.0,0.0,0.0,0.0,0.0,0.0,0.0,0.0,0.0,0.0,0.0,0.0,0.0,0.0,0.0,0.0,0.0,0.0,0.0,0.0,0.0,0.0,0.0,0.0,0.0,0.0,1.4862,0.0,1.3769,1.3129,1.2605,1.2226,0.0,0.0,0.0,0.0,0.0,0.0,0.0,0.0,0.0,0.0,0.0,0.0,0.0,0.0,0.0,0.0,0.0,0.0,0.0,0.0,0.0,0.0,0.0,0.0,0.0,0.0,0.0,0.0,0.0,0.0,0.0,0.0,0.0,0.0,0.0,0.0,0.0,0.0,0.0,0.0,0.0,0.0,0.0,0.0,0.0,0.0,0.0,0.0,0.0,0.0,0.0,0.0,0.0,0.0,0.0,0.0,0.0,0.0,0.0,0.0,0.0,0.0,0.0,0.0,0.0,0.0,0.0,0.0,0.0,0.0,0.0,0.0,0.0,0.0,0.0,0.0,0.0,0.0,0.0,0.0,0.0,0.0,0.0,0.0,0.0,0.0,0.0,0.0,0.0,0.0,0.0,0.0,0.0,0.0,0.0,0.0,0.0,0.0,0.0,0.0,0.0,0.0,0.0,0.0,0.0,0.0,0.0,0.0,0.0,1.4466,1.3784,1.3386,1.347,1.304,0.0,0.0,0.0,0.0,0.0,0.0,0.0,0.0,0.0,0.0,0.0,0.0,0.0,0.0,0.0,0.0,0.0,0.0,0.0,0.0,0.0,0.0,0.0,0.0,0.0,0.0,0.0,0.0,0.0,0.0,0.0,0.0,0.0,0.0,0.0,0.0,0.0,0.0,0.0,0.0,0.0,0.0,0.0,0.0,0.0,0.0,0.0,0.0,0.0,0.0,0.0,0.0,0.0,0.0,0.0,0.0,0.0,0.0,0.0,0.0,0.0,0.0,0.0,0.0,0.0,0.0,0.0,0.0,0.0,0.0,0.0,0.0,0.0,0.0,0.0,0.0,0.0,0.0,0.0,0.0,0.0,0.0,0.0,0.0,0.0,0.0,0.0,0.0,0.0,0.0,0.0,0.0,0.0,0.0,0.0,0.0,0.0,0.0,0.0,0.0,0.0,0.0,0.0,0.0,0.0,0.0,0.0,0.0,0.0,1.4411,1.3717,1.3705,1.4423,1.3098,1.2435,0.0,0.0,0.0,0.0,0.0,0.0,0.0,0.0,0.0,0.0,0.0,0.0,0.0,0.0,0.0,0.0,0.0,0.0,0.0,0.0,0.0,0.0,0.0,0.0,0.0,0.0,0.0,0.0,0.0,0.0,0.0,0.0,0.0,0.0,0.0,0.0,0.0,0.0,0.0,0.0,0.0,0.0,0.0,0.0,0.0,0.0,0.0,0.0,0.0,0.0,0.0,0.0,0.0,0.0,0.0,0.0,0.0,0.0,0.0,0.0,0.0,0.0,0.0,0.0,0.0,0.0,0.0,0.0,0.0,0.0,0.0,0.0,0.0,0.0,0.0,0.0,0.0,0.0,0.0,0.0,0.0,0.0,0.0,0.0,0.0,0.0,0.0,0.0,0.0,0.0,0.0,0.0,0.0,0.0,0.0,0.0,0.0,0.0,0.0,0.0,0.0,0.0,0.0,0.0,0.0,0.0,0.0,0.0,0.0,1.4337,0.0,1.4332,0.0,1.3299,1.248,0.0,0.0,0.0,0.0,0.0,0.0,0.0,0.0,0.0,0.0,0.0,0.0,0.0,0.0,0.0,0.0,0.0,0.0,0.0,0.0,0.0,0.0,0.0,0.0,0.0,0.0,0.0,0.0,0.0,0.0,0.0,0.0,0.0,0.0,0.0,0.0,0.0,0.0,0.0,0.0,0.0,0.0,0.0,0.0,0.0,0.0,0.0,0.0,0.0,0.0,0.0,0.0,0.0,0.0,0.0,0.0,0.0,0.0,0.0,0.0,0.0,0.0,0.0,0.0,0.0,0.0,0.0,0.0,0.0,0.0,0.0,0.0,0.0,0.0,0.0,0.0,0.0,0.0,0.0,0.0,0.0,0.0,0.0,0.0,0.0,0.0,0.0,0.0,0.0,0.0,0.0,0.0,0.0,0.0,0.0,0.0,0.0,0.0,0.0,0.0,0.0,0.0,0.0,0.0,0.0,0.0,0.0,0.0,1.4458,1.5259,1.5691,1.5526,1.4837,1.4189,1.331,0.0,0.0,0.0,0.0,0.0,0.0,0.0,0.0,0.0,0.0,0.0,0.0,0.0,0.0,0.0,0.0,0.0,0.0,0.0,0.0,0.0,0.0,0.0,0.0,0.0,0.0,0.0,0.0,0.0,0.0,0.0,0.0,0.0,0.0,0.0,0.0,0.0,0.0,0.0,0.0,0.0,0.0,0.0,0.0,0.0,0.0,0.0,0.0,0.0,0.0,0.0,0.0,0.0,0.0,0.0,0.0,0.0,0.0,0.0,0.0,0.0,0.0,0.0,0.0,0.0,0.0,0.0,0.0,0.0,0.0,0.0,0.0,0.0,0.0,0.0,0.0,0.0,0.0,0.0,0.0,0.0,0.0,0.0,0.0,0.0,0.0,0.0,0.0,0.0,0.0,0.0,0.0,0.0,0.0,0.0,0.0,0.0,0.0,0.0,0.0,0.0,0.0,0.0,0.0,0.0,0.0,0.0,0.0,0.0,1.5368,1.5229,1.5309,1.5564,1.4284,1.3715,0.0,0.0,0.0,0.0,0.0,0.0,0.0,0.0,0.0,0.0,0.0,0.0,0.0,0.0,0.0,0.0,0.0,0.0,0.0,0.0,0.0,0.0,0.0,0.0,0.0,0.0,0.0,0.0,0.0,0.0,0.0,0.0,0.0,0.0,0.0,0.0,0.0,0.0,0.0,0.0,0.0,0.0,0.0,0.0,0.0,0.0,0.0,0.0,0.0,0.0,0.0,0.0,0.0,0.0,0.0,0.0,0.0,0.0,0.0,0.0,0.0,0.0,0.0,0.0,0.0,0.0,0.0,0.0,0.0,0.0,0.0,0.0,0.0,0.0,0.0,0.0,0.0,0.0,0.0,0.0,0.0,0.0,0.0,0.0,0.0,0.0,0.0,0.0,0.0,0.0,0.0,0.0,0.0,0.0,0.0,0.0,0.0,0.0,0.0,0.0,0.0,0.0,0.0,0.0,0.0,0.0,0.0,0.0,0.0,1.7045,1.6542,1.6429,1.6715,1.5492,1.4782,1.4615,0.0,0.0,0.0,0.0,0.0,0.0,0.0,0.0,0.0,0.0,0.0,0.0,0.0,0.0,0.0,0.0,0.0,0.0,0.0,0.0,0.0,0.0,0.0,0.0,0.0,0.0,0.0,0.0,0.0,0.0,0.0,0.0,0.0,0.0,0.0,0.0,0.0,0.0,0.0,0.0,0.0,0.0,0.0,0.0,0.0,0.0,0.0,0.0,0.0,0.0,0.0,0.0,0.0,0.0,0.0,0.0,0.0,0.0,0.0,0.0,0.0,0.0,0.0,0.0,0.0,0.0,0.0,0.0,0.0,0.0,0.0,0.0,0.0,0.0,0.0,0.0,0.0,0.0,0.0,0.0,0.0,0.0,0.0,0.0,0.0,0.0,0.0,0.0,0.0,0.0,0.0,0.0,0.0,0.0,0.0,0.0,0.0,0.0,0.0,0.0,0.0,0.0,0.0,0.0,0.0,0.0,0.0,0.0,1.9867,1.9378,1.8776,1.8141,1.7634,1.6455,0.0,0.0,0.0,0.0,0.0,0.0,0.0,0.0,0.0,0.0,0.0,0.0,0.0,0.0,0.0,0.0,0.0,0.0,0.0,0.0,0.0,0.0,0.0,0.0,0.0,0.0,0.0,0.0,0.0,0.0,0.0,0.0,0.0,0.0,0.0,0.0,0.0,0.0,0.0,0.0,0.0,0.0,0.0,0.0,0.0,0.0,0.0,0.0,0.0,0.0,0.0,0.0,0.0,0.0,0.0,0.0,0.0,0.0,0.0,0.0,0.0,0.0,0.0,0.0,0.0,0.0,0.0,0.0,0.0,0.0,0.0,0.0,0.0,0.0,0.0,0.0,0.0,0.0,0.0,0.0,0.0,0.0,0.0,0.0,0.0,0.0,0.0,0.0,0.0,0.0,0.0,0.0,0.0,0.0,0.0,0.0,0.0,0.0,0.0,0.0,0.0,0.0,0.0,0.0,0.0,0.0,0.0,0.0,0.0,2.09,2.2084,2.2033,2.0612,1.9301,1.8023,0.0,0.0,0.0,0.0,0.0,0.0,0.0,0.0,0.0,0.0,0.0,0.0,0.0,0.0,0.0,0.0,0.0,0.0,0.0,0.0,0.0,0.0,0.0,0.0,0.0,0.0,0.0,0.0,0.0,0.0,0.0,0.0,0.0,0.0,0.0,0.0,0.0,0.0,0.0,0.0,0.0,0.0,0.0,0.0,0.0,0.0,0.0,0.0,0.0,0.0,0.0,0.0,0.0,0.0,0.0,0.0,0.0,0.0,0.0,0.0,0.0,0.0,0.0,0.0,0.0,0.0,0.0,0.0,0.0,0.0,0.0,0.0,0.0,0.0,0.0,0.0,0.0,0.0,0.0,0.0,0.0,0.0,0.0,0.0,0.0,0.0,0.0,0.0,0.0,0.0,0.0,0.0,0.0,0.0,0.0,0.0,0.0,0.0,0.0,0.0,0.0,0.0,0.0,0.0,0.0,0.0,0.0,0.0,2.0676,2.2028,2.4311,2.4918,2.372,2.1799,1.9847,0.0,0.0,0.0,0.0,0.0,0.0,0.0,0.0,0.0,0.0,0.0,0.0,0.0,0.0,0.0,0.0,0.0,0.0,0.0,0.0,0.0,0.0,0.0,0.0,0.0,0.0,0.0,0.0,0.0,0.0,0.0,0.0,0.0,0.0,0.0,0.0,0.0,0.0,0.0,0.0,0.0,0.0,0.0,0.0,0.0,0.0,0.0,0.0,0.0,0.0,0.0,0.0,0.0,0.0,0.0,0.0,0.0,0.0,0.0,0.0,0.0,0.0,0.0,0.0,0.0,0.0,0.0,0.0,0.0,0.0,0.0,0.0,0.0,0.0,0.0,0.0,0.0,0.0,0.0,0.0,0.0,0.0,0.0,0.0,0.0,0.0,0.0,0.0,0.0,0.0,0.0,0.0,0.0,0.0,0.0,0.0,0.0,0.0,0.0,0.0,0.0,0.0,0.0,0.0,0.0,0.0,0.0,0.0,2.151,2.292,2.5832,2.7116,2.6544,2.4338,2.1713,0.0,0.0,0.0,0.0,0.0,0.0,0.0,0.0,0.0,0.0,0.0,0.0,0.0,0.0,0.0,0.0,0.0,0.0,0.0,0.0,0.0,0.0,0.0,0.0,0.0,0.0,0.0,0.0,0.0,0.0,0.0,0.0,0.0,0.0,0.0,0.0,0.0,0.0,0.0,0.0,0.0,0.0,0.0,0.0,0.0,0.0,0.0,0.0,0.0,0.0,0.0,0.0,0.0,0.0,0.0,0.0,0.0,0.0,0.0,0.0,0.0,0.0,0.0,0.0,0.0,0.0,0.0,0.0,0.0,0.0,0.0,0.0,0.0,0.0,0.0,0.0,0.0,0.0,0.0,0.0,0.0,0.0,0.0,0.0,0.0,0.0,0.0,0.0,0.0,0.0,0.0,0.0,0.0,0.0,0.0,0.0,0.0,0.0,0.0,0.0,0.0,0.0,0.0,0.0,0.0,0.0,0.0,0.0,2.0711,2.2376,2.5145,2.6354,2.576,2.4028,2.2259,0.0,0.0,0.0,0.0,0.0,0.0,0.0,0.0,0.0,0.0,0.0,0.0,0.0,0.0,0.0,0.0,0.0,0.0,0.0,0.0,0.0,0.0,0.0,0.0,0.0,0.0,0.0,0.0,0.0,0.0,0.0,0.0,0.0,0.0,0.0,0.0,0.0,0.0,0.0,0.0,0.0,0.0,0.0,0.0,0.0,0.0,0.0,0.0,0.4593,0.0,0.0,0.0,0.0,0.0,0.0,0.0,0.0,0.0,0.0,0.0,0.0,0.0,0.0,0.0,0.0,0.0,0.0,0.0,0.0,0.0,0.0,0.0,0.0,0.0,0.0,0.0,0.0,0.0,0.0,0.0,0.0,0.0,0.0,0.0,0.0,0.0,0.0,0.0,0.0,0.0,0.0,0.0,0.0,0.0,0.0,0.0,0.0,0.0,0.0,0.0,0.0,0.0,0.0,0.0,0.0,0.0,0.0,0.0,2.0718,2.2577,2.4693,2.5805,2.5854,2.4261,2.2761,0.0,0.0,0.0,0.0,0.0,0.0,0.0,0.0,0.0,0.0,0.0,0.0,0.0,0.0,0.0,0.0,0.0,0.0,0.0,0.0,0.0,0.0,0.0,0.0,0.0,0.0,0.0,0.0,0.0,0.0,0.0,0.0,0.0,0.0,0.0,0.0,0.0,0.0,0.0,0.0,0.0,0.0,0.0,0.0,0.0,0.0,0.0,0.0,0.0,0.0,0.0,0.0,0.0,0.0,0.0,0.0,0.0,0.0,0.0,0.0,0.0,0.0,0.0,0.0,0.0,0.0,0.0,0.0,0.0,0.0,0.0,0.0,0.0,0.0,0.0,0.0,0.0,0.0,0.0,0.0,0.0,0.0,0.0,0.0,0.0,0.0,0.0,0.0,0.0,0.0,0.0,0.0,0.0,0.0,0.0,0.0,0.0,0.0,0.0,0.0,0.0,0.0,0.0,0.0,0.0,0.0,0.0,1.9112,2.0653,2.2902,2.405,2.5134,2.6171,2.4638,2.3145,2.1865,0.0,0.0,0.0,0.0,0.0,0.0,0.0,0.0,0.0,0.0,0.0,0.0,0.0,0.0,0.0,0.0,0.0,0.0,0.0,0.0,0.0,0.0,0.0,0.0,0.0,0.0,0.0,0.0,0.0,0.0,0.0,0.0,0.0,0.0,0.0,0.0,0.0,0.0,0.7351,0.7132,0.0,0.0,0.0,0.0,0.0,0.0,0.0,0.0,0.2524,0.0,0.0,0.0,0.0,0.0,0.0,0.0,0.0,0.0,0.0,0.0,0.0,0.0,0.0,0.0,0.0,0.0,0.0,0.0,0.0,0.0,0.0,0.0,0.0,0.0,0.0,0.0,0.0,0.0,0.0,0.0,0.0,0.0,0.0,0.0,0.0,0.0,0.0,0.0,0.0,0.0,0.0,0.0,0.0,0.0,0.0,0.0,0.0,0.0,0.0,0.0,0.0,0.0,0.0,0.0,0.0,1.8488,1.7781,1.9081,2.2416,2.2837,2.3772,2.5357,2.4489,2.3285,2.1867,0.0,0.0,0.0,0.0,0.0,0.0,0.0,0.0,0.0,0.0,0.0,0.0,0.0,0.0,0.0,0.0,0.0,0.0,0.0,0.0,0.0,0.0,0.0,0.0,0.0,0.0,0.0,0.0,0.0,0.0,0.0,0.0,0.0,0.0,0.0,0.0,0.0,0.0,0.0,0.6492,0.6138,0.0,0.0,0.0,0.0,0.0,0.0,0.0,0.0,0.1155,0.0,0.0,0.0,0.0,0.0,0.0,0.0,0.0,0.0,0.0,0.0,0.0,0.0,0.0,0.0,0.0,0.0,0.0,0.0,0.0,0.0,0.0,0.0,0.0,0.0,0.0,0.0,0.0,0.0,0.0,0.0,0.0,0.0,0.0,0.0,0.0,0.0,0.0,0.0,0.0,0.0,0.0,0.0,0.0,0.0,0.0,0.0,0.0,0.0,0.0,0.0,0.0,0.0,0.0,0.0,1.8186,1.869,2.0035,2.2317,2.2558,2.3489,2.5193,2.3733,2.2543,0.0,0.0,0.0,0.0,0.0,0.0,0.0,0.0,0.0,0.0,0.0,0.0,0.0,0.0,0.0,0.0,0.0,0.0,0.0,0.0,0.0,0.0,0.0,0.0,0.0,0.0,0.0,0.0,0.0,0.0,0.0,0.0,0.0,0.0,0.0,0.0,0.0,0.0,0.0,0.0,0.5939,0.5185,0.3995,0.0,0.0,0.0,0.0,0.0,0.0,0.1378,0.0633,0.0,0.0,0.0,0.0,0.0,0.0,0.0,0.0,0.0,0.0,0.0,0.0,0.0,0.0,0.0,0.0,0.0,0.0,0.0,0.0,0.0,0.0,0.0,0.0,0.0,0.0,0.0,0.0,0.0,0.0,0.0,0.0,0.0,0.0,0.0,0.0,0.0,0.0,0.0,0.0,0.0,0.0,0.0,0.0,0.0,0.0,0.0,0.0,0.0,0.0,0.0,0.0,0.0,0.0,0.0,1.7945,1.9508,2.0953,2.2274,2.2354,2.3302,2.511,2.2917,2.1739,0.0,0.0,0.0,0.0,0.0,0.0,0.0,0.0,0.0,0.0,0.0,0.0,0.0,0.0,0.0,0.0,0.0,0.0,0.0,0.0,0.0,0.0,0.0,0.0,0.0,0.0,0.0,0.0,0.0,0.0,0.0,0.0,0.0,0.0,0.0,0.0,0.0,0.0,0.0,0.0,0.0,0.4229,0.342,0.3169,0.0,0.0,0.0,0.0,0.161,0.0791,0.0,0.0,0.0,0.0,0.0,0.0,0.0,0.0,0.0,0.0,0.0,0.0,0.0,0.0,0.0,0.0,0.0,0.0,0.0,0.0,0.0,0.0,0.0,0.0,0.0,0.0,0.0,0.0,0.0,0.0,0.0,0.0,0.0,0.0,0.0,0.0,0.0,0.0,0.0,0.0,0.0,0.0,0.0,0.0,0.0,0.0,0.0,0.0,0.0,0.0,0.0,0.0,0.0,0.0,0.0,0.0,1.7513,1.8458,1.9995,2.1979,2.1576,2.2467,2.4898,2.2603,2.1287,0.0,0.0,0.0,0.0,0.0,0.0,0.0,0.0,0.0,0.0,0.0,0.0,0.0,0.0,0.0,0.0,0.0,0.0,0.0,0.0,0.0,0.0,0.0,0.0,0.0,0.0,0.0,0.0,0.0,0.0,0.0,0.0,0.0,0.0,0.0,0.0,0.0,0.0,0.0,0.0,0.0,0.3531,0.383,0.333,0.2469,0.0,0.0,0.1228,0.0074,-0.053,0.0,0.0,0.0,0.0,0.0,0.0,0.0,0.0,0.0,0.0,0.0,0.0,0.0,0.0,0.0,0.0,0.0,0.0,0.0,0.0,0.0,0.0,0.0,0.0,0.0,0.0,0.0,0.0,0.0,0.0,0.0,0.0,0.0,0.0,0.0,0.0,0.0,0.0,0.0,0.0,0.0,0.0,0.0,0.0,0.0,0.0,0.0,0.0,0.0,0.0,0.0,0.0,0.0,0.0,0.0,1.559,1.7014,1.8918,2.0432,2.1527,2.2102,2.308,2.4469,2.2192,2.0932,0.0,0.0,0.0,0.0,0.0,0.0,0.0,0.0,0.0,0.0,0.0,0.0,0.0,0.0,0.0,0.0,0.0,0.0,0.0,0.0,0.0,0.0,0.0,0.0,0.0,0.0,0.0,0.0,0.0,0.0,0.0,0.0,0.0,0.0,0.0,0.0,0.0,0.0,0.0,0.0,0.0,0.0,0.2705,0.2121,0.0,0.0,0.0,0.0676,0.0036,0.0,0.0,0.0,0.0,0.0,0.0,0.0,0.0,0.0,0.0,0.0,0.0,0.0,0.0,0.0,0.0,0.0,0.0,0.0,0.0,0.0,0.0,0.0,0.0,0.0,0.0,0.0,0.0,0.0,0.0,0.0,0.0,0.0,0.0,0.0,0.0,0.0,0.0,0.0,0.0,0.0,0.0,0.0,0.0,0.0,0.0,0.0,0.0,0.0,0.0,0.0,0.0,0.0,0.0,0.0,0.0,0.0,1.6867,1.9653,2.1193,2.1385,2.2749,2.3678,2.3977,2.2277,0.0,0.0,0.0,0.0,0.0,0.0,0.0,0.0,0.0,0.0,0.0,0.0,0.0,0.0,0.0,0.0,0.0,0.0,0.0,0.0,0.0,0.0,0.0,0.0,0.0,0.0,0.0,0.3811,0.0,0.0,0.0,0.0,0.0,0.0,0.0,0.0,0.0,0.0,0.0,0.0,0.0,0.0,0.2195,0.1572,0.0952,0.028,0.0,0.0,0.0079,-0.049,-0.1143,-0.1485,0.0,0.0,0.0,0.0,0.0,0.0,0.0,0.0,0.0,0.0,0.0,0.0,0.0,0.0,0.0,0.0,0.0,0.0,0.0,0.0,0.0,0.0,0.0,0.0,0.0,0.0,0.0,0.0,0.0,0.0,0.0,0.0,0.0,0.0,0.0,0.0,0.0,0.0,0.0,0.0,0.0,0.0,0.0,0.0,0.0,0.0,0.0,0.0,0.0,0.0,0.0,0.0,0.0,0.0,0.0,1.7491,2.0446,2.1987,2.2073,2.3176,2.3779,2.382,2.3171,2.2046,0.0,0.0,0.0,0.0,0.0,0.0,0.0,0.0,0.0,0.0,0.0,0.0,0.0,0.0,0.0,0.0,0.0,0.0,0.0,0.0,0.0,0.0,0.0,0.0,0.0,0.0,0.0,0.0,0.0,0.0,0.0,0.0,0.0,0.0,0.0,0.0,0.0,0.0,0.0,0.0,0.0,0.1491,0.1008,0.0453,-0.0297,0.0,-0.0558,-0.0635,-0.25,-0.2885,-0.2831,-0.2533,0.0,0.0,0.0,0.0,0.0,0.0,0.0,0.0,0.0,0.0,0.0,0.0,0.0,0.0,0.0,0.0,0.0,0.0,0.0,0.0,0.0,0.0,0.0,0.0,0.0,0.0,0.0,0.0,0.0,0.0,0.0,0.0,0.0,0.0,0.0,0.0,0.0,0.0,0.0,0.0,0.0,0.0,0.0,0.0,0.0,0.0,0.0,0.0,0.0,0.0,0.0,0.0,0.0,1.6049,1.6898,1.9673,2.1451,2.2237,2.3769,2.4591,2.454,2.3778,2.2449,0.0,0.0,0.0,0.0,0.0,0.0,0.0,0.0,0.0,0.0,0.0,0.0,0.0,0.0,0.0,0.0,0.0,0.0,0.0,0.0,0.0,0.0,0.0,0.0,0.0,0.0,0.0,0.0,0.4189,0.4131,0.3777,0.0,0.0,0.0,0.0,0.0,0.0,0.0,0.0,0.0,0.0,0.0576,0.0471,-0.022,0.0,0.0,-0.1684,-0.2116,-0.282,-0.3092,-0.3244,-0.3332,-0.2908,0.0,0.0,0.0,0.0,0.0,0.0,0.0,0.0,0.0,0.0,0.0,0.0,0.0,0.0,0.0,0.0,0.0,0.0,0.0,0.0,0.0,0.0,0.0,0.0,0.0,0.0,0.0,0.0,0.0,0.0,0.0,0.0,0.0,0.0,0.0,0.0,0.0,0.0,0.0,0.0,0.0,0.0,0.0,0.0,0.0,0.0,0.0,0.0,0.0,0.0,0.0,0.0,1.6237,1.6951,1.973,2.1606,2.2541,2.4507,2.5393,2.5116,2.4873,2.3527,0.0,0.0,0.0,0.0,0.0,0.0,0.0,0.0,0.0,0.0,0.0,0.0,0.0,0.0,0.0,0.0,0.0,0.0,0.0,0.0,0.0,0.0,0.0,0.0,0.0,0.0,0.0,0.0,0.4242,0.3927,0.3329,0.0,0.0,0.0,0.0,0.0,0.0,0.0,0.0,0.0,0.0,-0.0086,-0.0267,-0.0817,-0.1332,-0.1479,-0.2073,-0.2592,-0.2885,-0.3397,-0.3848,-0.4115,0.0,0.0,0.0,0.0,0.0,0.0,0.0,0.0,0.0,0.0,0.0,0.0,0.0,0.0,0.0,0.0,0.0,0.0,0.0,0.0,0.0,0.0,0.0,0.0,0.0,0.0,0.0,1.4796,0.0,0.0,1.3616,0.0,0.0,0.0,0.0,0.0,0.0,0.0,0.0,0.0,0.0,0.0,0.0,0.0,0.0,0.0,0.0,0.0,0.0,0.0,0.0,0.0,0.0,1.7243,1.7925,2.1026,2.2861,2.3143,2.5295,2.611,2.5501,2.6555,2.5473,2.1845,0.0,0.0,0.0,0.0,0.0,0.0,0.0,0.0,0.0,0.0,0.0,0.0,0.0,0.0,0.0,0.0,0.0,0.0,0.0,0.0,0.0,0.0,0.0,0.0,0.0,0.0,0.3991,0.3649,0.3166,0.0,0.0,0.0,0.0,0.0,0.0,0.0,0.0,0.0,0.0414,0.0,-0.0411,-0.1214,-0.1391,-0.145,-0.1572,-0.1501,-0.1815,-0.3016,-0.4139,-0.4909,0.0,0.0,0.0,0.0,0.0,0.0,0.0,0.0,0.0,0.0,0.0,0.0,0.0,0.0,0.0,0.0,0.0,0.0,0.0,0.0,0.0,0.0,0.0,0.0,0.0,0.0,0.0,1.6803,1.6145,0.0,0.0,0.0,0.0,0.0,0.0,0.0,0.0,0.0,0.0,0.0,2.1754,2.2387,0.0,0.0,0.0,0.0,0.0,0.0,0.0,0.0,0.0,0.0,0.0,0.0,1.75,1.83,2.1094,2.3097,2.4081,2.5251,2.6124,2.6701,2.6311,2.4227,2.0273,0.0,0.0,0.0,0.0,0.0,0.0,0.0,0.0,0.0,0.0,0.0,0.0,0.0,0.0,0.0,0.0,0.0,0.0,0.0,0.0,0.0,0.0,0.0,0.0,0.0,0.4002,0.0,0.0,0.0,0.0,0.0,0.0,0.0,0.0,0.0,0.0,0.0,-0.0153,-0.0534,-0.1261,-0.1688,-0.1501,-0.1968,-0.2524,0.0,0.0,0.0,0.0,0.0,0.0,0.0,0.0,0.0,0.0,0.0,0.0,0.0,0.0,-0.9393,-0.7633,-0.7185,-0.7107,-0.6954,0.0,0.0,0.0,0.0,0.0,0.0,0.0,0.0,0.0,0.0,0.0,0.0,0.0,0.0,1.9502,1.8794,1.8406,0.0,0.0,0.0,0.0,0.0,0.0,0.0,0.0,2.2192,2.3509,2.4104,2.4943,2.4716,0.0,2.3429,2.1402,0.0,0.0,0.0,0.0,0.0,0.0,0.0,0.0,1.7791,1.8725,2.1331,2.3454,2.4838,2.5444,2.6246,2.738,2.6117,2.3956,2.0859,1.8868,1.7422,0.0,0.0,0.0,0.0,0.0,0.0,0.0,0.0,0.0,0.0,0.0,0.0,0.0,0.0,0.0,0.0,0.0,0.0,0.0,0.0,0.0,0.0,0.0,0.3161,0.0,0.0,0.0,0.0,0.0,0.0,0.0,0.0,0.0,-0.0773,-0.1201,-0.1564,-0.167,-0.2341,-0.2625,-0.2052,0.0,0.0,0.0,0.0,0.0,0.0,0.0,-0.7023,-0.85,-0.816,-0.8094,-0.9531,-1.082,-1.1464,-1.0904,0.0,0.0,-0.9397,-0.8887,-0.8747,-0.8653,-0.8394,-0.826,-0.8709,-0.8832,-0.9065,0.0,0.0,0.0,0.0,0.0,0.0,0.0,0.0,2.3747,2.3252,0.0,2.1415,0.0,0.0,0.0,0.0,1.9221,2.1085,0.0,0.0,2.6117,2.7518,2.7109,2.763,2.7284,2.6231,2.5664,2.4135,2.1694,1.9977,0.0,0.0,0.0,0.0,0.0,0.0,1.8205,1.9264,2.1849,2.393,2.5385,2.5815,2.6427,2.7267,2.5965,2.4626,2.3456,2.1177,1.9512,1.84,1.5828,0.0,0.0,0.0,0.0,0.0,0.0,0.0,0.0,0.0,0.0,0.0,0.0,0.0,0.0,0.0,0.0,0.0,0.0,0.0,0.0,0.223,0.0,0.0,0.0,0.0,0.0,0.0,0.0,0.0,0.0,0.0,-0.2157,-0.1845,-0.2029,-0.2898,0.0,0.0,0.0,0.0,-0.3225,-0.3375,-0.3419,-0.3976,-0.5323,-0.6942,-0.8441,-0.9669,0.0,0.0,-1.1863,-1.2735,-1.303,-1.1419,-1.2879,-1.3683,-1.1889,-1.0603,-1.0061,-1.0758,-1.0214,-0.9885,-1.1,-1.1395,-1.1584,3.0353,0.0,0.0,0.0,0.0,2.4887,2.527,2.5828,2.5575,2.4875,2.3832,2.3392,0.0,0.0,0.0,0.0,0.0,0.0,2.3423,2.4967,2.6304,2.7693,2.9084,2.9613,2.949,2.8774,2.7906,2.7017,2.605,2.3672,2.0555,1.6833,0.0,0.0,0.0,0.0,1.9458,2.1021,2.278,2.4054,2.4788,2.4598,2.4777,2.5203,2.5027,2.4343,2.3172,2.1614,2.0069,1.8614,1.696,0.0,0.0,0.0,0.0,0.0,0.0,0.0,0.0,0.0,0.0,0.0,0.0,0.0,0.0,0.0,0.0,0.0,0.0,0.0,0.4001,0.1803,0.0463,0.0,0.0,0.0,0.0,0.0,0.0,0.0,0.0,0.0,-0.3439,-0.3489,-0.3229,0.0,0.0,-0.3471,-0.188,-0.3433,-0.4966,-0.5597,-0.6251,0.0,-0.8053,-0.8728,-0.9567,-1.0759,-1.2778,-1.4085,-1.3717,-1.4378,-1.4866,-1.4295,-1.4923,-1.5236,-1.4535,-1.3842,-1.3419,-1.3628,-1.3464,-1.3369,-1.3752,-1.3747,-1.3593,3.4837,3.1795,2.9546,2.8461,2.8199,2.8344,2.8563,2.8817,2.863,2.7838,2.6616,2.6103,2.4901,2.3333,2.3108,0.0,0.0,0.0,2.5206,2.7005,2.7762,2.8937,3.0379,3.0966,3.0942,3.0375,2.9396,2.8537,2.7819,2.5444,2.2579,1.9396,0.0,0.0,1.7792,1.9191,2.069,2.2315,2.336,2.4336,2.5274,2.4713,2.4319,2.4143,2.4283,2.3766,2.2574,2.1908,2.0881,1.9385,1.7733,1.6299,0.0,0.0,0.0,0.0,0.0,0.0,0.0,0.0,0.0,0.0,0.0,0.5046,0.5099,0.0,0.0,0.0,0.2705,0.2771,0.2711,0.059,0.0,0.0,0.0,0.0,0.0,0.0,0.0,-0.2915,-0.3833,-0.452,-0.4561,-0.4744,-0.4524,-0.355,-0.4385,-0.4645,-0.3396,0.0,-0.6041,-0.6656,-0.7241,-0.8,-0.901,-0.9938,-1.1122,-1.3069,-1.4296,-1.5038,-1.5112,-1.5467,-1.5725,-1.5763,-1.593,-1.6016,-1.5779,-1.5494,-1.5235,-1.5063,-1.495,-1.4891,-1.4885,-1.4767,-1.467,3.8255,3.8722,3.5049,3.2731,3.1595,3.2046,3.2242,3.2199,3.2162,3.1457,3.0164,2.9212,2.7822,2.6124,2.4514,0.0,2.5463,2.6323,2.751,2.904,3.0039,3.0767,3.1277,3.1751,3.1671,3.1076,3.0097,2.8932,2.7558,2.5784,2.4198,2.2961,2.1449,2.0462,1.9979,2.0721,2.1859,2.3225,2.3701,2.4703,2.6292,2.5594,2.4757,2.3888,2.3745,2.3159,2.1918,2.2152,2.1732,2.042,1.8237,1.6797,1.6271,0.0,0.0,0.0,0.0,0.0,0.0,0.0,0.0,0.0,0.0,0.0,0.0,0.0,0.0,0.0,0.0706,0.0,0.0107,-0.0945,0.0,0.0,0.0,-0.2483,-0.2907,-0.3925,-0.4423,-0.4038,0.0,0.0,-0.5579,-0.575,-0.5875,-0.585,-0.6041,-0.6236,-0.6184,-0.6347,-0.6645,-0.6881,-0.7124,-0.772,-0.9056,-1.084,-1.3051,-1.5592,-1.6151,-1.6034,-1.6001,-1.6044,-1.6066,-1.6082,-1.6194,-1.628,-1.6104,-1.6023,-1.5872,-1.5386,-1.5122,-1.4955,-1.4972,-1.4945,-1.4912,3.7523,3.769,3.6711,3.5878,3.5135,3.5286,3.4502,3.3183,3.2924,3.2382,3.1522,3.1095,3.0535,2.9866,2.866,2.849,2.912,2.9747,3.0392,3.1002,3.1255,3.1665,3.2183,3.1894,3.1323,3.0402,2.9432,2.8462,2.7547,2.6237,2.5145,2.4326,2.3626,2.2457,2.0886,2.1362,2.2315,2.3701,2.3867,2.4262,2.4922,2.5122,2.4618,2.3421,2.3678,2.3395,2.2366,2.2425,2.1809,2.0447,1.8812,1.7489,1.657,1.3644,0.0,0.0,0.0,0.0,0.0,0.0,0.0,0.0,0.0,0.3679,0.4204,0.0,0.2714,0.0,-0.0108,-0.0351,0.1125,-0.0607,0.0,0.0,-0.2439,-0.3164,-0.4099,-0.4274,-0.4545,-0.4946,-0.5393,-0.5852,-0.6197,-0.6544,-0.6817,-0.7135,-0.6832,-0.6229,-0.5232,-0.6419,-0.7435,-0.758,-0.8679,-0.982,-1.028,-1.2458,-1.4645,-1.6329,-1.6527,-1.6493,-1.6258,-1.6377,-1.6558,-1.6495,-1.6596,-1.6612,-1.6552,-1.6271,-1.6001,-1.585,-1.5591,-1.5429,-1.5424,-1.5289,-1.5165,3.7769,3.8133,3.8033,3.7068,3.5681,3.617,3.5416,3.3847,3.3702,3.3106,3.2212,3.187,3.1592,3.1378,3.0816,3.0677,3.1003,3.1547,3.1902,3.2046,3.2331,3.2311,3.21,3.1806,3.109,3.009,2.9098,2.8333,2.7712,2.6719,2.5969,2.539,2.5265,2.4354,2.2625,2.2191,2.2422,2.3246,2.3867,2.4395,2.4786,2.4705,2.3971,2.2625,2.2044,2.1517,2.0911,2.0565,2.0046,1.9411,1.8144,1.7004,1.6074,1.369,1.2026,0.0,0.0,0.0,0.0,0.0,0.0,0.0,0.0,0.0,0.0,0.0,0.1674,0.1123,-0.0435,-0.0764,0.0681,-0.1137,-0.2434,-0.2458,-0.334,-0.4237,-0.5114,-0.5135,-0.5324,-0.5916,-0.6158,-0.6425,-0.6983,-0.7238,-0.7544,-0.793,-0.7728,-0.7291,-0.6591,-0.7344,-0.8024,-0.814,-0.8986,-0.9949,-1.0561,-1.2018,-1.3491,-1.4692,-1.544,-1.5717,-1.561,-1.6187,-1.6662,-1.6731,-1.6748,-1.6775,-1.6673,-1.6377,-1.6153,-1.6007,-1.5818,-1.5618,-1.5596,-1.5499,-1.5402,3.8024,3.8707,3.8514,3.6983,3.4804,3.575,3.5251,3.3793,3.3748,3.3297,3.2478,3.2163,3.1982,3.1922,3.191,3.1785,3.1615,3.2361,3.2604,3.2536,3.2978,3.2641,3.1693,3.1481,3.0823,2.9813,2.8935,2.8241,2.7772,2.7191,2.6606,2.6041,2.6224,2.5665,2.4225,2.2929,2.2399,2.2598,2.3887,2.4712,2.5032,2.4209,2.3049,2.1618,2.0119,1.9167,1.8846,1.8251,1.7943,1.8003,1.7009,1.6044,1.5219,1.3635,1.2146,0.0,0.9981,0.0,0.0,0.0,0.0,0.0,0.0,0.0,0.0,0.053,0.043,0.0921,-0.053,-0.1248,-0.0672,-0.2068,-0.3151,-0.3468,-0.4532,-0.5389,-0.5897,-0.6071,-0.6337,-0.6808,-0.6904,-0.7167,-0.7752,-0.7959,-0.8084,-0.8366,-0.8478,-0.8396,-0.8375,-0.8345,-0.8448,-0.8576,-0.8787,-0.9634,-1.0763,-1.1094,-1.1615,-1.271,-1.3985,-1.4588,-1.4716,-1.5877,-1.6779,-1.679,-1.6834,-1.6872,-1.6763,-1.6474,-1.6247,-1.6109,-1.586,-1.572,-1.5666,-1.5612,-1.5607,3.631,3.6298,3.6238,3.5779,3.5141,3.5334,3.3686,3.0888,3.0901,3.1491,3.2539,3.3272,3.3356,3.2984,3.2984,3.226,3.1101,3.2876,3.3256,3.242,3.2512,3.2462,3.2185,3.0927,2.9764,2.8836,2.8587,2.8045,2.7199,2.728,2.6705,2.5567,2.5632,2.4925,2.3403,0.0,0.0,0.0,2.4194,2.4648,2.4352,2.334,2.2059,2.0554,2.0185,0.0,1.8711,1.8881,1.8452,1.7294,1.6741,0.0,0.0,0.0,0.0,0.0,0.0,0.0,0.0,0.0,0.0,0.0,0.3516,0.2276,0.0698,-0.0333,-0.0663,-0.0183,-0.1013,-0.1756,-0.2156,-0.289,-0.3655,-0.4277,-0.5258,-0.5877,-0.6049,-0.6329,-0.6712,-0.7208,-0.7317,-0.7573,-0.8129,-0.8339,-0.8388,-0.8532,-0.8573,-0.8579,-0.8557,-0.8549,-0.856,-0.8651,-0.9449,-1.0697,-1.2208,-1.2212,-1.2076,-1.2923,-1.3966,-1.4716,-1.4841,-1.5953,-1.6867,-1.6926,-1.6824,-1.6796,-1.6736,-1.6474,-1.6312,-1.6253,-1.6204,-1.6118,-1.598,-1.5731,-1.5655,3.5716,3.5572,3.5464,3.4868,0.0,3.3903,3.2265,2.9813,3.1668,3.2737,3.3303,3.4055,3.3838,3.2868,3.2898,3.2122,3.0835,3.1681,3.184,3.1435,3.1399,3.1203,3.0726,2.9944,2.9085,2.8241,2.8179,2.7873,2.7395,2.7479,2.7078,2.6202,2.6232,2.5488,2.3951,2.362,2.357,2.3797,2.4307,2.4739,2.4966,2.4212,2.2991,2.1312,2.0207,0.0,0.0,0.0,0.0,0.0,0.0,0.0,0.0,0.0,0.0,1.0688,1.0828,1.0296,0.8693,0.8325,0.7161,0.4782,0.2565,0.078,-0.0486,-0.1121,-0.1321,-0.1106,-0.146,-0.1984,-0.2619,-0.3243,-0.3983,-0.4816,-0.5646,-0.6251,-0.666,-0.6933,-0.7304,-0.771,-0.7857,-0.8047,-0.8404,-0.8503,-0.8522,-0.8576,-0.8587,-0.8587,-0.8587,-0.8587,-0.8587,-0.8587,-0.9117,-0.9908,-1.0565,-1.0694,-1.076,-1.0892,-1.1882,-1.3001,-1.3787,-1.5033,-1.6213,-1.6931,-1.7038,-1.6962,-1.726,-1.702,-1.6792,-1.6912,-1.6891,-1.683,-1.6769,-1.6358,-1.5978,3.5524,3.5416,3.5223,3.4303,3.2989,3.2841,3.1703,3.0164,3.2936,0.0,0.0,3.4144,3.3575,3.1984,3.2262,3.1751,3.0559,3.0335,3.0271,3.0384,3.0252,2.9813,2.9114,2.887,2.8475,2.7843,2.7799,2.7733,2.7626,2.7721,2.7506,2.7055,2.7078,2.6356,2.485,2.4381,2.4256,2.4333,2.4327,2.4711,2.5448,2.4907,2.3874,2.2249,2.0248,1.885,1.8191,1.7348,1.6475,1.5555,1.6288,1.5577,1.3128,1.306,1.2331,1.0615,1.058,1.0186,0.9148,0.8237,0.678,0.466,0.1641,-0.0465,-0.1305,-0.1597,-0.1745,-0.1725,-0.1884,-0.2255,-0.294,-0.3647,-0.4305,-0.4975,-0.5934,-0.6654,-0.6943,-0.7464,-0.7809,-0.8188,-0.8277,-0.8462,-0.8562,-0.8581,-0.8587,-0.8587,-0.8587,-0.8587,-0.8587,-0.8587,-0.8587,-0.8653,-0.872,-0.872,-0.8653,-0.8787,-0.8587,-0.8917,-0.9975,-1.1163,-1.2405,-1.3918,-1.5559,-1.6872,-1.7136,-1.7453,-1.7823,-1.7607,-1.7483,-1.7673,-1.7577,-1.7491,-1.7662,-1.7143,-1.6613,3.5126,3.4884,3.4872,3.446,3.3797,3.3808,3.335,3.2584,3.1792,3.1001,3.0333,3.2476,3.2263,3.0338,3.1511,3.119,2.9759,3.0332,3.0485,3.028,2.9622,2.9215,2.9029,2.8101,2.7593,2.7476,2.7476,2.7457,2.7454,2.7766,2.7651,2.7284,2.7464,2.6643,2.4946,2.4606,2.4404,2.4173,2.4132,2.4207,2.4296,2.3328,2.2429,2.161,2.0184,1.9049,1.8461,1.7527,1.6495,1.5508,1.5925,1.5081,1.2773,1.3345,1.2833,1.0805,1.1297,1.1119,0.9925,0.8578,0.6475,0.3526,0.1622,0.0325,-0.0485,-0.1299,-0.1816,-0.1814,-0.2284,-0.2938,-0.3618,-0.4464,-0.4827,-0.4635,-0.613,-0.6877,-0.6084,-0.7155,-0.8127,-0.8367,-0.8407,-0.8399,-0.8565,-0.852,-0.8387,-0.852,-0.8384,-0.852,-0.8587,-0.8587,-0.8587,-0.8587,-0.8587,-0.8587,-0.8587,-0.8587,-0.8653,-0.8587,-0.9978,-1.1097,-1.149,-1.3656,-1.5489,-1.6143,-1.6861,-1.7582,-1.784,-1.7952,-1.7703,-1.7691,-1.7641,-1.778,-1.7755,-1.7588,-1.7451,3.4744,3.4347,3.404,3.3793,3.3545,3.3273,3.2773,3.2061,3.1069,3.0575,3.0619,3.1968,3.124,2.9156,2.9727,2.9267,2.7964,2.8119,2.8128,2.8076,2.7751,2.764,2.7697,2.7215,2.7053,2.7206,2.7215,2.7269,2.7422,2.7539,2.7488,2.7288,2.6708,2.5853,2.4963,2.4677,2.4413,2.4099,2.4093,2.4382,2.4918,2.3907,2.3352,2.3408,2.1738,2.0572,2.0061,1.9081,1.7949,1.6762,1.7409,1.6565,1.3847,1.405,1.3379,1.1413,1.1639,1.1519,1.0813,0.8749,0.6416,0.3924,0.2369,0.1446,0.1122,-0.0674,-0.181,-0.1838,-0.2451,-0.3146,-0.3858,-0.4803,-0.5239,-0.4789,-0.6432,-0.7035,-0.6159,-0.6546,-0.744,-0.8084,-0.708,-0.6794,-0.8379,-0.7243,-0.664,-0.7178,-0.7379,-0.7648,-0.8451,-0.8587,-0.8587,-0.8587,-0.8587,-0.8587,-0.8587,-0.8787,-0.8851,-0.8851,-0.9715,-1.0644,-1.1299,-1.3001,-1.3984,-1.4903,-1.5559,-1.5889,-1.6213,-1.6143,-1.6143,-1.6343,-1.7055,-1.7114,-1.6662,-1.6732,-1.7237,3.4485,3.3957,3.3569,3.3149,3.2695,3.2156,3.1494,3.0712,3.0307,3.0214,3.0494,3.1041,3.0068,2.8067,2.8117,2.7712,2.6943,2.637,2.6325,2.6588,2.6464,2.6442,2.6617,2.6591,2.6691,2.689,2.689,2.7053,2.7215,2.7269,2.7323,2.7232,2.6018,2.5236,2.5067,2.4757,2.4454,2.4217,2.4207,2.4697,2.5645,2.4815,2.4547,2.4689,2.292,2.1644,2.1082,1.9925,1.881,1.7947,1.8593,1.7696,1.4961,1.4719,1.3858,1.2051,1.1766,1.1313,1.0418,0.8598,0.6416,0.4312,0.2964,0.2212,0.2016,0.0116,-0.1279,-0.1399,-0.2385,-0.335,-0.3954,-0.5206,-0.5668,-0.5036,-0.6333,-0.6599,-0.5456,-0.5573,-0.6205,-0.7008,-0.5599,-0.5297,-0.664,-0.57,-0.4897,-0.5704,-0.6174,-0.6911,-0.7982,-0.8182,-0.8184,-0.872,-0.8787,-0.879,-0.8856,-0.9053,-0.9253,-0.9253,-0.9588,-1.0319,-1.1174,-1.1633,-1.2483,-1.3796,-1.4193,-1.4586,-1.4847,-1.4777,-1.4777,-1.5168,-1.5819,-1.6138,-1.5364,-1.5629,-1.6689,3.4446,3.4021,3.3935,3.2926,3.1424,3.0847,3.012,2.9345,2.924,2.8784,2.8295,2.9029,2.8412,2.6999,2.7519,2.7743,2.753,2.6915,2.6921,2.7477,2.6885,2.659,2.6636,2.6591,2.6591,2.6636,2.6636,2.6691,2.6745,2.6944,2.7152,2.7269,2.6245,2.5494,2.5183,2.504,2.481,2.4472,2.448,2.4849,2.5635,2.5382,2.4903,2.4181,2.2542,2.1131,2.0205,1.8587,1.7796,1.7874,1.7987,1.7109,1.5305,1.5046,1.4089,1.1977,1.1568,1.0366,0.8069,0.7601,0.65,0.4053,0.2975,0.2307,0.1993,0.0951,0.03,-0.018,-0.2313,-0.3711,-0.3826,-0.5666,-0.6007,-0.4191,-0.5379,-0.5403,-0.333,-0.3682,-0.4554,-0.4619,-0.4557,-0.4428,-0.483,-0.4427,-0.4293,-0.4495,-0.5369,-0.6241,-0.6976,-0.7111,-0.7581,-0.8923,-0.9256,-0.9256,-0.9461,-0.9598,-0.9661,-0.9661,-0.9927,-1.0256,-1.0717,-1.1637,-1.2816,-1.2684,-1.3735,-1.4324,-1.4516,-1.4842,-1.4646,-1.4254,-1.4646,-1.4973,-1.4842,-1.4907,-1.5859,3.4396,3.3892,3.3608,3.2586,3.1116,3.0293,2.9343,2.8359,2.8349,2.7887,2.7152,2.7133,2.6935,2.6591,2.6954,2.7107,2.7053,2.6745,2.68,2.7062,2.6736,2.6591,2.6591,2.6591,2.6591,2.6591,2.6591,2.6591,2.6646,2.6745,2.6791,2.6909,2.6409,2.5827,2.5057,2.5603,2.5496,2.4615,2.5093,2.5574,2.5778,2.4963,2.4204,2.3552,2.2329,2.1151,2.003,1.8709,1.8103,1.8212,1.8205,1.7215,1.5176,1.5019,1.4021,1.1914,1.138,1.0484,0.8774,0.8614,0.7463,0.5056,0.4362,0.369,0.2802,0.1695,0.0796,-0.0124,-0.2237,-0.403,-0.4827,-0.5845,-0.5637,-0.418,-0.4591,-0.4268,-0.2416,-0.3357,-0.4294,-0.4294,-0.4294,-0.4294,-0.416,-0.3557,-0.3156,-0.3291,-0.3963,-0.4701,-0.5772,-0.6577,-0.7512,-0.8448,-0.9253,-0.9655,-0.9728,-0.9861,-0.9994,-1.0057,-1.0256,-1.0455,-1.0654,-1.0916,-1.1574,-1.1574,-1.2227,-1.2618,-1.2227,-1.2421,-1.2425,-1.2553,-1.2618,-1.2816,-1.452,-1.4259,-1.4712,3.4204,3.3429,3.2685,3.1664,3.0488,2.9783,2.8783,2.7656,2.7455,2.6983,2.63,2.5743,2.5688,2.6081,2.6254,2.63,2.6136,2.6254,2.6245,2.6136,2.6081,2.6136,2.6136,2.63,2.6364,2.6418,2.6527,2.6591,2.6591,2.6591,2.6591,2.6582,2.6418,2.5907,2.5229,2.5962,2.5873,2.51,2.5739,2.5975,2.5518,2.4523,2.3659,2.2993,2.1875,2.0707,1.9487,1.8617,1.8213,1.8272,1.8325,1.7312,1.5167,1.5013,1.3932,1.1791,1.1291,1.0703,0.9582,0.8944,0.7706,0.5835,0.4979,0.4134,0.3107,0.2104,0.1002,-0.0442,-0.2414,-0.4246,-0.5628,-0.5873,-0.5248,-0.4158,-0.3892,-0.3089,-0.1815,-0.282,-0.349,-0.3222,-0.3691,-0.4092,-0.3691,-0.2888,-0.242,-0.2152,-0.2555,-0.3226,-0.4701,-0.604,-0.7107,-0.8043,-0.9319,-1.006,-0.9994,-1.0193,-1.0323,-1.0389,-1.0522,-1.0654,-1.0721,-1.0721,-1.0721,-1.1115,-1.0784,-1.0784,-1.1244,-1.0982,-1.085,-1.0721,-1.085,-1.1442,-1.2947,-1.2684,-1.275,3.3741,3.2353,3.0988,3.0006,2.9074,2.9018,2.8341,2.7141,2.6603,2.6136,2.5732,2.5119,2.4834,2.4898,2.5404,2.5404,2.5064,2.5514,2.5459,2.5008,2.4953,2.4898,2.4953,2.545,2.5743,2.5798,2.619,2.6473,2.6527,2.6527,2.6591,2.6546,2.598,2.5697,2.5604,2.5697,2.5725,2.5672,2.6118,2.5847,2.4492,2.4244,2.3448,2.2295,2.0942,1.961,1.8341,1.7806,1.7753,1.8023,1.7971,1.7047,1.5227,1.4911,1.3678,1.1531,1.1308,1.0723,0.9394,0.819,0.6845,0.5458,0.4267,0.2849,0.2322,0.2037,0.1028,-0.0902,-0.2601,-0.4263,-0.5724,-0.5782,-0.5352,-0.4292,-0.2956,-0.1681,-0.0337,-0.1546,-0.148,-0.1143,-0.2686,-0.349,-0.2486,-0.2487,-0.1883,-0.148,-0.2153,-0.3294,-0.383,-0.4832,-0.6233,-0.7971,-0.9313,-1.0256,-1.0522,-1.0588,-1.0588,-1.0651,-1.0651,-1.0721,-1.0721,-1.0721,-1.0721,-1.0721,-1.0721,-1.0721,-1.0721,-1.0721,-1.0721,-1.0721,-1.0721,-1.131,-1.1831,-1.1178,-1.1244,3.2979,3.1942,3.0841,2.9814,2.887,2.8228,2.7328,2.6276,2.5852,2.5566,2.5289,2.4572,2.3896,2.3368,2.4184,2.462,2.4778,2.5008,2.5,2.4787,2.4787,2.4787,2.4834,2.5008,2.5119,2.5174,2.5348,2.5459,2.5459,2.5459,2.559,2.5693,2.5351,2.5232,2.5461,2.5628,2.5679,2.5688,2.5578,2.516,2.4425,2.3062,2.1936,2.1278,2.0554,1.9549,1.8387,1.8043,1.7936,1.7996,1.7158,1.5974,1.4535,1.3148,1.2081,1.1158,1.0976,1.0777,1.0368,0.9804,0.8503,0.6544,0.5769,0.4185,0.2496,0.1815,0.0849,-0.1047,-0.1917,-0.3396,-0.5396,-0.5485,-0.4696,-0.4093,-0.2216,-0.0673,-0.0404,-0.1211,-0.1882,-0.1614,-0.2351,-0.2688,-0.2487,-0.1816,-0.1278,-0.1279,-0.1818,-0.2355,-0.2892,-0.3896,-0.5434,-0.69,-0.8307,-0.9513,-1.0651,-1.0721,-1.0721,-1.0721,-1.0721,-1.0721,-1.0721,-1.0721,-1.0721,-1.0721,-1.0721,-1.0721,-1.0721,-1.0784,-1.0784,-1.0784,-1.0784,-1.0853,-1.0717,-1.085,-1.0853,3.1544,3.0917,2.9776,2.891,2.8192,2.7535,2.6793,2.5971,2.5591,2.5231,2.488,2.4128,2.3336,2.2772,2.2998,2.356,2.4192,2.4508,2.4575,2.4423,2.4532,2.4515,2.444,2.4701,2.4806,2.4721,2.4983,2.5099,2.5146,2.5146,2.5235,2.544,2.5097,2.4756,2.481,2.5218,2.5203,2.4622,2.4557,2.4339,2.3512,2.1932,2.0708,2.0131,1.9731,1.925,1.8497,1.8297,1.8135,1.8,1.6882,1.535,1.3667,1.1863,1.0883,1.0785,1.0693,1.0688,1.0796,1.0411,0.9137,0.7076,0.6157,0.4662,0.2079,0.1507,0.0525,-0.0723,-0.1655,-0.2866,-0.4184,-0.4137,-0.3758,-0.3892,-0.2082,-0.0471,-0.0135,-0.1278,-0.2285,-0.2687,-0.2083,-0.2084,-0.2489,-0.1615,-0.1279,-0.1548,-0.1683,-0.1953,-0.2289,-0.383,-0.5233,-0.6364,-0.8238,-0.9579,-1.0452,-1.0717,-1.0721,-1.0721,-1.0721,-1.0721,-1.0721,-1.0721,-1.0721,-1.0721,-1.0721,-1.0721,-1.0717,-1.0784,-1.085,-1.085,-1.1115,-1.1251,-1.1185,-1.1115,-1.1118,2.9384,2.9207,2.7693,2.7159,2.7056,2.6996,2.6756,2.6202,2.5711,2.5085,2.4491,2.3769,2.3267,2.2859,2.2279,2.2256,2.3054,2.3934,2.3983,2.3564,2.3851,2.3785,2.357,2.4332,2.4424,2.4163,2.5242,2.5642,2.5409,2.545,2.5551,2.561,2.5161,2.442,2.3484,2.4378,2.3967,2.2853,2.3419,2.3155,2.1269,2.0764,2.0035,1.9068,1.8725,1.8608,1.8555,1.8475,1.8435,1.8262,1.7092,1.5288,1.2752,1.1315,1.0593,1.045,1.0465,1.0569,1.06,0.9526,0.8232,0.6734,0.5281,0.3616,0.1643,0.1119,0.0787,-0.013,-0.1178,-0.2231,-0.2414,-0.2451,-0.2754,-0.3825,-0.2553,-0.1211,-0.0538,-0.1277,-0.2687,-0.3627,-0.2352,-0.148,-0.2422,-0.2153,-0.1548,-0.1683,-0.1953,-0.2155,-0.2357,-0.4164,-0.5967,-0.6833,-0.8238,-0.9782,-1.0316,-1.0721,-1.0721,-1.0721,-1.0721,-1.0721,-1.0721,-1.0721,-1.0721,-1.0721,-1.0853,-1.0853,-1.1052,-1.1115,-1.1185,-1.1251,-1.1516,-1.1648,-1.1582,-1.1516,-1.1582,2.7753,2.7693,2.7228,2.6753,2.638,2.638,2.6062,2.5513,2.5113,2.4743,2.4426,2.3811,2.3129,2.2644,2.25,2.2377,2.2173,2.3184,2.3299,2.262,2.2711,2.2841,2.2933,2.3217,2.2913,2.2468,2.3858,2.4282,2.3929,2.4349,2.474,2.486,2.4588,2.4004,2.315,2.3624,2.3188,2.2111,2.1969,2.1611,2.0951,2.01,1.9471,1.9108,1.8965,1.8952,1.8957,1.8474,1.8183,1.8114,1.5977,1.3606,1.1463,1.0701,1.0527,1.0443,1.0439,1.0533,1.0424,0.9308,0.7904,0.6467,0.5093,0.3318,0.1451,0.1054,0.0789,0.0,0.0,-0.1317,-0.2983,-0.2671,-0.2351,-0.2755,-0.1748,-0.0875,-0.0404,-0.148,-0.2219,-0.2286,-0.2286,-0.2354,-0.2086,-0.1683,-0.1751,-0.1953,-0.2087,-0.2222,-0.2558,-0.3964,-0.5367,-0.6366,-0.8171,-0.9915,-1.0382,-1.0721,-1.0721,-1.0787,-1.0784,-1.0784,-1.0784,-1.0787,-1.0787,-1.0853,-1.0986,-1.1247,-1.138,-1.1516,-1.1582,-1.1648,-1.1843,-1.1846,-1.1846,-1.185,-1.1978,2.6684,2.6623,2.6388,2.6083,2.577,2.5709,2.5472,2.5079,2.4873,2.4645,2.4379,2.4067,2.3052,2.1883,2.1777,2.1556,2.1074,2.0851,2.0709,2.113,2.2097,2.2253,2.2053,2.2036,2.2414,2.2522,2.3097,2.3474,2.3595,2.3783,2.4012,2.4137,2.394,2.3142,2.2227,2.2471,2.2166,2.0916,2.0829,2.0637,2.0187,1.9445,1.9038,1.9025,1.8944,1.8894,1.8783,1.7888,1.7462,1.7167,1.5024,1.2542,1.0561,1.0409,1.043,1.0343,1.0302,1.0336,1.0401,0.9736,0.8293,0.6615,0.545,0.372,0.178,0.0985,0.0589,0.0,0.0,-0.0727,-0.2129,-0.2078,-0.1546,-0.148,-0.1547,-0.101,-0.0807,-0.1345,-0.1884,-0.1682,-0.2019,-0.2221,-0.2019,-0.1818,-0.1885,-0.2155,-0.2222,-0.2558,-0.3026,-0.4231,-0.5566,-0.6969,-0.8706,-0.9981,-1.0585,-1.0721,-1.0787,-1.0787,-1.0784,-1.085,-1.0916,-1.0986,-1.0986,-1.1251,-1.1383,-1.2033,-1.2293,-1.2041,-1.1978,-1.2107,-1.2565,-1.2309,-1.2309,-1.2309,-1.2375,2.6067,2.5953,2.541,2.5165,2.5173,2.5165,2.5103,2.505,2.5034,2.466,2.4295,2.4275,2.32,2.1178,2.0852,2.0552,1.9809,1.8344,1.8006,1.9457,2.097,2.1522,2.0635,2.0877,2.1854,2.3057,2.263,2.2985,2.3785,2.3685,2.3527,2.34,2.3078,2.2159,2.0903,2.1163,2.0731,1.9412,1.9928,1.9973,1.9249,1.8908,1.8749,1.8749,1.8511,1.8273,1.7946,1.656,1.6078,1.6349,1.4142,1.2089,1.0662,1.0333,1.0227,1.0101,1.0063,1.0032,1.0287,0.9649,0.8525,0.614,0.5241,0.4465,0.151,0.0718,0.0454,0.0,0.0,-0.0132,-0.053,-0.0534,-0.0672,-0.074,-0.1547,-0.1749,-0.1279,-0.1212,-0.1414,-0.1616,-0.1683,-0.1751,-0.2087,-0.2155,-0.2155,-0.2155,-0.2222,-0.2759,-0.3899,-0.5168,-0.6836,-0.8174,-0.9377,-1.018,-1.085,-1.092,-1.0986,-1.1185,-1.1181,-1.1181,-1.1181,-1.1251,-1.1707,-1.1975,-1.2173,-1.275,-1.3399,-1.3473,-1.3669,-1.4189,-1.3997,-1.3223,-1.2964,-1.3091,-1.3223,2.5349,2.5349,2.5173,2.5103,2.5103,2.5103,2.498,2.4741,2.4734,2.4486,2.4117,2.3954,2.3375,2.2416,2.1928,2.13,2.0233,2.0127,1.8984,1.7945,1.907,1.9358,1.9035,1.9608,1.9703,1.9519,2.1038,2.1699,2.1182,2.2445,2.2711,2.2241,2.2011,2.1305,2.0198,2.0343,1.9966,1.8868,1.8992,1.9277,1.9145,1.8831,1.8794,1.8951,1.8371,1.7678,1.678,1.4332,1.3093,1.3421,1.2862,1.1764,1.0395,1.0263,1.0221,1.0152,1.025,0.9745,0.8654,0.7815,0.6275,0.4289,0.3402,0.1856,0.0845,0.0588,0.0326,0.0,0.0,-0.0397,-0.1134,-0.0872,-0.0808,-0.1212,-0.1615,-0.175,-0.1818,-0.1683,-0.1616,-0.1953,-0.202,-0.2087,-0.2155,-0.2222,-0.2222,-0.2222,-0.2424,-0.2826,-0.4367,-0.5769,-0.7303,-0.844,-0.9576,-1.0445,-1.0982,-1.1052,-1.1251,-1.1516,-1.1648,-1.1644,-1.1648,-1.1648,-1.2495,-1.3341,-1.3341,-1.3792,-1.5154,-1.6003,-1.6198,-1.6003,-1.5814,-1.5168,-1.4586,-1.4455,-1.4455,2.5103,2.5103,2.5103,2.505,2.4926,2.4865,2.4672,2.4417,2.4363,2.417,2.3938,2.3848,2.3111,2.1953,2.1698,2.089,1.9822,1.9717,1.8842,1.7935,1.7516,1.7548,1.7767,1.8262,1.8081,1.8166,1.9283,1.9707,1.9751,2.0694,2.0591,2.0202,2.0247,1.9689,1.8611,1.9159,1.9131,1.8678,1.8716,1.8933,1.9048,1.8609,1.8482,1.8442,1.782,1.6749,1.4904,1.2757,1.1793,1.1896,1.1438,1.065,0.9958,0.9828,0.9857,0.9912,1.0,0.9531,0.861,0.7344,0.583,0.4281,0.273,0.1448,0.0718,0.0392,0.0195,0.0,0.0,0.0,-0.114,-0.1076,-0.1279,-0.1683,-0.1683,-0.1751,-0.2155,-0.1953,-0.1953,-0.2155,-0.2222,-0.2222,-0.2222,-0.2222,-0.2222,-0.2357,-0.2893,-0.383,-0.5101,-0.6368,-0.7836,-0.9241,-1.0044,-1.0846,-1.1314,-1.1449,-1.1582,-1.1912,-1.2111,-1.2111,-1.2111,-1.2173,-1.3214,-1.4058,-1.4381,-1.5159,-1.6711,-1.7683,-1.7297,-1.7103,-1.7232,-1.691,-1.6138,-1.5749,-1.5749,2.498,2.4857,2.4988,2.4795,2.4355,2.4479,2.4363,2.4108,2.4046,2.3798,2.3534,2.379,2.2642,2.0402,2.0817,1.9807,1.8583,1.7864,1.7543,1.7032,1.627,1.5703,1.6525,1.642,1.7031,1.8068,1.7432,1.7955,1.8572,1.8444,1.8072,1.8032,1.8094,1.7703,1.7297,1.7745,1.8048,1.8084,1.8317,1.8529,1.8524,1.8087,1.7797,1.7652,1.6382,1.5013,1.3171,1.1612,1.1075,1.1672,1.022,0.9592,0.9304,0.9304,0.9355,0.9512,0.9558,0.941,0.8823,0.7296,0.6097,0.4278,0.2823,0.1947,0.0656,0.0196,0.0,0.0,0.0,-0.0336,-0.0807,-0.1212,-0.1683,-0.202,-0.2155,-0.2155,-0.2222,-0.2222,-0.2222,-0.2222,-0.2222,-0.2222,-0.2223,-0.2357,-0.249,-0.3095,-0.3763,-0.5166,-0.6368,-0.7567,-0.9036,-1.0644,-1.1115,-1.1314,-1.1644,-1.1846,-1.2045,-1.2309,-1.2507,-1.2572,-1.2568,-1.2894,-1.3805,-1.4646,-1.5744,-1.7098,-1.8646,-1.8908,-1.846,-1.8524,-1.8786,-1.8075,-1.7302,-1.7232,-1.7168,2.4348,2.3208,2.4286,2.3914,2.2904,2.3728,2.3991,2.3736,2.3728,2.3362,2.2918,2.2926,2.2186,2.0953,2.0805,1.9641,1.7626,1.7537,1.7315,1.5427,1.4253,1.3782,1.4414,1.4823,1.5326,1.5964,1.6557,1.6684,1.6735,1.7106,1.7161,1.6525,1.653,1.6425,1.6287,1.6635,1.684,1.6937,1.7149,1.7427,1.7527,1.7165,1.6956,1.671,1.4658,1.3019,1.185,1.0005,0.9136,0.9374,0.9522,0.9394,0.9449,0.9473,0.9425,0.9384,0.9399,0.8411,0.6158,0.5292,0.3819,0.1677,0.1,0.0,0.0,0.0,0.0,0.0,-0.0267,-0.0807,-0.1547,-0.1548,-0.1952,-0.2289,-0.2289,-0.2222,-0.2222,-0.2222,-0.2222,-0.2222,-0.2289,-0.2222,-0.2289,-0.343,-0.3697,-0.3966,-0.5101,-0.6633,-0.77,-0.8701,-1.0038,-1.1516,-1.1648,-1.178,-1.2041,-1.2177,-1.2309,-1.2507,-1.2638,-1.3161,-1.3157,-1.387,-1.4907,-1.6198,-1.7555,-1.8844,-1.9877,-2.0392,-2.0005,-2.0202,-2.0208,-1.9431,-1.8844,-1.8716,-1.8588,2.2716,2.202,2.3029,2.2834,2.2201,2.3285,2.3673,2.3362,2.3168,2.2926,2.2606,2.248,2.1645,2.053,2.0692,1.9588,1.8034,1.8278,1.7645,1.6035,1.541,1.4871,1.3654,1.4454,1.4981,1.4455,1.5008,1.515,1.5071,1.5266,1.5335,1.5176,1.5344,1.5655,1.5761,1.608,1.6517,1.6646,1.6706,1.6888,1.6953,1.6572,1.5969,1.5261,1.3263,1.1717,1.1181,0.924,0.8215,0.816,0.8584,0.8971,0.8947,0.8778,0.8668,0.8643,0.8262,0.7545,0.5621,0.4158,0.2952,0.1276,0.0201,-0.02,0.0,0.0,0.0,-0.04,-0.1071,-0.2016,-0.3358,-0.3093,-0.3094,-0.296,-0.2558,-0.2222,-0.2222,-0.2222,-0.2222,-0.2357,-0.2826,-0.3095,-0.3631,-0.4567,-0.5099,-0.5434,-0.6571,-0.7971,-0.8568,-0.9504,-1.0638,-1.1644,-1.1912,-1.2111,-1.2441,-1.2572,-1.2576,-1.2638,-1.2704,-1.342,-1.3936,-1.4973,-1.6133,-1.7232,-1.8267,-1.9361,-2.0329,-2.0849,-2.1102,-2.0849,-2.0652,-2.0526,-2.0329,-2.0005,-1.9941,2.0753,2.062,2.1636,2.1699,2.151,2.2849,2.3355,2.2981,2.2731,2.255,2.2292,2.1978,2.0701,1.9797,1.9643,1.8997,1.7894,1.7705,1.656,1.5142,1.6249,1.5438,1.4345,1.4998,1.5465,1.4167,1.4116,1.3957,1.3802,1.3535,1.3854,1.393,1.4372,1.4711,1.5167,1.5761,1.607,1.6043,1.6283,1.6392,1.6413,1.5944,1.5238,1.3762,1.2243,1.0801,0.9944,0.8477,0.7321,0.7043,0.7534,0.7902,0.7927,0.7787,0.7339,0.7426,0.6973,0.6129,0.5025,0.3692,0.255,0.2617,0.0599,-0.0333,0.0,0.0,0.0,-0.1004,-0.1882,-0.3557,-0.5499,-0.4701,-0.4233,-0.3966,-0.3027,-0.2423,-0.249,-0.2491,-0.2692,-0.2826,-0.383,-0.4565,-0.5101,-0.5834,-0.6366,-0.7034,-0.8171,-0.9175,-0.9772,-1.0303,-1.1372,-1.1975,-1.2243,-1.2375,-1.2638,-1.2898,-1.2968,-1.3486,-1.3354,-1.4067,-1.4973,-1.6328,-1.7361,-1.7683,-1.8652,-1.9877,-2.0652,-2.0912,-2.1102,-2.1102,-2.1039,-2.0843,-2.0912,-2.1109,-2.1046,1.9382,1.8314,2.0676,2.0816,1.9928,2.209,2.2918,2.2731,2.2418,2.223,2.1538,2.05,1.9581,1.8638,1.7433,1.616,1.5562,1.5483,1.452,1.3499,1.4575,1.4422,1.4337,1.533,1.594,1.5661,1.4444,1.3384,1.3412,1.3031,1.3057,1.318,1.3423,1.3713,1.4147,1.4379,1.4835,1.5041,1.5271,1.5248,1.5122,1.4977,1.4285,1.2658,1.1188,0.9774,0.8316,0.7059,0.6196,0.6227,0.6385,0.6543,0.6695,0.7099,0.7055,0.664,0.6324,0.541,0.3757,0.2752,0.1276,0.0,-0.0805,-0.0938,-0.0672,-0.0738,-0.1006,-0.1745,-0.2821,-0.4428,-0.6032,-0.5503,-0.4501,-0.4031,-0.3362,-0.2759,-0.3564,-0.3899,-0.4033,-0.4366,-0.53,-0.6166,-0.6633,-0.7303,-0.8035,-0.8704,-0.9504,-1.0439,-1.1104,-1.1505,-1.2037,-1.2437,-1.2704,-1.2704,-1.277,-1.3095,-1.342,-1.4455,-1.4777,-1.5364,-1.6392,-1.7748,-1.8652,-1.8914,-1.9495,-2.0526,-2.0976,-2.1102,-2.1102,-2.1102,-2.1102,-2.1102,-2.1235,-2.1362,-2.1481,1.742,1.698,1.9285,1.9285,1.8396,2.0613,2.1182,2.0353,2.0746,2.043,1.9668,1.9215,1.8198,1.7205,1.7559,1.6803,1.5817,1.4948,1.4036,1.3406,1.4229,1.4076,1.3531,1.4782,1.4774,1.4238,1.3126,1.3274,1.3885,1.3084,1.2869,1.315,1.3255,1.3433,1.3666,1.3973,1.3991,1.4189,1.4294,1.4338,1.4141,1.4333,1.337,1.1884,1.0597,0.9212,0.7675,0.658,0.5879,0.5678,0.6007,0.5787,0.5635,0.5833,0.6295,0.5865,0.5527,0.4809,0.3354,0.2821,0.1882,0.0808,-0.0269,-0.0673,-0.0673,-0.0942,-0.1816,-0.3358,-0.4361,-0.6101,-0.8374,-0.7171,-0.6301,-0.5302,-0.4097,-0.3697,-0.4233,-0.4902,-0.557,-0.617,-0.7038,-0.7702,-0.8033,-0.877,-0.9775,-1.0442,-1.0909,-1.1574,-1.2239,-1.2375,-1.2507,-1.2832,-1.3095,-1.3613,-1.3744,-1.4193,-1.4581,-1.5489,-1.6133,-1.6721,-1.749,-1.878,-1.9553,-2.0075,-2.0722,-2.1039,-2.1102,-2.1102,-2.1102,-2.1102,-2.1229,-2.1362,-2.1488,-2.1551,-2.1734,1.5774,1.5969,1.7765,1.7759,1.6985,1.9018,1.9331,1.8238,1.8826,1.857,1.7608,1.7742,1.691,1.5868,1.6456,1.7162,1.6682,1.5313,1.4341,1.3597,1.448,1.4215,1.336,1.364,1.4413,1.4065,1.2921,1.3075,1.3541,1.2965,1.2781,1.2931,1.3319,1.3443,1.3478,1.363,1.363,1.3708,1.3778,1.387,1.3875,1.3735,1.282,1.1102,1.0165,0.8851,0.6717,0.591,0.5344,0.518,0.5288,0.5312,0.4513,0.4784,0.5176,0.5103,0.4525,0.4268,0.3684,0.2824,0.1883,0.1144,0.0202,-0.0404,-0.0942,-0.1749,-0.2956,-0.5366,-0.6635,-0.7702,-0.9579,-0.9241,-0.7902,-0.6433,-0.5101,-0.4434,-0.4967,-0.5835,-0.7169,-0.7971,-0.8776,-0.9175,-0.9371,-0.9706,-1.0578,-1.1045,-1.1512,-1.1839,-1.2441,-1.2507,-1.2638,-1.3091,-1.3613,-1.439,-1.4973,-1.5749,-1.6263,-1.7103,-1.7555,-1.7946,-1.8716,-1.9553,-2.0202,-2.0722,-2.0849,-2.1102,-2.1102,-2.1102,-2.1166,-2.1299,-2.1488,-2.1614,-2.174,-2.1922,-2.2111,1.4996,1.5127,1.6348,1.6667,1.6602,1.7795,1.8046,1.7543,1.7608,1.7479,1.6651,1.6003,1.5359,1.5062,1.4677,1.4079,1.3487,1.3658,1.3315,1.2617,1.3421,1.3796,1.3597,1.4854,1.4827,1.4311,1.3667,1.3162,1.2927,1.2366,1.232,1.2601,1.2656,1.2656,1.3041,1.3216,1.3358,1.3573,1.3783,1.3809,1.3809,1.356,1.2006,1.0172,0.9109,0.781,0.5504,0.4757,0.4487,0.4465,0.4408,0.4438,0.4278,0.436,0.444,0.444,0.4233,0.3896,0.3159,0.2286,0.1345,0.0673,-0.0741,-0.1548,-0.1817,-0.2823,-0.4297,-0.603,-0.7436,-0.8842,-1.0047,-0.938,-0.7971,-0.67,-0.5499,-0.5434,-0.59,-0.6502,-0.7905,-0.9308,-1.0047,-1.0246,-1.0445,-1.0846,-1.1251,-1.1648,-1.2045,-1.2309,-1.2507,-1.2572,-1.303,-1.3547,-1.452,-1.5359,-1.6457,-1.7168,-1.7876,-1.8652,-1.8908,-1.917,-1.9686,-2.0329,-2.0589,-2.0976,-2.1102,-2.1166,-2.1229,-2.1229,-2.1299,-2.1488,-2.1734,-2.1859,-2.1985,-2.2237,-2.2543,1.4604,1.4665,1.5759,1.5564,1.4922,1.5998,1.5864,1.5163,1.5679,1.5489,1.4847,1.4973,1.4846,1.4507,1.3654,1.3252,1.3053,1.2868,1.2427,1.1953,1.2367,1.2664,1.2672,1.3153,1.3546,1.3662,1.3136,1.2617,1.2241,1.2146,1.2142,1.2259,1.2385,1.2486,1.2679,1.2823,1.2957,1.3039,1.3183,1.3284,1.3227,1.2964,1.1703,0.9036,0.8847,0.7044,0.5049,0.4249,0.4239,0.4268,0.4267,0.4277,0.43,0.4307,0.4307,0.4307,0.4307,0.4102,0.3632,0.2554,0.1614,0.074,-0.0404,-0.1279,-0.2019,-0.3429,-0.4967,-0.6299,-0.7702,-0.9175,-1.0117,-0.938,-0.8573,-0.7436,-0.6235,-0.6635,-0.7102,-0.7569,-0.8507,-0.9911,-1.1118,-1.1049,-1.1115,-1.1383,-1.1714,-1.2111,-1.2309,-1.2375,-1.2572,-1.2704,-1.3354,-1.4128,-1.5294,-1.6522,-1.7812,-1.885,-1.9425,-2.0068,-2.0068,-2.0329,-2.0589,-2.1039,-2.1102,-2.1229,-2.1292,-2.1355,-2.1355,-2.1418,-2.1544,-2.1796,-2.2048,-2.2174,-2.2362,-2.2731,-2.3168,1.4146,1.4207,1.4977,1.453,1.3494,1.4385,1.4063,1.3095,1.3936,1.3809,1.3288,1.3866,1.4234,1.3933,1.2987,1.2787,1.3441,1.2356,1.1913,1.1837,1.1837,1.1893,1.2034,1.1995,1.2094,1.1978,1.2341,1.22,1.2138,1.2055,1.1999,1.2105,1.2349,1.2438,1.2471,1.2592,1.2751,1.2747,1.2837,1.2894,1.2836,1.2836,1.1171,0.9507,0.8307,0.7243,0.4841,0.4303,0.4303,0.4303,0.4301,0.4301,0.4307,0.4307,0.4307,0.4307,0.4307,0.4307,0.3767,0.2958,0.2151,0.121,0.0,-0.1548,-0.2221,-0.3697,-0.5101,-0.6366,-0.8304,-0.9579,-1.0183,-0.9712,-0.9042,-0.8371,-0.7569,-0.7971,-0.8307,-0.844,-0.8972,-1.0313,-1.1181,-1.1383,-1.1512,-1.1714,-1.2111,-1.2507,-1.2572,-1.2572,-1.277,-1.303,-1.3875,-1.4777,-1.6392,-1.7555,-1.8524,-1.975,-2.0589,-2.1102,-2.1102,-2.1102,-2.1102,-2.1102,-2.1166,-2.1292,-2.1488,-2.1734,-2.1853,-2.179,-2.179,-2.2111,-2.2362,-2.255,-2.2793,-2.323,-2.4023,1.3437,1.3498,1.3564,1.3564,1.3371,1.3099,1.2964,1.277,1.2968,1.2964,1.2836,1.296,1.3144,1.2841,1.2582,1.2347,1.2436,1.1988,1.1805,1.1772,1.1837,1.1788,1.1833,1.1922,1.2024,1.2097,1.2203,1.2199,1.2105,1.2117,1.2154,1.228,1.2324,1.2418,1.2503,1.2596,1.2726,1.2751,1.2758,1.2766,1.277,1.2568,1.1362,0.9296,0.8368,0.7243,0.4505,0.4305,0.4307,0.4307,0.4307,0.4307,0.4307,0.4307,0.4307,0.4307,0.4307,0.4307,0.3969,0.2757,0.1479,0.0605,-0.0605,-0.1953,-0.2289,-0.4765,-0.6099,-0.6633,-0.864,-1.0114,-1.0585,-1.0449,-0.9443,-0.9108,-0.8573,-0.8573,-0.8776,-0.8909,-0.951,-1.0714,-1.1247,-1.1446,-1.171,-1.1978,-1.2177,-1.2572,-1.277,-1.277,-1.342,-1.3809,-1.4586,-1.5684,-1.749,-1.8588,-1.9042,-1.9941,-2.0843,-2.1102,-2.1102,-2.1102,-2.1102,-2.1102,-2.1166,-2.1418,-2.1614,-2.1985,-2.2292,-2.223,-2.2292,-2.248,-2.2731,-2.3347,-2.4139,-2.481,-2.5668,1.3239,1.3038,1.3034,1.3034,1.3038,1.2836,1.277,1.277,1.277,1.277,1.277,1.2766,1.2775,1.2564,1.2183,1.1925,1.1806,1.1581,1.149,1.1583,1.1651,1.1833,1.1914,1.1962,1.2134,1.2308,1.2422,1.2373,1.2227,1.2182,1.213,1.2186,1.2259,1.2324,1.243,1.2617,1.2759,1.2804,1.277,1.277,1.277,1.263,1.1457,0.8861,0.8621,0.7066,0.4727,0.4357,0.4301,0.4307,0.4307,0.4307,0.4307,0.4307,0.4307,0.4307,0.4307,0.4307,0.4104,0.2824,0.1614,0.0,-0.1279,-0.2222,-0.2424,-0.4765,-0.6099,-0.73,-0.8972,-1.0585,-1.0651,-0.9981,-0.9175,-0.9443,-0.9513,-0.931,-0.9377,-0.9513,-0.9779,-1.0784,-1.1181,-1.1383,-1.1776,-1.2107,-1.2371,-1.2634,-1.277,-1.3095,-1.3809,-1.4842,-1.5749,-1.6656,-1.8396,-1.9489,-1.9941,-2.0526,-2.1102,-2.1102,-2.1102,-2.1102,-2.1102,-2.1102,-2.1172,-2.1488,-2.1859,-2.2174,-2.2418,-2.2606,-2.2793,-2.3043,-2.3783,-2.4641,-2.5493,-2.6399,-2.7185,1.3169,1.2836,1.277,1.277,1.277,1.277,1.277,1.277,1.277,1.277,1.277,1.2762,1.2771,1.2556,1.2143,1.1913,1.1697,1.146,1.1096,1.1134,1.1347,1.1547,1.1653,1.1916,1.2341,1.2608,1.2617,1.2556,1.2385,1.2333,1.2251,1.2211,1.2235,1.232,1.2471,1.2661,1.277,1.277,1.277,1.277,1.277,1.2231,1.1162,0.8702,0.8117,0.6657,0.485,0.4273,0.4304,0.4307,0.4307,0.4307,0.4307,0.4307,0.4307,0.4307,0.4307,0.4307,0.3901,0.2824,0.1277,-0.074,-0.1615,-0.2221,-0.3094,-0.4832,-0.6297,-0.6698,-0.8906,-1.0717,-1.0651,-1.0047,-0.9848,-1.0117,-0.9981,-0.9848,-1.0114,-1.0316,-1.0382,-1.0784,-1.0982,-1.1247,-1.1846,-1.2243,-1.2572,-1.2964,-1.3613,-1.394,-1.452,-1.5684,-1.7168,-1.8139,-1.9297,-2.0138,-2.0912,-2.0976,-2.1102,-2.1102,-2.1102,-2.1102,-2.1102,-2.1102,-2.1355,-2.1734,-2.2048,-2.2362,-2.2675,-2.2918,-2.3293,-2.3728,-2.4764,-2.592,-2.6935,-2.7778,-2.8564,1.3165,1.2836,1.2758,1.2754,1.2766,1.277,1.277,1.277,1.277,1.277,1.277,1.277,1.2766,1.2624,1.2185,1.2004,1.1921,1.1313,1.0793,1.0587,1.1168,1.1005,1.1205,1.1747,1.2503,1.2592,1.2682,1.269,1.26,1.2377,1.2296,1.2324,1.2369,1.2442,1.2572,1.2739,1.2766,1.277,1.277,1.2766,1.2266,1.1461,1.012,0.8353,0.7294,0.5909,0.4704,0.4275,0.4304,0.4307,0.4307,0.4307,0.4307,0.4307,0.4307,0.4307,0.4307,0.4104,0.3632,0.2016,0.0134,-0.1613,-0.2287,-0.2692,-0.3497,-0.5033,-0.6633,-0.7034,-0.9108,-1.0452,-1.0585,-1.0585,-1.0585,-1.025,-1.0047,-1.0316,-1.0585,-1.0721,-1.0721,-1.0717,-1.0784,-1.0982,-1.1714,-1.2309,-1.2704,-1.3358,-1.4198,-1.4847,-1.5364,-1.6586,-1.8139,-1.917,-2.0138,-2.0456,-2.0976,-2.1039,-2.1102,-2.1102,-2.1102,-2.1102,-2.1166,-2.1299,-2.1607,-2.1985,-2.2362,-2.2613,-2.2981,-2.3293,-2.4386,-2.5668,-2.6216,-2.7246,-2.8265,-2.9107,-2.9766,1.2861,1.275,1.2584,1.2621,1.275,1.277,1.277,1.277,1.277,1.277,1.277,1.277,1.277,1.262,1.2173,1.1936,1.1838,1.1287,1.0622,1.0891,1.1291,1.1538,1.1748,1.2055,1.2629,1.2731,1.2812,1.2747,1.2616,1.241,1.241,1.2454,1.2556,1.2686,1.2743,1.2754,1.277,1.277,1.2692,1.2389,1.1489,1.0754,0.9521,0.7339,0.6646,0.5558,0.4355,0.4277,0.4304,0.4307,0.4307,0.4307,0.4307,0.4307,0.4307,0.4307,0.4239,0.3497,0.2151,0.0336,-0.1142,-0.2218,-0.2757,-0.3362,-0.4635,-0.5635,-0.6702,-0.7838,-0.9446,-1.0183,-0.951,-1.0316,-1.0386,-0.9646,-0.9576,-1.0316,-1.0721,-1.0721,-1.0721,-1.0784,-1.085,-1.1383,-1.1978,-1.2503,-1.2968,-1.3809,-1.4782,-1.5749,-1.6398,-1.7619,-1.9042,-2.0011,-2.0786,-2.0912,-2.1102,-2.1102,-2.1102,-2.1102,-2.1102,-2.1102,-2.1229,-2.1425,-2.1734,-2.2048,-2.248,-2.2918,-2.3961,-2.5117,-2.6624,-2.7778,-2.8146,-2.8632,-2.954,-3.0255,-3.0723,1.2668,1.2621,1.2402,1.2434,1.2645,1.2714,1.2771,1.2758,1.277,1.277,1.277,1.2704,1.2704,1.2566,1.2159,1.1979,1.1996,1.1427,1.0794,1.1117,1.151,1.1526,1.178,1.2367,1.2649,1.275,1.2758,1.2759,1.267,1.2487,1.2467,1.2572,1.2743,1.2722,1.2758,1.2766,1.277,1.277,1.2692,1.2463,1.1461,1.0424,0.8994,0.7449,0.6237,0.5096,0.4437,0.4266,0.4307,0.4307,0.4307,0.4307,0.4307,0.4307,0.4307,0.4307,0.3362,0.2352,0.047,-0.1478,-0.2821,-0.3695,-0.3496,-0.4099,-0.5304,-0.6101,-0.7169,-0.8374,-0.9915,-0.9981,-0.9712,-1.0518,-1.025,-0.9576,-0.9845,-1.0585,-1.0721,-1.0721,-1.085,-1.0916,-1.1049,-1.1648,-1.2177,-1.27,-1.3161,-1.4263,-1.5359,-1.6398,-1.7431,-1.8716,-1.975,-2.0462,-2.1046,-2.1102,-2.1102,-2.1102,-2.1102,-2.1102,-2.1102,-2.1102,-2.1292,-2.1481,-2.1796,-2.2292,-2.3223,-2.4324,-2.5721,-2.7056,-2.8197,-2.903,-2.9571,-3.0187,-3.0937,-3.1228,-3.1441,1.2607,1.2304,1.2296,1.2292,1.2345,1.2499,1.2649,1.2738,1.275,1.275,1.2754,1.2491,1.2572,1.2638,1.2146,1.2165,1.2278,1.1777,1.1273,1.0982,1.1618,1.1456,1.1671,1.2188,1.266,1.2754,1.2766,1.2754,1.2738,1.2661,1.2592,1.2669,1.2751,1.275,1.277,1.277,1.277,1.277,1.2766,1.2258,1.1203,0.9833,0.8448,0.7042,0.569,0.4715,0.4259,0.4279,0.43,0.4307,0.4307,0.4307,0.4307,0.4307,0.4307,0.3699,0.2285,0.0806,-0.1007,-0.2955,-0.4099,-0.4638,-0.4167,-0.4836,-0.577,-0.6771,-0.7772,-0.8839,-1.0114,-1.0319,-1.0518,-1.0585,-1.0581,-1.0382,-1.0449,-1.0717,-1.0721,-1.0787,-1.0916,-1.1049,-1.1181,-1.1644,-1.2243,-1.2836,-1.3551,-1.5038,-1.6263,-1.749,-1.8594,-1.9756,-2.0526,-2.0652,-2.1102,-2.1102,-2.1102,-2.1102,-2.1102,-2.1102,-2.1102,-2.1102,-2.1355,-2.1727,-2.223,-2.3036,-2.4324,-2.5668,-2.7108,-2.8307,-2.9325,-3.0051,-3.0704,-3.0946,-3.145,-3.1624,-3.1845,1.2245,1.2276,1.2036,1.2073,1.2296,1.2357,1.2418,1.2467,1.258,1.2641,1.2649,1.2652,1.2634,1.2762,1.2506,1.2495,1.2222,1.1931,1.1722,1.1749,1.1808,1.1899,1.2106,1.2481,1.275,1.277,1.277,1.277,1.2762,1.2751,1.2661,1.2677,1.2759,1.2754,1.277,1.277,1.2762,1.2758,1.2754,1.1783,1.0595,0.9133,0.7651,0.6018,0.5035,0.4255,0.4283,0.4292,0.4307,0.4307,0.4307,0.4307,0.4307,0.4239,0.4104,0.3093,0.1747,0.0202,-0.1947,-0.3559,-0.4704,-0.5579,-0.5441,-0.6111,-0.6978,-0.771,-0.8504,-0.951,-1.018,-1.0452,-1.0452,-1.0449,-1.0382,-1.0379,-1.0581,-1.085,-1.092,-1.1052,-1.1185,-1.1247,-1.138,-1.1912,-1.2507,-1.2964,-1.3875,-1.5554,-1.7103,-1.8396,-1.9495,-2.0532,-2.1046,-2.1102,-2.1102,-2.1102,-2.1102,-2.1102,-2.1102,-2.1102,-2.1102,-2.1292,-2.1727,-2.2167,-2.2724,-2.407,-2.5896,-2.7289,-2.8545,-2.962,-3.0529,-3.1063,-3.1604,-3.172,-3.1845,-3.2018,-3.2143,1.1996,1.2065,1.187,1.1906,1.2073,1.2097,1.2097,1.2154,1.2486,1.2633,1.2588,1.2427,1.2572,1.2692,1.2412,1.236,1.2613,1.2297,1.2169,1.2261,1.2151,1.234,1.26,1.2767,1.2754,1.277,1.277,1.277,1.277,1.2762,1.2759,1.2706,1.2738,1.2754,1.277,1.2762,1.2783,1.2775,1.2435,1.1297,1.0002,0.8716,0.7019,0.5436,0.4646,0.4275,0.43,0.4305,0.4307,0.4307,0.4307,0.4307,0.4171,0.3902,0.3564,0.242,0.0403,-0.094,-0.2684,-0.483,-0.5571,-0.6309,-0.7178,-0.7974,-0.8043,-0.8374,-0.931,-1.025,-1.0449,-1.0581,-1.0382,-1.0246,-1.0177,-1.011,-1.0512,-1.0982,-1.1185,-1.1383,-1.1449,-1.1516,-1.1846,-1.2309,-1.277,-1.3227,-1.4263,-1.6073,-1.7683,-1.8978,-1.9947,-2.0716,-2.1039,-2.1102,-2.1102,-2.1102,-2.1102,-2.1102,-2.1109,-2.1109,-2.1102,-2.1355,-2.1978,-2.3146,-2.4124,-2.5887,-2.782,-2.8961,-2.9924,-3.082,-3.1672,-3.2028,-3.2201,-3.2258,-3.2258,-3.2383,-3.244,1.1841,1.1788,1.1837,1.1788,1.1841,1.1861,1.1801,1.1898,1.238,1.2536,1.2439,1.2092,1.2309,1.263,1.227,1.2339,1.2594,1.2562,1.2481,1.2758,1.2521,1.2594,1.2734,1.277,1.277,1.277,1.277,1.277,1.277,1.2766,1.2766,1.277,1.2766,1.277,1.277,1.2371,1.2192,1.2069,1.1775,1.1003,1.0066,0.8947,0.7707,0.6101,0.5034,0.4305,0.4307,0.4307,0.4307,0.4307,0.4307,0.4307,0.3767,0.3093,0.2622,0.168,-0.0336,-0.1813,-0.3355,-0.5432,-0.6571,-0.7707,-0.9172,-0.9371,-0.9238,-0.9374,-1.0313,-1.0518,-1.0651,-1.0784,-1.0714,-1.0581,-1.0449,-1.0578,-1.0979,-1.1314,-1.1516,-1.1648,-1.1714,-1.1975,-1.2696,-1.3095,-1.303,-1.3551,-1.5168,-1.685,-1.8075,-1.9367,-2.0329,-2.0976,-2.1102,-2.1102,-2.1102,-2.1102,-2.1102,-2.1102,-2.1172,-2.1172,-2.1292,-2.2097,-2.3084,-2.4363,-2.5696,-2.7391,-2.9089,-3.0217,-3.1179,-3.1787,-3.2143,-3.2315,-3.2498,-3.2669,-3.2727,-3.2784,-3.2841,1.1837,1.1837,1.1837,1.1837,1.1837,1.1837,1.1837,1.1813,1.2194,1.2373,1.2362,1.2283,1.2375,1.2638,1.2371,1.2375,1.2638,1.2638,1.2638,1.2634,1.2634,1.2638,1.277,1.277,1.277,1.277,1.277,1.277,1.277,1.277,1.277,1.277,1.277,1.277,1.2704,1.2169,1.1596,1.1323,1.0389,0.9776,0.8856,0.7602,0.6241,0.5242,0.4307,0.4307,0.4307,0.4307,0.4307,0.4307,0.4307,0.3901,0.3093,0.2083,0.1143,0.0202,-0.0807,-0.2285,-0.4095,-0.59,-0.6971,-0.7971,-0.9036,-0.9637,-1.0101,-1.0641,-1.0909,-1.0846,-1.085,-1.0982,-1.0986,-1.0853,-1.0853,-1.1115,-1.1314,-1.1512,-1.1846,-1.2107,-1.2173,-1.289,-1.3613,-1.3744,-1.3744,-1.4651,-1.6138,-1.7367,-1.8267,-1.9361,-2.0392,-2.1102,-2.1102,-2.1102,-2.1102,-2.1102,-2.1102,-2.1292,-2.1425,-2.1915,-2.2341,-2.3208,-2.4255,-2.6131,-2.7829,-2.8783,-3.0109,-3.1063,-3.172,-3.2076,-3.2373,-3.2498,-3.2669,-3.2784,-3.3172,-3.3342,-3.3399,1.1837,1.1837,1.1837,1.1837,1.1837,1.1837,1.1837,1.1841,1.2154,1.2304,1.2298,1.2328,1.2507,1.2704,1.2441,1.2507,1.2704,1.2634,1.2704,1.2704,1.2638,1.2704,1.2704,1.277,1.277,1.277,1.277,1.277,1.277,1.277,1.277,1.277,1.277,1.277,1.2638,1.1897,1.1066,1.0533,0.9143,0.8175,0.7503,0.6585,0.5638,0.4708,0.4307,0.4307,0.4307,0.4307,0.4307,0.4307,0.4307,0.3699,0.2824,0.1815,0.0471,-0.0739,-0.195,-0.3159,-0.5033,-0.6571,-0.7705,-0.8969,-1.0233,-1.1299,-1.1237,-1.1707,-1.1442,-1.138,-1.1115,-1.1115,-1.0916,-1.0787,-1.092,-1.1118,-1.1442,-1.1707,-1.3013,-1.4184,-1.4511,-1.5033,-1.5489,-1.5554,-1.5749,-1.6522,-1.7818,-1.8267,-1.9106,-1.975,-2.0652,-2.1102,-2.1102,-2.1102,-2.1102,-2.1102,-2.1102,-2.1418,-2.1796,-2.2411,-2.3333,-2.4725,-2.6131,-2.8256,-2.9962,-3.0421,-3.0888,-3.1546,-3.2143,-3.2373,-3.2487,-3.2612,-3.2727,-3.2841,-3.3388,-3.4043,-3.448,1.1837,1.1837,1.1837,1.1837,1.1837,1.1837,1.1797,1.187,1.2162,1.2324,1.2393,1.2372,1.2553,1.2572,1.2441,1.2638,1.2704,1.2704,1.277,1.277,1.277,1.277,1.277,1.277,1.277,1.277,1.277,1.277,1.277,1.277,1.277,1.277,1.277,1.2704,1.2572,1.2022,1.1059,0.9491,0.8114,0.7121,0.6521,0.6064,0.5232,0.4641,0.4307,0.4307,0.4307,0.4307,0.4307,0.3969,0.3834,0.3026,0.2084,0.0941,-0.0202,-0.1547,-0.2756,-0.4366,-0.6305,-0.7907,-0.9368,-1.0899,-1.2165,-1.2634,-1.2437,-1.2239,-1.2041,-1.1776,-1.1446,-1.1181,-1.0916,-1.1178,-1.1376,-1.1835,-1.2161,-1.2549,-1.4371,-1.5934,-1.6457,-1.691,-1.7039,-1.7109,-1.7426,-1.8267,-1.8972,-1.9425,-1.9877,-2.0589,-2.1102,-2.1102,-2.1102,-2.1102,-2.1102,-2.1102,-2.1172,-2.1853,-2.2411,-2.3574,-2.4671,-2.6305,-2.794,-2.9521,-3.0733,-3.1315,-3.1845,-3.2143,-3.2373,-3.2555,-3.2669,-3.2784,-3.3012,-3.3285,-3.4256,-3.4958,-3.5749,1.1837,1.1837,1.1837,1.1837,1.1837,1.1837,1.1853,1.2004,1.2203,1.2377,1.2532,1.2641,1.277,1.277,1.2437,1.2507,1.277,1.277,1.277,1.277,1.277,1.277,1.277,1.277,1.277,1.277,1.277,1.277,1.277,1.277,1.277,1.277,1.277,1.2235,1.1104,1.0429,0.9356,0.8002,0.6679,0.5492,0.5162,0.4765,0.4635,0.4307,0.4307,0.4307,0.4307,0.4307,0.4307,0.3834,0.2891,0.2083,0.1143,0.0067,-0.1278,-0.2218,-0.3429,-0.49,-0.6706,-0.844,-0.9968,-1.1296,-1.2297,-1.277,-1.2638,-1.2638,-1.2375,-1.2111,-1.1846,-1.1446,-1.1442,-1.2285,-1.2808,-1.3918,-1.4567,-1.5084,-1.6247,-1.6904,-1.7302,-1.7812,-1.8133,-1.7941,-1.7619,-1.8652,-1.9814,-2.0138,-2.0329,-2.0912,-2.1102,-2.1102,-2.1102,-2.1179,-2.1179,-2.1292,-2.1481,-2.2654,-2.345,-2.4679,-2.6078,-2.7829,-2.9335,-3.0421,-3.1383,-3.173,-3.2028,-3.2315,-3.2555,-3.2784,-3.2944,-3.3105,-3.3342,-3.3784,-3.4902,-3.5979,-3.6942]},{"header":{"parameterUnit":"m.s-1","parameterCategory":1,"la1":31.0,"la2":29.5877,"lo1":-88.7671,"lo2":-86.6584,"dy":0.0162,"dx":0.0185,"nx":115,"ny":88,"refTime":"2024-06-07T06:00:00:Z","depth":0,"parameterNumber":3,"parameterNumberName":"V-component_of_WINDS"},"data":[0.0,0.0,0.0,0.0,0.0,0.0,0.0,0.0,0.0,0.0,0.0,0.0,0.0,0.0,0.0,0.0,0.0,0.0,0.0,0.0,0.0,0.0,0.0,0.0,0.0,0.0,0.0,0.0,0.0,0.0,0.0,0.0,0.0,0.0,0.0,0.0,0.0,0.0,0.0,0.0,0.0,0.0,0.0,0.0,0.0,0.0,0.0,0.0,0.0,0.0,0.0,0.0,0.0,0.0,0.0,0.0,0.0,0.0,0.0,0.0,0.0,0.0,0.0,0.0,0.0,0.0,0.0,0.0,0.0,0.0,0.0,0.0,0.0,0.0,0.0,0.0,0.0,0.0,0.0,0.0,0.0,0.0,0.0,0.0,0.0,0.0,0.0,0.0,0.0,0.0,0.0,0.0,0.0,0.0,0.0,0.0,0.0,0.0,0.0,0.0,0.0,0.0,0.0,0.0,0.0,0.0,0.0,0.0,0.0,0.0,0.0,0.0,0.0,0.0,0.0,0.0,0.0,0.0,0.0,0.0,0.0,0.0,0.0,0.0,0.0,0.0,0.0,0.0,0.0,0.0,0.0,0.0,0.0,0.0,0.0,0.0,0.0,0.0,0.0,0.0,0.0,0.0,0.0,0.0,0.0,0.0,0.0,0.0,0.0,0.0,0.0,0.0,0.0,0.0,0.0,0.0,0.0,0.0,0.0,0.0,0.0,0.0,0.0,0.0,0.0,0.0,0.0,0.0,0.0,0.0,0.0,0.0,0.0,0.0,0.0,0.0,0.0,0.0,0.0,0.0,0.0,0.0,0.0,0.0,0.0,0.0,0.0,0.0,0.0,0.0,0.0,0.0,0.0,0.0,0.0,0.0,0.0,0.0,0.0,0.0,0.0,0.0,0.0,0.0,0.0,0.0,0.0,0.0,0.0,0.0,0.0,0.0,0.0,0.0,0.0,0.0,0.0,0.0,0.0,0.0,0.0,0.0,0.0,0.0,0.0,0.0,0.0,0.0,0.0,0.0,0.0,0.0,0.0,0.0,0.0,0.0,0.0,0.0,0.0,0.0,0.0,0.0,0.0,0.0,0.0,0.0,0.0,0.0,0.0,0.0,0.0,0.0,0.0,0.0,0.0,0.0,0.0,0.0,0.0,0.0,0.0,0.0,0.0,0.0,0.0,0.0,0.0,0.0,0.0,0.0,0.0,0.0,0.0,0.0,0.0,0.0,0.0,0.0,0.0,0.0,0.0,0.0,0.0,0.0,0.0,0.0,0.0,0.0,0.0,0.0,0.0,0.0,0.0,0.0,0.0,0.0,0.0,0.0,0.0,0.0,0.0,0.0,0.0,0.0,0.0,0.0,0.0,0.0,0.0,0.0,0.0,0.0,0.0,0.0,0.0,0.0,0.0,0.0,0.0,0.0,0.0,0.0,0.0,0.0,0.0,0.0,0.0,0.0,0.0,0.0,0.0,0.0,0.0,0.0,0.0,0.0,0.0,0.0,0.0,0.0,0.0,0.0,0.0,0.0,0.0,0.0,0.0,0.0,0.0,0.0,0.0,0.0,0.0,0.0,0.0,0.0,0.0,0.0,0.0,0.0,0.0,0.0,0.0,0.0,0.0,0.0,0.0,0.0,0.0,0.0,0.0,0.0,0.0,0.0,0.0,0.0,0.0,0.0,0.0,0.0,0.0,0.0,0.0,0.0,0.0,0.0,0.0,0.0,0.0,0.0,0.0,0.0,0.0,0.0,0.0,0.0,0.0,0.0,0.0,0.0,0.0,0.0,0.0,0.0,0.0,0.0,0.0,0.0,0.0,0.0,0.0,0.0,0.0,0.0,0.0,0.0,0.0,0.0,0.0,0.0,0.0,0.0,0.0,0.0,0.0,0.0,0.0,0.0,0.0,0.0,0.0,0.0,0.0,0.0,0.0,0.0,0.0,0.0,0.0,0.0,0.0,0.0,0.0,0.0,0.0,0.0,0.0,0.0,0.0,0.0,0.0,0.0,0.0,0.0,0.0,0.0,0.0,0.0,0.0,0.0,0.0,0.0,0.0,0.0,0.0,0.0,0.0,0.0,0.0,0.0,0.0,0.0,0.0,0.0,0.0,0.0,0.0,0.0,0.0,0.0,0.0,0.0,0.0,0.0,0.0,0.0,0.0,0.0,0.0,0.0,0.0,0.0,0.0,0.0,0.0,0.0,0.0,0.0,0.0,0.0,0.0,0.0,0.0,0.0,0.0,0.0,0.0,0.0,0.0,0.0,0.0,0.0,0.0,0.0,0.0,0.0,0.0,0.0,0.0,0.0,0.0,0.0,0.0,0.0,0.0,0.0,0.0,0.0,0.0,0.0,0.0,0.0,0.0,0.0,0.0,0.0,0.0,0.0,0.0,0.0,0.0,0.0,0.0,0.0,0.0,0.0,0.0,0.0,0.0,0.0,0.0,0.0,0.0,0.0,0.0,0.0,0.0,0.0,0.0,0.0,0.0,0.0,0.0,0.0,0.0,0.0,0.0,0.0,0.0,0.0,0.0,0.0,0.0,0.0,0.0,0.0,0.0,0.0,0.0,0.0,0.0,0.0,0.0,0.0,0.0,0.0,0.0,0.0,0.0,0.0,0.0,0.0,0.0,0.0,0.0,0.0,0.0,0.0,0.0,0.0,0.0,0.0,0.0,0.0,0.0,0.0,0.0,0.0,0.0,0.0,0.0,0.0,0.0,0.0,0.0,0.0,0.0,0.0,0.0,0.0,0.0,0.0,0.0,0.0,0.0,0.0,0.0,0.0,0.0,0.0,0.0,0.0,0.0,0.0,0.0,0.0,0.0,0.0,0.0,0.0,0.0,0.0,0.0,0.0,0.0,0.0,0.0,0.0,0.0,0.0,0.0,0.0,0.0,0.0,0.0,0.0,0.0,0.0,0.0,0.0,0.0,0.0,0.0,0.0,0.0,0.0,0.0,0.0,0.0,0.0,0.0,0.0,0.0,0.0,0.0,0.0,0.0,0.0,0.0,0.0,0.0,0.0,0.0,0.0,0.0,0.0,0.0,0.0,0.0,0.0,0.0,0.0,0.0,0.0,0.0,0.0,0.0,0.0,0.0,0.0,0.0,0.0,0.0,0.0,0.0,0.0,0.0,0.0,0.0,0.0,0.0,0.0,0.0,0.0,0.0,0.0,0.0,0.0,0.0,0.0,0.0,0.0,0.0,0.0,0.0,0.0,0.0,0.0,0.0,0.0,0.0,0.0,0.0,0.0,0.0,0.0,0.0,0.0,0.0,0.0,0.0,0.0,0.0,0.0,0.0,0.0,0.0,0.0,0.0,0.0,0.0,0.0,0.0,0.0,0.0,0.0,0.0,0.0,0.0,0.0,0.0,0.0,0.0,0.0,0.0,0.0,0.0,0.0,0.0,0.0,0.0,0.0,0.0,0.0,0.0,0.0,0.0,0.0,0.0,0.0,0.0,0.0,0.0,0.0,0.0,0.0,0.0,0.0,0.0,0.0,0.0,0.0,0.0,0.0,0.0,0.0,0.0,0.0,0.0,0.0,0.0,0.0,0.0,0.0,0.0,0.0,0.0,0.0,0.0,0.0,0.0,0.0,0.0,0.0,0.0,0.0,0.0,0.0,0.0,0.0,0.0,0.0,0.0,0.0,0.0,0.0,0.0,0.0,0.0,0.0,0.0,0.0,0.0,0.0,0.0,0.0,0.0,0.0,0.0,0.0,0.0,0.0,0.0,0.0,0.0,0.0,0.0,0.0,0.0,0.0,0.0,0.0,0.0,0.0,0.0,0.0,0.0,0.0,0.0,0.0,0.0,0.0,0.0,0.0,0.0,0.0,0.0,0.0,0.0,0.0,0.0,0.0,0.0,0.0,0.0,0.0,0.0,0.0,0.0,0.0,0.0,0.0,0.0,0.0,0.0,0.0,0.0,0.0,0.0,0.0,0.0,0.0,0.0,0.0,0.0,0.0,0.0,0.0,0.0,0.0,0.0,0.0,0.0,0.0,0.0,0.0,0.0,0.0,0.0,0.0,0.0,0.0,0.0,0.0,0.0,0.0,0.0,0.0,0.0,0.0,0.0,0.0,0.0,0.0,0.0,0.0,0.0,0.0,0.0,0.0,0.0,0.0,0.0,0.0,0.0,0.0,0.0,0.0,0.0,0.0,0.0,0.0,0.0,0.0,0.0,0.0,0.0,0.0,0.0,0.0,0.0,0.0,0.0,0.0,0.0,0.0,0.0,0.0,0.0,0.0,0.0,0.0,0.0,0.0,0.0,0.0,1.7551,0.0,0.0,0.0,0.0,0.0,0.0,0.0,0.0,0.0,0.0,0.0,0.0,0.0,0.0,0.0,0.0,0.0,0.0,0.0,0.0,0.0,0.0,0.0,0.0,0.0,0.0,0.0,0.0,0.0,0.0,0.0,0.0,0.0,0.0,0.0,0.0,0.0,0.0,0.0,0.0,0.0,0.0,0.0,0.0,0.0,0.0,0.0,0.0,0.0,0.0,0.0,0.0,0.0,0.0,0.0,0.0,0.0,0.0,0.0,0.0,0.0,0.0,0.0,0.0,0.0,0.0,0.0,0.0,0.0,0.0,0.0,0.0,0.0,0.0,0.0,0.0,0.0,0.0,0.0,0.0,0.0,0.0,0.0,0.0,0.0,0.0,0.0,0.0,0.0,0.0,0.0,0.0,0.0,0.0,0.0,0.0,0.0,0.0,0.0,0.0,0.0,0.0,0.0,0.0,0.0,0.0,0.0,0.0,0.0,0.0,1.8513,1.8993,1.8256,1.7929,1.8178,0.0,0.0,0.0,0.0,0.0,0.0,0.0,0.0,0.0,0.0,0.0,0.0,0.0,0.0,0.0,0.0,0.0,0.0,0.0,0.0,0.0,0.0,0.0,0.0,0.0,0.0,0.0,0.0,0.0,0.0,0.0,0.0,0.0,0.0,0.0,0.0,0.0,0.0,0.0,0.0,0.0,0.0,0.0,0.0,0.0,0.0,0.0,0.0,0.0,0.0,0.0,0.0,0.0,0.0,0.0,0.0,0.0,0.0,0.0,0.0,0.0,0.0,0.0,0.0,0.0,0.0,0.0,0.0,0.0,0.0,0.0,0.0,0.0,0.0,0.0,0.0,0.0,0.0,0.0,0.0,0.0,0.0,0.0,0.0,0.0,0.0,0.0,0.0,0.0,0.0,0.0,0.0,0.0,0.0,0.0,0.0,0.0,0.0,0.0,0.0,0.0,0.0,0.0,0.0,0.0,0.0,0.0,0.0,0.0,0.0,0.0,0.0,1.8434,1.8315,1.8739,0.0,0.0,0.0,0.0,0.0,0.0,0.0,0.0,0.0,0.0,0.0,0.0,0.0,0.0,0.0,0.0,0.0,0.0,0.0,0.0,0.0,0.0,0.0,0.0,0.0,0.0,0.0,0.0,0.0,0.0,0.0,0.0,0.0,0.0,0.0,0.0,0.0,0.0,0.0,0.0,0.0,0.0,0.0,0.0,0.0,0.0,0.0,0.0,0.0,0.0,0.0,0.0,0.0,0.0,0.0,0.0,0.0,0.0,0.0,0.0,0.0,0.0,0.0,0.0,0.0,0.0,0.0,0.0,0.0,0.0,0.0,0.0,0.0,0.0,0.0,0.0,0.0,0.0,0.0,0.0,0.0,0.0,0.0,0.0,0.0,0.0,0.0,0.0,0.0,0.0,0.0,0.0,0.0,0.0,0.0,0.0,0.0,0.0,0.0,0.0,0.0,0.0,0.0,0.0,0.0,0.0,0.0,0.0,0.0,0.0,1.7634,1.9044,1.8672,0.0,1.9157,0.0,0.0,0.0,0.0,0.0,0.0,0.0,0.0,0.0,0.0,0.0,0.0,0.0,0.0,0.0,0.0,0.0,0.0,0.0,0.0,0.0,0.0,0.0,0.0,0.0,0.0,0.0,0.0,0.0,0.0,0.0,0.0,0.0,0.0,0.0,0.0,0.0,0.0,0.0,0.0,0.0,0.0,0.0,0.0,0.0,0.0,0.0,0.0,0.0,0.0,0.0,0.0,0.0,0.0,0.0,0.0,0.0,0.0,0.0,0.0,0.0,0.0,0.0,0.0,0.0,0.0,0.0,0.0,0.0,0.0,0.0,0.0,0.0,0.0,0.0,0.0,0.0,0.0,0.0,0.0,0.0,0.0,0.0,0.0,0.0,0.0,0.0,0.0,0.0,0.0,0.0,0.0,0.0,0.0,0.0,0.0,0.0,0.0,0.0,0.0,0.0,0.0,0.0,0.0,0.0,0.0,0.0,0.0,0.0,0.0,1.7534,1.8655,1.8938,1.9211,0.0,0.0,0.0,0.0,0.0,0.0,0.0,0.0,0.0,0.0,0.0,0.0,0.0,0.0,0.0,0.0,0.0,0.0,0.0,0.0,0.0,0.0,0.0,0.0,0.0,0.0,0.0,0.0,0.0,0.0,0.0,0.0,0.0,0.0,0.0,0.0,0.0,0.0,0.0,0.0,0.0,0.0,0.0,0.0,0.0,0.0,0.0,0.0,0.0,0.0,0.0,0.0,0.0,0.0,0.0,0.0,0.0,0.0,0.0,0.0,0.0,0.0,0.0,0.0,0.0,0.0,0.0,0.0,0.0,0.0,0.0,0.0,0.0,0.0,0.0,0.0,0.0,0.0,0.0,0.0,0.0,0.0,0.0,0.0,0.0,0.0,0.0,0.0,0.0,0.0,0.0,0.0,0.0,0.0,0.0,0.0,0.0,0.0,0.0,0.0,0.0,0.0,0.0,0.0,0.0,0.0,0.0,0.0,0.0,0.0,1.6579,0.0,1.8481,1.9013,1.9271,1.9237,0.0,0.0,0.0,0.0,0.0,0.0,0.0,0.0,0.0,0.0,0.0,0.0,0.0,0.0,0.0,0.0,0.0,0.0,0.0,0.0,0.0,0.0,0.0,0.0,0.0,0.0,0.0,0.0,0.0,0.0,0.0,0.0,0.0,0.0,0.0,0.0,0.0,0.0,0.0,0.0,0.0,0.0,0.0,0.0,0.0,0.0,0.0,0.0,0.0,0.0,0.0,0.0,0.0,0.0,0.0,0.0,0.0,0.0,0.0,0.0,0.0,0.0,0.0,0.0,0.0,0.0,0.0,0.0,0.0,0.0,0.0,0.0,0.0,0.0,0.0,0.0,0.0,0.0,0.0,0.0,0.0,0.0,0.0,0.0,0.0,0.0,0.0,0.0,0.0,0.0,0.0,0.0,0.0,0.0,0.0,0.0,0.0,0.0,0.0,0.0,0.0,0.0,0.0,0.0,0.0,0.0,0.0,0.0,0.0,1.69,1.7486,1.8809,1.8797,1.8623,0.0,0.0,0.0,0.0,0.0,0.0,0.0,0.0,0.0,0.0,0.0,0.0,0.0,0.0,0.0,0.0,0.0,0.0,0.0,0.0,0.0,0.0,0.0,0.0,0.0,0.0,0.0,0.0,0.0,0.0,0.0,0.0,0.0,0.0,0.0,0.0,0.0,0.0,0.0,0.0,0.0,0.0,0.0,0.0,0.0,0.0,0.0,0.0,0.0,0.0,0.0,0.0,0.0,0.0,0.0,0.0,0.0,0.0,0.0,0.0,0.0,0.0,0.0,0.0,0.0,0.0,0.0,0.0,0.0,0.0,0.0,0.0,0.0,0.0,0.0,0.0,0.0,0.0,0.0,0.0,0.0,0.0,0.0,0.0,0.0,0.0,0.0,0.0,0.0,0.0,0.0,0.0,0.0,0.0,0.0,0.0,0.0,0.0,0.0,0.0,0.0,0.0,0.0,0.0,0.0,0.0,0.0,0.0,0.0,1.5935,1.6789,1.782,1.8967,1.8749,1.8611,0.0,0.0,0.0,0.0,0.0,0.0,0.0,0.0,0.0,0.0,0.0,0.0,0.0,0.0,0.0,0.0,0.0,0.0,0.0,0.0,0.0,0.0,0.0,0.0,0.0,0.0,0.0,0.0,0.0,0.0,0.0,0.0,0.0,0.0,0.0,0.0,0.0,0.0,0.0,0.0,0.0,0.0,0.0,0.0,0.0,0.0,0.0,0.0,0.0,0.0,0.0,0.0,0.0,0.0,0.0,0.0,0.0,0.0,0.0,0.0,0.0,0.0,0.0,0.0,0.0,0.0,0.0,0.0,0.0,0.0,0.0,0.0,0.0,0.0,0.0,0.0,0.0,0.0,0.0,0.0,0.0,0.0,0.0,0.0,0.0,0.0,0.0,0.0,0.0,0.0,0.0,0.0,0.0,0.0,0.0,0.0,0.0,0.0,0.0,0.0,0.0,0.0,0.0,0.0,0.0,0.0,0.0,0.0,0.0,1.5922,0.0,1.8099,0.0,1.8559,1.8416,0.0,0.0,0.0,0.0,0.0,0.0,0.0,0.0,0.0,0.0,0.0,0.0,0.0,0.0,0.0,0.0,0.0,0.0,0.0,0.0,0.0,0.0,0.0,0.0,0.0,0.0,0.0,0.0,0.0,0.0,0.0,0.0,0.0,0.0,0.0,0.0,0.0,0.0,0.0,0.0,0.0,0.0,0.0,0.0,0.0,0.0,0.0,0.0,0.0,0.0,0.0,0.0,0.0,0.0,0.0,0.0,0.0,0.0,0.0,0.0,0.0,0.0,0.0,0.0,0.0,0.0,0.0,0.0,0.0,0.0,0.0,0.0,0.0,0.0,0.0,0.0,0.0,0.0,0.0,0.0,0.0,0.0,0.0,0.0,0.0,0.0,0.0,0.0,0.0,0.0,0.0,0.0,0.0,0.0,0.0,0.0,0.0,0.0,0.0,0.0,0.0,0.0,0.0,0.0,0.0,0.0,0.0,0.0,1.5812,1.7324,1.801,1.8178,1.7839,1.8285,1.7947,0.0,0.0,0.0,0.0,0.0,0.0,0.0,0.0,0.0,0.0,0.0,0.0,0.0,0.0,0.0,0.0,0.0,0.0,0.0,0.0,0.0,0.0,0.0,0.0,0.0,0.0,0.0,0.0,0.0,0.0,0.0,0.0,0.0,0.0,0.0,0.0,0.0,0.0,0.0,0.0,0.0,0.0,0.0,0.0,0.0,0.0,0.0,0.0,0.0,0.0,0.0,0.0,0.0,0.0,0.0,0.0,0.0,0.0,0.0,0.0,0.0,0.0,0.0,0.0,0.0,0.0,0.0,0.0,0.0,0.0,0.0,0.0,0.0,0.0,0.0,0.0,0.0,0.0,0.0,0.0,0.0,0.0,0.0,0.0,0.0,0.0,0.0,0.0,0.0,0.0,0.0,0.0,0.0,0.0,0.0,0.0,0.0,0.0,0.0,0.0,0.0,0.0,0.0,0.0,0.0,0.0,0.0,0.0,0.0,1.7332,1.7713,1.8004,1.8223,1.8532,1.8619,0.0,0.0,0.0,0.0,0.0,0.0,0.0,0.0,0.0,0.0,0.0,0.0,0.0,0.0,0.0,0.0,0.0,0.0,0.0,0.0,0.0,0.0,0.0,0.0,0.0,0.0,0.0,0.0,0.0,0.0,0.0,0.0,0.0,0.0,0.0,0.0,0.0,0.0,0.0,0.0,0.0,0.0,0.0,0.0,0.0,0.0,0.0,0.0,0.0,0.0,0.0,0.0,0.0,0.0,0.0,0.0,0.0,0.0,0.0,0.0,0.0,0.0,0.0,0.0,0.0,0.0,0.0,0.0,0.0,0.0,0.0,0.0,0.0,0.0,0.0,0.0,0.0,0.0,0.0,0.0,0.0,0.0,0.0,0.0,0.0,0.0,0.0,0.0,0.0,0.0,0.0,0.0,0.0,0.0,0.0,0.0,0.0,0.0,0.0,0.0,0.0,0.0,0.0,0.0,0.0,0.0,0.0,0.0,0.0,1.9055,1.903,1.9025,1.906,1.9346,1.9308,1.8918,0.0,0.0,0.0,0.0,0.0,0.0,0.0,0.0,0.0,0.0,0.0,0.0,0.0,0.0,0.0,0.0,0.0,0.0,0.0,0.0,0.0,0.0,0.0,0.0,0.0,0.0,0.0,0.0,0.0,0.0,0.0,0.0,0.0,0.0,0.0,0.0,0.0,0.0,0.0,0.0,0.0,0.0,0.0,0.0,0.0,0.0,0.0,0.0,0.0,0.0,0.0,0.0,0.0,0.0,0.0,0.0,0.0,0.0,0.0,0.0,0.0,0.0,0.0,0.0,0.0,0.0,0.0,0.0,0.0,0.0,0.0,0.0,0.0,0.0,0.0,0.0,0.0,0.0,0.0,0.0,0.0,0.0,0.0,0.0,0.0,0.0,0.0,0.0,0.0,0.0,0.0,0.0,0.0,0.0,0.0,0.0,0.0,0.0,0.0,0.0,0.0,0.0,0.0,0.0,0.0,0.0,0.0,0.0,2.2113,2.1711,2.1176,2.0459,2.0693,2.005,0.0,0.0,0.0,0.0,0.0,0.0,0.0,0.0,0.0,0.0,0.0,0.0,0.0,0.0,0.0,0.0,0.0,0.0,0.0,0.0,0.0,0.0,0.0,0.0,0.0,0.0,0.0,0.0,0.0,0.0,0.0,0.0,0.0,0.0,0.0,0.0,0.0,0.0,0.0,0.0,0.0,0.0,0.0,0.0,0.0,0.0,0.0,0.0,0.0,0.0,0.0,0.0,0.0,0.0,0.0,0.0,0.0,0.0,0.0,0.0,0.0,0.0,0.0,0.0,0.0,0.0,0.0,0.0,0.0,0.0,0.0,0.0,0.0,0.0,0.0,0.0,0.0,0.0,0.0,0.0,0.0,0.0,0.0,0.0,0.0,0.0,0.0,0.0,0.0,0.0,0.0,0.0,0.0,0.0,0.0,0.0,0.0,0.0,0.0,0.0,0.0,0.0,0.0,0.0,0.0,0.0,0.0,0.0,0.0,2.3468,2.4689,2.4578,2.2992,2.2351,2.1718,0.0,0.0,0.0,0.0,0.0,0.0,0.0,0.0,0.0,0.0,0.0,0.0,0.0,0.0,0.0,0.0,0.0,0.0,0.0,0.0,0.0,0.0,0.0,0.0,0.0,0.0,0.0,0.0,0.0,0.0,0.0,0.0,0.0,0.0,0.0,0.0,0.0,0.0,0.0,0.0,0.0,0.0,0.0,0.0,0.0,0.0,0.0,0.0,0.0,0.0,0.0,0.0,0.0,0.0,0.0,0.0,0.0,0.0,0.0,0.0,0.0,0.0,0.0,0.0,0.0,0.0,0.0,0.0,0.0,0.0,0.0,0.0,0.0,0.0,0.0,0.0,0.0,0.0,0.0,0.0,0.0,0.0,0.0,0.0,0.0,0.0,0.0,0.0,0.0,0.0,0.0,0.0,0.0,0.0,0.0,0.0,0.0,0.0,0.0,0.0,0.0,0.0,0.0,0.0,0.0,0.0,0.0,0.0,2.4208,2.4844,2.7178,2.7735,2.6344,2.4263,2.2731,0.0,0.0,0.0,0.0,0.0,0.0,0.0,0.0,0.0,0.0,0.0,0.0,0.0,0.0,0.0,0.0,0.0,0.0,0.0,0.0,0.0,0.0,0.0,0.0,0.0,0.0,0.0,0.0,0.0,0.0,0.0,0.0,0.0,0.0,0.0,0.0,0.0,0.0,0.0,0.0,0.0,0.0,0.0,0.0,0.0,0.0,0.0,0.0,0.0,0.0,0.0,0.0,0.0,0.0,0.0,0.0,0.0,0.0,0.0,0.0,0.0,0.0,0.0,0.0,0.0,0.0,0.0,0.0,0.0,0.0,0.0,0.0,0.0,0.0,0.0,0.0,0.0,0.0,0.0,0.0,0.0,0.0,0.0,0.0,0.0,0.0,0.0,0.0,0.0,0.0,0.0,0.0,0.0,0.0,0.0,0.0,0.0,0.0,0.0,0.0,0.0,0.0,0.0,0.0,0.0,0.0,0.0,0.0,2.621,2.6425,2.9198,3.0381,2.961,2.6042,2.3336,0.0,0.0,0.0,0.0,0.0,0.0,0.0,0.0,0.0,0.0,0.0,0.0,0.0,0.0,0.0,0.0,0.0,0.0,0.0,0.0,0.0,0.0,0.0,0.0,0.0,0.0,0.0,0.0,0.0,0.0,0.0,0.0,0.0,0.0,0.0,0.0,0.0,0.0,0.0,0.0,0.0,0.0,0.0,0.0,0.0,0.0,0.0,0.0,0.0,0.0,0.0,0.0,0.0,0.0,0.0,0.0,0.0,0.0,0.0,0.0,0.0,0.0,0.0,0.0,0.0,0.0,0.0,0.0,0.0,0.0,0.0,0.0,0.0,0.0,0.0,0.0,0.0,0.0,0.0,0.0,0.0,0.0,0.0,0.0,0.0,0.0,0.0,0.0,0.0,0.0,0.0,0.0,0.0,0.0,0.0,0.0,0.0,0.0,0.0,0.0,0.0,0.0,0.0,0.0,0.0,0.0,0.0,0.0,2.7484,2.8965,3.0503,3.0994,3.0294,2.6222,2.3922,0.0,0.0,0.0,0.0,0.0,0.0,0.0,0.0,0.0,0.0,0.0,0.0,0.0,0.0,0.0,0.0,0.0,0.0,0.0,0.0,0.0,0.0,0.0,0.0,0.0,0.0,0.0,0.0,0.0,0.0,0.0,0.0,0.0,0.0,0.0,0.0,0.0,0.0,0.0,0.0,0.0,0.0,0.0,0.0,0.0,0.0,0.0,0.0,2.5885,0.0,0.0,0.0,0.0,0.0,0.0,0.0,0.0,0.0,0.0,0.0,0.0,0.0,0.0,0.0,0.0,0.0,0.0,0.0,0.0,0.0,0.0,0.0,0.0,0.0,0.0,0.0,0.0,0.0,0.0,0.0,0.0,0.0,0.0,0.0,0.0,0.0,0.0,0.0,0.0,0.0,0.0,0.0,0.0,0.0,0.0,0.0,0.0,0.0,0.0,0.0,0.0,0.0,0.0,0.0,0.0,0.0,0.0,0.0,2.8451,3.0235,3.1394,3.1654,3.0879,2.7302,2.4893,0.0,0.0,0.0,0.0,0.0,0.0,0.0,0.0,0.0,0.0,0.0,0.0,0.0,0.0,0.0,0.0,0.0,0.0,0.0,0.0,0.0,0.0,0.0,0.0,0.0,0.0,0.0,0.0,0.0,0.0,0.0,0.0,0.0,0.0,0.0,0.0,0.0,0.0,0.0,0.0,0.0,0.0,0.0,0.0,0.0,0.0,0.0,0.0,0.0,0.0,0.0,0.0,0.0,0.0,0.0,0.0,0.0,0.0,0.0,0.0,0.0,0.0,0.0,0.0,0.0,0.0,0.0,0.0,0.0,0.0,0.0,0.0,0.0,0.0,0.0,0.0,0.0,0.0,0.0,0.0,0.0,0.0,0.0,0.0,0.0,0.0,0.0,0.0,0.0,0.0,0.0,0.0,0.0,0.0,0.0,0.0,0.0,0.0,0.0,0.0,0.0,0.0,0.0,0.0,0.0,0.0,0.0,2.7294,2.9291,3.1306,3.228,3.2388,3.1607,2.8657,2.6046,2.3913,0.0,0.0,0.0,0.0,0.0,0.0,0.0,0.0,0.0,0.0,0.0,0.0,0.0,0.0,0.0,0.0,0.0,0.0,0.0,0.0,0.0,0.0,0.0,0.0,0.0,0.0,0.0,0.0,0.0,0.0,0.0,0.0,0.0,0.0,0.0,0.0,0.0,0.0,2.2707,2.3981,0.0,0.0,0.0,0.0,0.0,0.0,0.0,0.0,2.7148,0.0,0.0,0.0,0.0,0.0,0.0,0.0,0.0,0.0,0.0,0.0,0.0,0.0,0.0,0.0,0.0,0.0,0.0,0.0,0.0,0.0,0.0,0.0,0.0,0.0,0.0,0.0,0.0,0.0,0.0,0.0,0.0,0.0,0.0,0.0,0.0,0.0,0.0,0.0,0.0,0.0,0.0,0.0,0.0,0.0,0.0,0.0,0.0,0.0,0.0,0.0,0.0,0.0,0.0,0.0,0.0,2.8469,2.8594,3.0315,3.3787,3.3858,3.3328,3.2238,2.9576,2.7143,2.4934,0.0,0.0,0.0,0.0,0.0,0.0,0.0,0.0,0.0,0.0,0.0,0.0,0.0,0.0,0.0,0.0,0.0,0.0,0.0,0.0,0.0,0.0,0.0,0.0,0.0,0.0,0.0,0.0,0.0,0.0,0.0,0.0,0.0,0.0,0.0,0.0,0.0,0.0,0.0,2.616,2.6325,0.0,0.0,0.0,0.0,0.0,0.0,0.0,0.0,2.8609,0.0,0.0,0.0,0.0,0.0,0.0,0.0,0.0,0.0,0.0,0.0,0.0,0.0,0.0,0.0,0.0,0.0,0.0,0.0,0.0,0.0,0.0,0.0,0.0,0.0,0.0,0.0,0.0,0.0,0.0,0.0,0.0,0.0,0.0,0.0,0.0,0.0,0.0,0.0,0.0,0.0,0.0,0.0,0.0,0.0,0.0,0.0,0.0,0.0,0.0,0.0,0.0,0.0,0.0,0.0,2.8478,2.9984,3.1907,3.4366,3.4325,3.3624,3.2391,2.9837,2.7408,0.0,0.0,0.0,0.0,0.0,0.0,0.0,0.0,0.0,0.0,0.0,0.0,0.0,0.0,0.0,0.0,0.0,0.0,0.0,0.0,0.0,0.0,0.0,0.0,0.0,0.0,0.0,0.0,0.0,0.0,0.0,0.0,0.0,0.0,0.0,0.0,0.0,0.0,0.0,0.0,2.779,2.8318,3.0344,0.0,0.0,0.0,0.0,0.0,0.0,2.9362,2.9016,0.0,0.0,0.0,0.0,0.0,0.0,0.0,0.0,0.0,0.0,0.0,0.0,0.0,0.0,0.0,0.0,0.0,0.0,0.0,0.0,0.0,0.0,0.0,0.0,0.0,0.0,0.0,0.0,0.0,0.0,0.0,0.0,0.0,0.0,0.0,0.0,0.0,0.0,0.0,0.0,0.0,0.0,0.0,0.0,0.0,0.0,0.0,0.0,0.0,0.0,0.0,0.0,0.0,0.0,0.0,2.8168,3.0993,3.3129,3.4464,3.4505,3.3825,3.2431,2.9732,2.733,0.0,0.0,0.0,0.0,0.0,0.0,0.0,0.0,0.0,0.0,0.0,0.0,0.0,0.0,0.0,0.0,0.0,0.0,0.0,0.0,0.0,0.0,0.0,0.0,0.0,0.0,0.0,0.0,0.0,0.0,0.0,0.0,0.0,0.0,0.0,0.0,0.0,0.0,0.0,0.0,0.0,3.0332,3.2536,3.1128,0.0,0.0,0.0,0.0,2.9487,3.0224,0.0,0.0,0.0,0.0,0.0,0.0,0.0,0.0,0.0,0.0,0.0,0.0,0.0,0.0,0.0,0.0,0.0,0.0,0.0,0.0,0.0,0.0,0.0,0.0,0.0,0.0,0.0,0.0,0.0,0.0,0.0,0.0,0.0,0.0,0.0,0.0,0.0,0.0,0.0,0.0,0.0,0.0,0.0,0.0,0.0,0.0,0.0,0.0,0.0,0.0,0.0,0.0,0.0,0.0,0.0,0.0,2.837,3.0949,3.3033,3.4583,3.4951,3.4268,3.252,2.9259,2.6941,0.0,0.0,0.0,0.0,0.0,0.0,0.0,0.0,0.0,0.0,0.0,0.0,0.0,0.0,0.0,0.0,0.0,0.0,0.0,0.0,0.0,0.0,0.0,0.0,0.0,0.0,0.0,0.0,0.0,0.0,0.0,0.0,0.0,0.0,0.0,0.0,0.0,0.0,0.0,0.0,0.0,3.16,3.1762,3.1681,3.1368,0.0,0.0,3.3102,3.3828,3.4683,0.0,0.0,0.0,0.0,0.0,0.0,0.0,0.0,0.0,0.0,0.0,0.0,0.0,0.0,0.0,0.0,0.0,0.0,0.0,0.0,0.0,0.0,0.0,0.0,0.0,0.0,0.0,0.0,0.0,0.0,0.0,0.0,0.0,0.0,0.0,0.0,0.0,0.0,0.0,0.0,0.0,0.0,0.0,0.0,0.0,0.0,0.0,0.0,0.0,0.0,0.0,0.0,0.0,0.0,0.0,2.6269,2.874,3.2197,3.4343,3.4958,3.5199,3.4542,3.2917,2.945,2.7095,0.0,0.0,0.0,0.0,0.0,0.0,0.0,0.0,0.0,0.0,0.0,0.0,0.0,0.0,0.0,0.0,0.0,0.0,0.0,0.0,0.0,0.0,0.0,0.0,0.0,0.0,0.0,0.0,0.0,0.0,0.0,0.0,0.0,0.0,0.0,0.0,0.0,0.0,0.0,0.0,0.0,0.0,3.3896,3.4075,0.0,0.0,0.0,3.4427,3.3379,0.0,0.0,0.0,0.0,0.0,0.0,0.0,0.0,0.0,0.0,0.0,0.0,0.0,0.0,0.0,0.0,0.0,0.0,0.0,0.0,0.0,0.0,0.0,0.0,0.0,0.0,0.0,0.0,0.0,0.0,0.0,0.0,0.0,0.0,0.0,0.0,0.0,0.0,0.0,0.0,0.0,0.0,0.0,0.0,0.0,0.0,0.0,0.0,0.0,0.0,0.0,0.0,0.0,0.0,0.0,0.0,0.0,2.8849,3.3033,3.5184,3.5068,3.4947,3.4372,3.3229,2.963,0.0,0.0,0.0,0.0,0.0,0.0,0.0,0.0,0.0,0.0,0.0,0.0,0.0,0.0,0.0,0.0,0.0,0.0,0.0,0.0,0.0,0.0,0.0,0.0,0.0,0.0,0.0,1.746,0.0,0.0,0.0,0.0,0.0,0.0,0.0,0.0,0.0,0.0,0.0,0.0,0.0,0.0,3.5264,3.6001,3.6374,3.6698,0.0,0.0,3.6035,3.4567,3.7424,3.7783,0.0,0.0,0.0,0.0,0.0,0.0,0.0,0.0,0.0,0.0,0.0,0.0,0.0,0.0,0.0,0.0,0.0,0.0,0.0,0.0,0.0,0.0,0.0,0.0,0.0,0.0,0.0,0.0,0.0,0.0,0.0,0.0,0.0,0.0,0.0,0.0,0.0,0.0,0.0,0.0,0.0,0.0,0.0,0.0,0.0,0.0,0.0,0.0,0.0,0.0,0.0,0.0,0.0,0.0,0.0,2.8612,3.2641,3.4763,3.4732,3.3958,3.3491,3.3318,2.9658,2.7285,0.0,0.0,0.0,0.0,0.0,0.0,0.0,0.0,0.0,0.0,0.0,0.0,0.0,0.0,0.0,0.0,0.0,0.0,0.0,0.0,0.0,0.0,0.0,0.0,0.0,0.0,0.0,0.0,0.0,0.0,0.0,0.0,0.0,0.0,0.0,0.0,0.0,0.0,0.0,0.0,0.0,3.6923,3.6939,3.7712,3.8905,0.0,3.9371,3.8803,4.0157,4.1912,4.1133,3.5124,0.0,0.0,0.0,0.0,0.0,0.0,0.0,0.0,0.0,0.0,0.0,0.0,0.0,0.0,0.0,0.0,0.0,0.0,0.0,0.0,0.0,0.0,0.0,0.0,0.0,0.0,0.0,0.0,0.0,0.0,0.0,0.0,0.0,0.0,0.0,0.0,0.0,0.0,0.0,0.0,0.0,0.0,0.0,0.0,0.0,0.0,0.0,0.0,0.0,0.0,0.0,0.0,0.0,2.7314,2.8831,3.3067,3.5005,3.4488,3.4665,3.4159,3.2938,3.0572,2.8413,0.0,0.0,0.0,0.0,0.0,0.0,0.0,0.0,0.0,0.0,0.0,0.0,0.0,0.0,0.0,0.0,0.0,0.0,0.0,0.0,0.0,0.0,0.0,0.0,0.0,0.0,0.0,0.0,2.3457,2.4201,2.5088,0.0,0.0,0.0,0.0,0.0,0.0,0.0,0.0,0.0,0.0,3.771,3.9235,4.0292,0.0,0.0,4.1704,4.1235,4.0331,4.1604,4.0652,3.4605,3.2821,0.0,0.0,0.0,0.0,0.0,0.0,0.0,0.0,0.0,0.0,0.0,0.0,0.0,0.0,0.0,0.0,0.0,0.0,0.0,0.0,0.0,0.0,0.0,0.0,0.0,0.0,0.0,0.0,0.0,0.0,0.0,0.0,0.0,0.0,0.0,0.0,0.0,0.0,0.0,0.0,0.0,0.0,0.0,0.0,0.0,0.0,0.0,0.0,0.0,0.0,0.0,0.0,2.7497,2.8777,3.3328,3.5345,3.471,3.5081,3.4711,3.3482,3.1551,2.9577,0.0,0.0,0.0,0.0,0.0,0.0,0.0,0.0,0.0,0.0,0.0,0.0,0.0,0.0,0.0,0.0,0.0,0.0,0.0,0.0,0.0,0.0,0.0,0.0,0.0,0.0,0.0,0.0,2.5014,2.5698,2.6629,0.0,0.0,0.0,0.0,0.0,0.0,0.0,0.0,0.0,0.0,3.9277,4.08,4.1593,4.2108,4.2357,4.2195,4.1638,4.062,4.1423,4.0423,3.5426,0.0,0.0,0.0,0.0,0.0,0.0,0.0,0.0,0.0,0.0,0.0,0.0,0.0,0.0,0.0,0.0,0.0,0.0,0.0,0.0,0.0,0.0,0.0,0.0,0.0,0.0,0.0,1.6006,0.0,0.0,1.5595,0.0,0.0,0.0,0.0,0.0,0.0,0.0,0.0,0.0,0.0,0.0,0.0,0.0,0.0,0.0,0.0,0.0,0.0,0.0,0.0,0.0,0.0,2.7595,2.8273,3.3245,3.5712,3.5553,3.4976,3.4885,3.5261,3.2429,3.0561,2.9998,0.0,0.0,0.0,0.0,0.0,0.0,0.0,0.0,0.0,0.0,0.0,0.0,0.0,0.0,0.0,0.0,0.0,0.0,0.0,0.0,0.0,0.0,0.0,0.0,0.0,0.0,2.3075,2.4416,2.5783,0.0,0.0,0.0,0.0,0.0,0.0,0.0,0.0,0.0,3.449,3.8965,4.1873,4.1212,4.1129,4.1518,4.2373,4.0441,3.9587,4.1825,4.2023,4.1094,0.0,0.0,0.0,0.0,0.0,0.0,0.0,0.0,0.0,0.0,0.0,0.0,0.0,0.0,0.0,0.0,0.0,0.0,0.0,0.0,0.0,0.0,0.0,0.0,0.0,0.0,0.0,1.684,1.7125,0.0,0.0,0.0,0.0,0.0,0.0,0.0,0.0,0.0,0.0,0.0,2.5471,2.6445,0.0,0.0,0.0,0.0,0.0,0.0,0.0,0.0,0.0,0.0,0.0,0.0,2.7803,2.9145,3.3594,3.5908,3.587,3.6062,3.5628,3.4484,3.3376,3.1361,2.8291,0.0,0.0,0.0,0.0,0.0,0.0,0.0,0.0,0.0,0.0,0.0,0.0,0.0,0.0,0.0,0.0,0.0,0.0,0.0,0.0,0.0,0.0,0.0,0.0,0.0,2.5093,0.0,0.0,0.0,0.0,0.0,0.0,0.0,0.0,0.0,0.0,0.0,3.5039,3.7652,3.8534,3.9651,4.1672,4.1926,4.2797,0.0,0.0,0.0,0.0,0.0,0.0,0.0,0.0,0.0,0.0,0.0,0.0,0.0,0.0,4.0086,3.5157,3.4733,3.5128,3.5159,0.0,0.0,0.0,0.0,0.0,0.0,0.0,0.0,0.0,0.0,0.0,0.0,0.0,0.0,1.9417,2.0022,1.9609,0.0,0.0,0.0,0.0,0.0,0.0,0.0,0.0,2.6507,2.8079,2.8727,2.9858,2.9717,0.0,2.8171,2.602,0.0,0.0,0.0,0.0,0.0,0.0,0.0,0.0,2.8334,2.9893,3.4137,3.6376,3.6394,3.7021,3.6626,3.5045,3.4268,3.2301,2.8976,2.6821,2.4997,0.0,0.0,0.0,0.0,0.0,0.0,0.0,0.0,0.0,0.0,0.0,0.0,0.0,0.0,0.0,0.0,0.0,0.0,0.0,0.0,0.0,0.0,0.0,2.6708,0.0,0.0,0.0,0.0,0.0,0.0,0.0,0.0,0.0,3.3741,3.5507,3.7702,4.0258,4.044,4.0736,4.1766,0.0,0.0,0.0,0.0,0.0,0.0,0.0,4.0608,3.9566,3.9019,3.8913,3.9511,4.2028,4.3737,4.2934,0.0,0.0,3.9523,3.888,3.9252,3.9233,3.9489,3.9497,3.888,3.9433,3.9861,0.0,0.0,0.0,0.0,0.0,0.0,0.0,0.0,2.354,2.3921,0.0,2.3319,0.0,0.0,0.0,0.0,2.3008,2.5522,0.0,0.0,3.1752,3.3382,3.2959,3.3593,3.3245,3.1962,3.1341,3.0341,2.892,2.6153,0.0,0.0,0.0,0.0,0.0,0.0,2.9205,3.0754,3.4965,3.7114,3.7109,3.7738,3.7742,3.7018,3.509,3.3433,3.2063,2.9757,2.7801,2.6338,2.4257,0.0,0.0,0.0,0.0,0.0,0.0,0.0,0.0,0.0,0.0,0.0,0.0,0.0,0.0,0.0,0.0,0.0,0.0,0.0,0.0,2.7566,0.0,0.0,0.0,0.0,0.0,0.0,0.0,0.0,0.0,0.0,3.5266,3.8413,4.1298,4.2107,0.0,0.0,0.0,0.0,4.2769,4.0622,4.0089,4.0371,4.1122,4.2919,4.446,4.5008,0.0,0.0,4.6499,4.6713,4.6591,4.4354,4.7241,4.872,4.5766,4.3954,4.2938,4.2749,4.234,4.1575,4.1415,4.2341,4.2674,2.6854,0.0,0.0,0.0,0.0,2.4191,2.4833,2.6455,2.58,2.6099,2.7055,2.6791,0.0,0.0,0.0,0.0,0.0,0.0,2.8732,3.0901,3.2482,3.4122,3.5835,3.6487,3.6336,3.5533,3.5799,3.5449,3.4491,3.3495,3.0119,2.4549,0.0,0.0,0.0,0.0,3.1139,3.364,3.6456,3.8124,3.8629,3.8333,3.7611,3.65,3.5742,3.4766,3.3558,3.2655,3.1052,2.8527,2.7609,0.0,0.0,0.0,0.0,0.0,0.0,0.0,0.0,0.0,0.0,0.0,0.0,0.0,0.0,0.0,0.0,0.0,0.0,0.0,2.7385,2.7969,2.8316,0.0,0.0,0.0,0.0,0.0,0.0,0.0,0.0,0.0,4.0851,4.0906,4.1025,0.0,0.0,4.0692,4.1012,4.2439,4.445,4.7287,4.7087,0.0,5.0138,4.8875,4.7822,4.8529,4.9631,5.0149,4.9461,5.098,5.2059,5.1328,5.2693,5.3355,5.197,5.0338,4.9219,4.9141,4.8964,4.8828,4.8762,4.854,4.8198,3.1713,2.9135,2.7252,2.7068,2.7954,2.7134,2.7947,2.9841,2.9261,2.9722,3.0821,3.0361,2.9741,2.9007,2.8536,0.0,0.0,0.0,3.1335,3.3798,3.4668,3.6054,3.7852,3.8583,3.8552,3.7931,3.8571,3.8654,3.8115,3.7282,3.4685,3.03,0.0,0.0,2.8403,3.0638,3.311,3.5711,3.7384,3.857,3.9292,3.8329,3.7537,3.7,3.6086,3.5234,3.4431,3.3816,3.2619,3.0724,2.988,2.823,0.0,0.0,0.0,0.0,0.0,0.0,0.0,0.0,0.0,0.0,0.0,2.3487,2.1975,0.0,0.0,0.0,2.7465,2.8773,2.9505,3.0033,0.0,0.0,0.0,0.0,0.0,0.0,0.0,3.7563,4.0738,4.3457,4.4807,4.4671,4.4438,4.4487,4.3549,4.3287,4.4382,0.0,4.7902,5.056,5.0716,5.1234,5.3128,5.2346,5.1768,5.266,5.2664,5.266,5.27,5.3939,5.4841,5.4972,5.5554,5.5854,5.5028,5.4033,5.3132,5.2531,5.2137,5.1931,5.1912,5.1499,5.1161,3.6382,3.525,3.1008,2.9992,3.1048,3.061,3.1615,3.3635,3.367,3.4329,3.5317,3.4127,3.3231,3.2477,3.0613,0.0,3.1655,3.3093,3.4818,3.6672,3.7849,3.8766,3.9409,4.0006,3.9994,3.9419,4.0122,4.0467,4.0379,3.8772,3.7801,3.7469,3.4662,3.2746,3.1896,3.316,3.4982,3.7168,3.7838,3.8591,3.9349,3.8124,3.7671,3.8044,3.6303,3.5239,3.4991,3.3868,3.3068,3.268,3.1351,3.0148,2.9055,0.0,0.0,0.0,0.0,0.0,0.0,0.0,0.0,0.0,0.0,0.0,0.0,0.0,0.0,0.0,3.2356,0.0,3.2656,3.3326,0.0,0.0,0.0,3.6067,3.8543,4.0298,4.1641,4.2425,0.0,0.0,4.7584,4.9039,5.0106,5.0364,5.0106,4.9885,4.9911,5.1229,5.2235,5.183,5.2349,5.2837,5.3398,5.4499,5.5698,5.6461,5.6324,5.5687,5.5574,5.5724,5.5799,5.5856,5.6474,5.6774,5.5931,5.5649,5.5124,5.3658,5.2738,5.2156,5.2212,5.2118,5.2006,3.8267,3.7937,3.6872,3.58,3.4829,3.4676,3.5728,3.7506,3.7708,3.8251,3.9013,3.883,3.8302,3.7462,3.595,3.5737,3.6608,3.7481,3.8466,3.9502,3.9825,4.0347,4.1008,4.0639,4.0638,4.0992,4.1645,4.2197,4.252,4.1988,4.1033,3.9794,3.846,3.6289,3.3425,3.4187,3.5711,3.793,3.8103,3.8547,3.9308,3.9528,3.8923,3.7391,3.7437,3.69,3.5794,3.5456,3.4483,3.2801,3.2913,3.1796,2.9065,2.7068,0.0,0.0,0.0,0.0,0.0,0.0,0.0,0.0,0.0,2.7036,2.4307,0.0,2.819,0.0,3.3105,3.5779,3.6819,3.7124,0.0,0.0,3.9182,4.0208,4.2086,4.4384,4.5634,4.516,4.733,4.944,5.0933,5.1441,5.2666,5.5126,5.2782,5.0732,5.0845,5.2755,5.4633,5.5697,5.6802,5.7904,5.83,5.8612,5.8467,5.7898,5.7638,5.7282,5.6699,5.7112,5.7507,5.7525,5.7639,5.7695,5.7489,5.6513,5.5574,5.5049,5.4371,5.3808,5.3789,5.332,5.2888,4.0062,3.9661,3.973,3.8977,3.7682,3.7701,3.8649,4.0158,4.0254,4.0519,4.0861,4.0608,4.0255,3.9803,3.9002,3.8913,3.9327,4.0017,4.0558,4.1016,4.1289,4.1824,4.2502,4.2112,4.2304,4.2973,4.3651,4.3943,4.3922,4.4031,4.3434,4.2256,4.1738,3.9937,3.7011,3.5948,3.6058,3.7201,3.8195,3.904,3.9763,3.9537,3.8361,3.6208,3.6061,3.5285,3.3709,3.3807,3.3116,3.1444,3.1585,3.0994,2.9298,2.7308,2.5791,0.0,0.0,0.0,0.0,0.0,0.0,0.0,0.0,0.0,0.0,0.0,3.1283,3.2148,3.6228,3.8899,3.8998,4.0081,4.1276,4.2468,4.3661,4.5035,4.6693,4.8852,5.0128,4.9983,5.1547,5.3286,5.489,5.5447,5.6353,5.8271,5.6781,5.5381,5.5174,5.6261,5.7549,5.8854,5.9679,6.0258,6.067,6.0418,5.9926,5.92,5.8646,5.8148,5.7752,5.7877,5.8107,5.8108,5.8408,5.8502,5.8145,5.7112,5.61,5.5593,5.4936,5.4465,5.439,5.4052,5.3714,4.1769,4.1057,4.1211,4.0894,4.0214,4.032,4.0731,4.1269,4.1306,4.1395,4.1571,4.1074,4.0843,4.0766,4.0751,4.0774,4.0832,4.1514,4.1919,4.2021,4.2592,4.3219,4.3822,4.3831,4.4225,4.4935,4.5529,4.5526,4.4989,4.5366,4.5055,4.4209,4.4078,4.2819,4.0517,3.7878,3.6463,3.634,3.8413,3.974,4.0254,3.8742,3.6887,3.4764,3.3733,3.2458,3.0829,3.1139,3.0844,2.9741,2.9534,2.9626,2.9949,2.7422,2.6575,0.0,2.6002,0.0,0.0,0.0,0.0,0.0,0.0,0.0,0.0,3.4703,3.5818,3.6707,4.0504,4.2364,4.1049,4.3056,4.5066,4.6668,4.8166,4.9709,5.1263,5.2777,5.4044,5.4951,5.5726,5.6835,5.8394,5.945,5.9886,6.0005,6.0325,6.0218,6.0063,5.9851,6.0112,6.1021,6.107,6.0824,6.0654,6.0594,6.0457,6.0116,5.9391,5.8783,5.8751,5.8489,5.8277,5.8314,5.8708,5.884,5.8221,5.745,5.6662,5.595,5.531,5.4822,5.4634,5.4446,5.4428,4.3369,4.3354,4.3379,4.3404,4.3396,4.344,4.1784,3.9094,3.9109,4.0036,4.1648,4.2586,4.2694,4.2217,4.2217,4.2233,4.232,4.2942,4.3537,4.4114,4.424,4.4374,4.4503,4.4581,4.4968,4.5592,4.5748,4.5991,4.6406,4.6312,4.5336,4.3513,4.3407,4.1896,3.9143,0.0,0.0,0.0,3.9578,4.0124,3.9641,3.7534,3.5387,3.3378,3.31,0.0,3.0911,3.1424,3.1248,3.0182,3.0914,0.0,0.0,0.0,0.0,0.0,0.0,0.0,0.0,0.0,0.0,0.0,3.6099,3.5924,3.552,3.8143,4.0502,4.2031,4.4227,4.5982,4.7021,4.8116,4.9181,5.015,5.1097,5.2091,5.3094,5.3474,5.4176,5.5688,5.6048,5.7038,5.9249,5.9812,6.016,6.0712,6.1002,6.1041,6.0886,6.0828,6.0905,6.107,6.0951,6.0666,6.034,6.0359,6.0366,6.0151,5.9897,5.9576,5.9525,5.9278,5.9065,5.9027,5.8671,5.8333,5.8127,5.745,5.6887,5.6681,5.6512,5.6211,5.5499,5.4859,5.4597,4.391,4.4026,4.4089,4.364,0.0,4.291,4.139,3.8941,4.0716,4.2186,4.3402,4.3883,4.4198,4.4317,4.2777,4.2338,4.2635,4.1569,4.2062,4.3767,4.3817,4.4769,4.6532,4.6553,4.6887,4.7469,4.7483,4.7437,4.7331,4.7237,4.6431,4.5042,4.498,4.4147,4.255,4.2176,4.1239,3.9703,4.0354,4.0869,4.1143,3.9704,3.7703,3.5295,3.5265,0.0,0.0,0.0,0.0,0.0,0.0,0.0,0.0,0.0,0.0,3.4822,3.4472,3.4757,3.6037,3.6604,3.7943,4.0402,4.1933,4.2083,4.0505,4.2798,4.4824,4.6061,4.7771,4.914,4.997,5.1186,5.2055,5.2416,5.3158,5.3818,5.4241,5.4975,5.5951,5.7119,5.7729,5.865,6.0276,6.0499,6.0634,6.1021,6.1099,6.1099,6.1099,6.1099,6.1099,6.1099,6.1002,6.0839,6.0689,6.0646,6.0635,6.0611,6.0425,6.0194,6.0019,5.9739,5.947,5.929,5.8934,5.8671,5.8503,5.7922,5.7378,5.7323,5.7023,5.6817,5.6611,5.6122,5.5723,4.4065,4.4127,4.4281,4.3416,4.194,4.213,4.1503,4.0487,4.3117,0.0,0.0,4.48,4.5374,4.6105,4.36,4.2811,4.324,4.1089,4.1379,4.3697,4.3812,4.5473,4.8334,4.8526,4.8827,4.9212,4.926,4.8893,4.8212,4.8135,4.7763,4.7098,4.7018,4.6822,4.649,4.5855,4.4213,4.1724,4.1093,4.1433,4.2562,4.1657,3.993,3.7398,3.7389,3.6405,3.4303,3.4606,3.4251,3.2981,3.2669,3.3121,3.4312,3.4359,3.5435,3.7795,3.7988,3.8863,4.0843,4.1176,4.2509,4.5288,4.7002,4.738,4.5997,4.7219,4.8445,4.9403,5.0785,5.165,5.1772,5.298,5.3949,5.4147,5.4738,5.5186,5.5544,5.6698,5.7854,5.8729,5.9367,6.0209,6.0925,6.106,6.1099,6.1099,6.1099,6.1099,6.1099,6.1099,6.1099,6.1089,6.108,6.108,6.1089,6.107,6.1099,6.1032,6.0828,6.0601,6.03,5.9988,5.9624,5.9327,5.9272,5.9159,5.8987,5.8501,5.809,5.8033,5.749,5.721,5.777,5.7641,5.7227,4.4358,4.4549,4.4534,4.4606,4.4647,4.4662,4.4763,4.4745,4.3558,4.3262,4.3827,4.5112,4.5863,4.6273,4.5957,4.5916,4.6044,4.6044,4.6387,4.6963,4.7404,4.7908,4.8431,4.9043,4.9398,4.9441,4.9441,4.9406,4.9274,4.9076,4.8625,4.798,4.781,4.7333,4.6549,4.6399,4.5776,4.4637,4.2223,4.1096,4.1247,3.921,3.77,3.6777,3.66,3.6015,3.5088,3.5542,3.5474,3.4935,3.5455,3.652,3.8174,3.8081,3.9059,4.1406,4.1437,4.2233,4.4312,4.4652,4.6071,4.8896,4.9544,4.9608,4.9412,4.9592,5.0416,5.1941,5.2313,5.275,5.3413,5.3721,5.4493,5.5784,5.5974,5.6517,5.7884,5.8273,5.8757,5.9532,5.9822,6.0237,6.0944,6.1108,6.1126,6.1108,6.1107,6.1108,6.1099,6.1099,6.1099,6.1099,6.1099,6.1099,6.1099,6.1099,6.1089,6.1099,6.0847,6.0613,6.052,6.0049,5.9622,5.9469,5.929,5.912,5.9043,5.8948,5.8819,5.8782,5.8614,5.8612,5.8763,5.867,5.8446,4.5177,4.4964,4.5173,4.5358,4.5541,4.5692,4.6052,4.6432,4.5738,4.5436,4.5501,4.5974,4.6754,4.7578,4.5995,4.5501,4.5857,4.4566,4.4906,4.6497,4.676,4.7753,4.9205,4.9607,4.9696,4.959,4.9607,4.9577,4.9471,4.9428,4.921,4.8852,4.8682,4.8368,4.7954,4.753,4.6897,4.6048,4.4258,4.3204,4.2942,4.2149,4.1274,4.0341,4.0668,4.0593,3.9909,4.0344,4.0433,4.0094,4.0158,4.0872,4.2303,4.2298,4.3088,4.494,4.5004,4.5357,4.6373,4.7204,4.8326,4.9865,5.0472,5.0956,5.1433,5.148,5.1843,5.2644,5.3459,5.4362,5.5178,5.5594,5.6339,5.7633,5.7571,5.7816,5.8603,5.917,5.9517,5.9886,6.0387,6.0813,6.1068,6.1194,6.1243,6.1221,6.1197,6.1184,6.1098,6.1099,6.1099,6.1099,6.1099,6.1099,6.1099,6.107,6.1041,6.1041,6.091,6.0754,6.0596,6.0194,5.9973,5.9772,5.9624,5.9558,5.947,5.9469,5.9469,5.9434,5.9234,5.9197,5.9326,5.9326,5.8897,4.6182,4.5577,4.5887,4.6047,4.6156,4.6461,4.6913,4.7405,4.7688,4.777,4.7522,4.712,4.777,4.886,4.645,4.5668,4.5854,4.4105,4.4359,4.6285,4.6537,4.7825,4.9797,5.0011,4.9935,4.9784,4.9784,4.9696,4.9607,4.9577,4.9547,4.9509,4.9452,4.9395,4.9197,4.8588,4.7865,4.7021,4.6255,4.5486,4.4643,4.4998,4.4744,4.3973,4.4503,4.4747,4.4324,4.4621,4.4721,4.4421,4.407,4.4354,4.537,4.547,4.6046,4.7237,4.7409,4.758,4.7983,4.9077,5.0,5.0559,5.1203,5.1965,5.2774,5.3125,5.3266,5.3439,5.4616,5.5778,5.6541,5.7342,5.8201,5.9043,5.9016,5.9066,5.9379,5.9937,6.0306,6.0336,6.0935,6.1314,6.1243,6.1298,6.1367,6.1337,6.1311,6.1252,6.1141,6.1115,6.1134,6.108,6.107,6.109,6.108,6.1031,6.1001,6.1001,6.0969,6.085,6.0659,6.0553,6.0343,6.0057,5.9984,5.989,5.9826,5.9823,5.9823,5.9725,5.9556,5.945,5.9675,5.9626,5.9176,4.7302,4.6718,4.6708,4.6805,4.703,4.7387,4.7853,4.824,4.8304,4.8623,4.8886,4.8431,4.8841,4.9725,4.9014,4.8663,4.8783,4.9059,4.8944,4.8813,4.9387,4.9746,4.9964,5.0011,5.0011,4.9964,4.9964,4.9935,4.9906,4.9755,4.9619,4.9577,5.0017,4.99,4.9291,4.9144,4.8692,4.79,4.7786,4.6734,4.4738,4.4748,4.4927,4.512,4.5089,4.5315,4.565,4.5574,4.5469,4.5376,4.5373,4.5607,4.6244,4.6308,4.6629,4.7377,4.7498,4.7995,4.9206,5.011,5.1092,5.2226,5.2396,5.284,5.3713,5.4503,5.496,5.5117,5.5772,5.6617,5.7412,5.8182,5.9011,5.9932,5.9974,6.0246,6.1003,6.1296,6.1276,6.1252,6.1315,6.1403,6.1373,6.1383,6.1393,6.1398,6.1367,6.1304,6.1225,6.1229,6.1192,6.107,6.1021,6.1021,6.1029,6.1027,6.0997,6.0997,6.0955,6.088,6.0781,6.0572,6.0293,6.0321,6.0091,5.9953,5.9887,5.9807,5.9855,5.995,5.9855,5.9774,5.9807,5.9791,5.9444,4.8445,4.7845,4.7997,4.8084,4.8144,4.8597,4.8835,4.8872,4.8855,4.9165,4.9619,4.9585,4.9737,5.0011,4.9772,4.9666,4.9696,4.9906,4.9877,4.9713,4.9889,5.0011,5.0011,5.0011,5.0011,5.0011,5.0011,5.0011,4.9982,4.9906,4.986,4.9818,5.0063,5.0146,5.012,4.9844,4.9372,4.8835,4.8591,4.772,4.6385,4.6096,4.5882,4.5606,4.5782,4.6145,4.6621,4.6894,4.7006,4.6984,4.6966,4.7297,4.7949,4.7998,4.8299,4.8922,4.9049,4.9587,5.0731,5.1135,5.1868,5.3119,5.32,5.3604,5.4596,5.5462,5.6147,5.664,5.6948,5.7633,5.8865,5.9342,5.9911,6.0735,6.0882,6.1042,6.1495,6.149,6.1412,6.1412,6.1412,6.1412,6.1422,6.146,6.1501,6.1513,6.1493,6.1441,6.135,6.1289,6.1181,6.1079,6.1001,6.0959,6.0987,6.0965,6.0944,6.0914,6.088,6.0846,6.0812,6.0746,6.0604,6.0604,6.0436,6.0335,6.0436,6.0376,6.0395,6.0349,6.0335,6.0293,5.9906,5.9969,5.9839,4.9652,4.9212,4.9382,4.9464,4.951,4.9937,4.998,4.9765,4.9787,4.9956,5.012,5.0387,5.0415,5.0235,5.0166,5.012,5.0206,5.0166,5.0149,5.0206,5.0235,5.0206,5.0206,5.012,5.0109,5.008,5.0022,5.0011,5.0011,5.0011,5.0011,4.9993,5.008,5.0302,5.0602,5.0274,4.9968,4.9662,4.9312,4.8723,4.7993,4.7742,4.7195,4.637,4.6778,4.72,4.7485,4.7875,4.8072,4.807,4.805,4.8383,4.9036,4.9104,4.9401,5.0076,5.0411,5.0898,5.1698,5.205,5.2741,5.3825,5.4186,5.4825,5.5792,5.6699,5.7433,5.7947,5.8192,5.887,5.9814,6.03,6.075,6.1383,6.1439,6.1504,6.1614,6.1517,6.1463,6.1478,6.1452,6.1407,6.1452,6.1534,6.1593,6.1622,6.1607,6.1556,6.1441,6.1324,6.119,6.1094,6.0991,6.0933,6.0944,6.0911,6.0869,6.0858,6.0835,6.0812,6.08,6.08,6.08,6.071,6.0769,6.0769,6.0666,6.0734,6.0757,6.08,6.0757,6.0629,6.0265,6.0321,6.0307,5.0978,5.0785,5.0693,5.094,5.1388,5.142,5.1261,5.1045,5.124,5.1019,5.0502,5.0657,5.0776,5.0766,5.0537,5.0537,5.0684,5.0481,5.0509,5.0712,5.0739,5.0766,5.0739,5.0492,5.0387,5.0359,5.0178,5.0051,5.0022,5.0022,5.0011,5.0057,5.0309,5.0432,5.0523,5.0432,5.0352,5.0248,5.0039,4.9784,4.9529,4.9433,4.8886,4.7811,4.8163,4.8384,4.8253,4.8265,4.8285,4.8206,4.8225,4.8476,4.9038,4.9155,4.9533,5.0196,5.1008,5.1553,5.195,5.2826,5.3805,5.4807,5.5774,5.6725,5.7492,5.8343,5.8878,5.9036,5.9572,6.0024,6.0138,6.0741,6.1172,6.1373,6.153,6.1618,6.1698,6.1621,6.1642,6.163,6.1523,6.1463,6.1571,6.159,6.1631,6.1662,6.1642,6.1572,6.1521,6.1392,6.1226,6.1064,6.0953,6.088,6.0835,6.0823,6.0823,6.0793,6.0793,6.08,6.08,6.08,6.08,6.08,6.08,6.08,6.08,6.08,6.08,6.08,6.08,6.0654,6.0514,6.0678,6.0666,5.1891,5.2124,5.2489,5.2563,5.2486,5.2812,5.2778,5.2415,5.1994,5.17,5.1423,5.1228,5.1245,5.1424,5.1132,5.0901,5.0803,5.0712,5.0694,5.082,5.082,5.082,5.0776,5.0712,5.0657,5.063,5.0564,5.0509,5.0509,5.0509,5.0771,5.1113,5.0847,5.0885,5.1207,5.0708,5.0397,5.0415,5.0471,5.0462,5.0497,5.1048,5.0904,4.9975,4.9622,4.9628,4.9841,4.9406,4.9112,4.9111,4.879,4.88,4.9268,5.0161,5.081,5.1121,5.1919,5.2678,5.3338,5.4218,5.5248,5.634,5.7288,5.8033,5.8638,5.9406,5.9896,5.9991,6.0595,6.098,6.0914,6.1161,6.1383,6.1426,6.1542,6.1656,6.1678,6.1648,6.1592,6.1619,6.1557,6.1562,6.159,6.1633,6.1666,6.1705,6.1692,6.1654,6.1612,6.1498,6.1342,6.1155,6.1039,6.0922,6.0793,6.08,6.08,6.08,6.08,6.08,6.08,6.08,6.08,6.08,6.08,6.08,6.08,6.0769,6.0769,6.0769,6.0769,6.0777,6.0781,6.0757,6.0777,5.2889,5.3281,5.3994,5.4086,5.3869,5.4186,5.4034,5.3545,5.3057,5.2602,5.2163,5.1891,5.1803,5.1754,5.1654,5.1401,5.1149,5.1237,5.1378,5.1494,5.1723,5.1688,5.1529,5.1642,5.1571,5.1395,5.1507,5.1603,5.1558,5.1558,5.1884,5.2305,5.1886,5.2049,5.2456,5.1849,5.153,5.1767,5.1776,5.19,5.2195,5.2624,5.274,5.2273,5.1569,5.0978,5.082,5.027,4.9996,4.9962,4.9732,4.9818,5.0346,5.1383,5.2038,5.2138,5.2855,5.3732,5.4587,5.5497,5.6492,5.7633,5.8583,5.9231,5.9534,6.0059,6.0212,6.021,6.0661,6.1046,6.0794,6.1071,6.1448,6.1439,6.1547,6.1658,6.1699,6.1647,6.1579,6.1543,6.1586,6.1605,6.1629,6.1658,6.1705,6.1699,6.1715,6.1707,6.1676,6.1521,6.1359,6.1193,6.1028,6.0911,6.0827,6.0781,6.08,6.08,6.08,6.08,6.08,6.08,6.08,6.08,6.08,6.08,6.0781,6.0769,6.0757,6.0757,6.071,6.0704,6.0717,6.071,6.0729,5.4119,5.4215,5.5091,5.5378,5.532,5.5349,5.501,5.4475,5.4514,5.3794,5.2821,5.2765,5.2411,5.1951,5.2011,5.1957,5.1779,5.2067,5.2474,5.2771,5.3413,5.3421,5.2939,5.3238,5.3132,5.2564,5.2921,5.3162,5.3122,5.306,5.312,5.3243,5.3349,5.3585,5.4171,5.3647,5.3831,5.4165,5.3859,5.4058,5.487,5.4269,5.4126,5.4412,5.3808,5.2731,5.1153,5.0932,5.0822,5.0864,5.1083,5.1611,5.2115,5.2665,5.2955,5.3142,5.3836,5.4691,5.5501,5.6547,5.7657,5.854,5.961,6.0204,6.0231,6.0322,6.0131,5.9726,5.9988,6.0115,5.9775,6.0693,6.154,6.1443,6.1549,6.1648,6.1677,6.1627,6.1543,6.1495,6.1576,6.1662,6.1632,6.1661,6.1699,6.1715,6.1707,6.1701,6.1693,6.148,6.1272,6.1162,6.1028,6.0899,6.0831,6.08,6.08,6.08,6.08,6.08,6.08,6.08,6.08,6.08,6.0777,6.0777,6.0741,6.071,6.0717,6.0704,6.0655,6.0629,6.0642,6.0655,6.0642,5.5061,5.5091,5.5366,5.5619,5.5775,5.5775,5.5731,5.5662,5.5265,5.4768,5.4225,5.3324,5.2878,5.2705,5.2214,5.1927,5.2078,5.2534,5.2952,5.3288,5.3504,5.381,5.4026,5.4202,5.4309,5.4242,5.3901,5.3904,5.4062,5.3896,5.3975,5.4393,5.4109,5.4392,5.5206,5.4494,5.4299,5.4725,5.4719,5.4862,5.5117,5.5225,5.5367,5.5494,5.5274,5.4845,5.4285,5.2716,5.1887,5.1869,5.1852,5.2141,5.2793,5.3491,5.3844,5.4039,5.5313,5.6149,5.6587,5.7949,5.9043,5.965,6.0489,6.0769,6.0471,6.0381,6.0249,6.0,6.0254,6.0357,6.0727,6.1172,6.1557,6.1559,6.1616,6.1673,6.1678,6.1642,6.162,6.1618,6.1618,6.1635,6.1664,6.1696,6.1713,6.1707,6.1703,6.1698,6.1666,6.1513,6.1348,6.1213,6.1037,6.0877,6.0819,6.08,6.08,6.0788,6.0769,6.0769,6.0769,6.0788,6.0788,6.0777,6.0753,6.0685,6.066,6.0655,6.0642,6.0629,6.0572,6.0591,6.0591,6.061,6.0565,5.5631,5.566,5.5793,5.5936,5.606,5.6088,5.6217,5.6329,5.5865,5.5518,5.508,5.4214,5.3656,5.349,5.29,5.2526,5.249,5.3104,5.3599,5.3813,5.3845,5.4056,5.4412,5.4713,5.5129,5.557,5.5418,5.5302,5.5251,5.5191,5.539,5.5677,5.5059,5.5188,5.6067,5.5443,5.5209,5.5757,5.6081,5.6318,5.6419,5.6472,5.6487,5.645,5.621,5.6062,5.5934,5.4647,5.3943,5.3833,5.372,5.3791,5.4016,5.4503,5.4937,5.547,5.6272,5.7159,5.7881,5.8967,5.9956,6.04,6.0772,6.0824,6.0403,6.0207,5.9958,5.9941,6.0215,6.0562,6.0959,6.143,6.1602,6.1642,6.1641,6.1691,6.1674,6.1645,6.1651,6.1676,6.1666,6.1659,6.1686,6.1711,6.1709,6.1701,6.1698,6.1666,6.1605,6.1476,6.131,6.1167,6.0983,6.0867,6.0804,6.08,6.0788,6.0788,6.0769,6.0757,6.0746,6.0753,6.0753,6.0704,6.068,6.0494,6.0422,6.0533,6.0565,6.052,6.0406,6.0499,6.0499,6.0499,6.0485,5.5901,5.5975,5.6245,5.6355,5.6373,5.6355,5.6383,5.6428,5.6392,5.6045,5.5544,5.5169,5.4655,5.4109,5.3795,5.3367,5.298,5.3464,5.4011,5.4191,5.4273,5.4288,5.4464,5.5103,5.5836,5.6534,5.7084,5.7069,5.6549,5.6655,5.6974,5.6667,5.6061,5.6073,5.647,5.6415,5.6575,5.7186,5.767,5.8005,5.8373,5.7765,5.7489,5.7489,5.697,5.6657,5.67,5.6815,5.6771,5.6551,5.6197,5.5975,5.5827,5.575,5.6206,5.6923,5.7069,5.8006,5.9092,5.9654,6.018,6.0981,6.0672,6.0088,6.0176,5.982,5.951,5.9394,5.998,6.0468,6.0701,6.1228,6.1637,6.1675,6.166,6.1655,6.1686,6.1707,6.1702,6.1697,6.1715,6.1713,6.1703,6.1701,6.1701,6.1701,6.1698,6.1657,6.1537,6.1384,6.1182,6.1057,6.0923,6.0834,6.0757,6.0765,6.0753,6.0717,6.0697,6.0697,6.0697,6.0704,6.0578,6.0546,6.0506,6.0307,6.0127,6.015,6.0106,5.9965,6.003,6.0266,6.0342,6.0294,6.0266,5.6273,5.6273,5.6373,5.6383,5.6383,5.6383,5.6437,5.6564,5.6546,5.6483,5.6302,5.5755,5.5068,5.4284,5.3767,5.322,5.2882,5.2777,5.324,5.3826,5.3665,5.4475,5.5478,5.6147,5.6817,5.75,5.7607,5.7653,5.7804,5.7346,5.6926,5.6461,5.6237,5.6048,5.6062,5.6467,5.6974,5.7429,5.7594,5.8034,5.8489,5.7955,5.7843,5.8326,5.8266,5.8276,5.852,5.9128,5.8754,5.7558,5.7425,5.75,5.7486,5.747,5.7596,5.7945,5.8503,5.9025,5.9688,6.0375,6.0986,6.1334,6.1097,6.0733,5.9603,5.9899,5.9745,5.9531,5.9922,6.0663,6.1161,6.1517,6.1694,6.1707,6.1678,6.1674,6.1692,6.1715,6.1717,6.1707,6.1705,6.1703,6.1701,6.1698,6.1698,6.1698,6.1691,6.1634,6.1486,6.1311,6.1128,6.102,6.0892,6.0789,6.0734,6.0741,6.0704,6.0655,6.0629,6.061,6.0629,6.0629,6.0401,6.0179,6.0179,6.0038,5.9668,5.9466,5.9413,5.9466,5.9537,5.9725,5.989,5.9922,5.9922,5.6383,5.6383,5.6383,5.6428,5.6482,5.651,5.6573,5.6662,5.6707,5.6768,5.6739,5.6353,5.5624,5.4852,5.4386,5.3718,5.3017,5.291,5.3208,5.3602,5.411,5.4818,5.5712,5.6415,5.7129,5.7614,5.8053,5.8055,5.7771,5.7441,5.6959,5.6268,5.5816,5.5601,5.5621,5.624,5.6765,5.706,5.7602,5.8271,5.8624,5.8354,5.8395,5.8715,5.8743,5.8651,5.8684,5.9068,5.8949,5.847,5.8502,5.8531,5.8336,5.8338,5.8511,5.8839,5.9359,5.9752,6.0306,6.0906,6.1246,6.1218,6.0993,6.0334,5.982,5.992,5.9668,5.9844,6.0469,6.1094,6.1493,6.167,6.1705,6.1715,6.1715,6.1713,6.1701,6.1707,6.1707,6.1701,6.1698,6.1698,6.1698,6.1698,6.1698,6.1693,6.1631,6.1521,6.139,6.1232,6.1062,6.0924,6.0836,6.0738,6.0673,6.0667,6.0642,6.0578,6.0539,6.0539,6.0539,6.0506,6.0227,5.9996,5.9899,5.9687,5.9251,5.8988,5.9103,5.9159,5.9122,5.9215,5.945,5.9554,5.9554,5.6437,5.6492,5.6455,5.6519,5.6689,5.6635,5.6707,5.6794,5.6821,5.6925,5.6992,5.6907,5.6217,5.5489,5.5126,5.4604,5.3402,5.3585,5.3793,5.4224,5.4926,5.5679,5.5787,5.6795,5.7267,5.7522,5.8615,5.8273,5.7587,5.7403,5.6886,5.612,5.5278,5.5097,5.5492,5.6067,5.6381,5.6923,5.7874,5.8544,5.875,5.8702,5.8669,5.8651,5.8329,5.8051,5.7916,5.8049,5.8333,5.9013,5.948,5.9307,5.874,5.874,5.9068,5.9637,5.9926,6.0266,6.0848,6.107,6.122,6.1179,6.0148,5.948,6.0094,6.0019,6.0,6.0215,6.1172,6.1561,6.1674,6.1707,6.1715,6.1705,6.1701,6.1701,6.1698,6.1698,6.1698,6.1698,6.1698,6.1698,6.1718,6.1693,6.1668,6.1621,6.1526,6.1365,6.1232,6.1076,6.0915,6.0754,6.071,6.0673,6.061,6.0591,6.0552,6.0499,6.0458,6.0444,6.0425,6.0337,6.0095,5.9855,5.9535,5.914,5.8691,5.8628,5.877,5.875,5.8688,5.889,5.9122,5.9122,5.914,5.6671,5.7083,5.6697,5.6855,5.7227,5.6933,5.6865,5.6951,5.6933,5.7105,5.7264,5.7282,5.6503,5.5304,5.5277,5.4706,5.3849,5.3775,5.4093,5.5392,5.5867,5.6588,5.7015,5.7838,5.8212,5.8303,5.8219,5.8182,5.7883,5.7061,5.6351,5.5787,5.5582,5.545,5.5654,5.6386,5.7079,5.7641,5.8128,5.8596,5.8933,5.8653,5.8409,5.8276,5.798,5.783,5.7921,5.8229,5.851,5.8769,5.9279,5.9734,6.0082,6.0236,6.0362,6.0527,6.0623,6.0808,6.1155,6.1256,6.1346,6.1461,6.1105,6.0898,6.041,6.084,6.0762,6.0762,6.1171,6.1655,6.166,6.1699,6.1688,6.1676,6.1696,6.1698,6.1698,6.1698,6.1698,6.1698,6.1696,6.1698,6.1696,6.1584,6.1549,6.1532,6.139,6.1184,6.1059,6.0944,6.0798,6.0655,6.0629,6.0604,6.0533,6.0525,6.0499,6.0458,6.0431,6.0299,6.028,6.008,5.9791,5.9413,5.9027,5.8648,5.8348,5.819,5.8304,5.8257,5.8275,5.8498,5.8648,5.8689,5.873,5.7302,5.7552,5.7177,5.7234,5.7462,5.7094,5.6977,5.7105,5.7163,5.7282,5.7388,5.7437,5.6943,5.6025,5.5528,5.4932,5.429,5.3652,5.3904,5.5015,5.5802,5.6736,5.7703,5.8515,5.8987,5.8796,5.8557,5.8318,5.7753,5.6974,5.6248,5.5906,5.58,5.5977,5.6353,5.7014,5.76,5.8051,5.8501,5.8896,5.9121,5.9006,5.8322,5.7966,5.7734,5.759,5.686,5.7129,5.7541,5.8062,5.8751,5.9582,6.0316,6.0539,6.0712,6.1012,6.071,6.0901,6.1168,6.1383,6.1452,6.1569,6.1328,6.1171,6.0898,6.1152,6.1113,6.1092,6.1338,6.1588,6.151,6.1582,6.1602,6.1628,6.1666,6.1698,6.1698,6.1698,6.1698,6.1693,6.1634,6.1621,6.1573,6.1452,6.137,6.1342,6.123,6.1064,6.0963,6.0864,6.0716,6.061,6.0578,6.0539,6.0472,6.0444,6.0464,6.0431,6.0417,6.0222,6.0064,5.9774,5.9431,5.9122,5.8831,5.85,5.8213,5.807,5.7978,5.807,5.8119,5.8164,5.8213,5.8304,5.8326,5.8,5.8027,5.7677,5.7653,5.7724,5.727,5.7087,5.7239,5.7338,5.7431,5.751,5.7631,5.7459,5.6888,5.6052,5.5367,5.4665,5.409,5.4166,5.5065,5.5747,5.6625,5.7535,5.8256,5.874,5.8725,5.8517,5.8133,5.7487,5.6648,5.6088,5.6129,5.6078,5.6374,5.7102,5.7812,5.8193,5.8342,5.8965,5.936,5.9435,5.9502,5.8921,5.816,5.76,5.7232,5.6395,5.6299,5.6559,5.7362,5.8206,5.9024,5.971,6.0162,6.0317,6.1034,6.0616,6.0864,6.1279,6.1471,6.149,6.1487,6.1052,6.1015,6.1348,6.1191,6.1172,6.1378,6.1592,6.146,6.1316,6.1441,6.1495,6.1532,6.1625,6.1671,6.1668,6.1688,6.166,6.1634,6.1521,6.1432,6.139,6.1285,6.1213,6.114,6.1037,6.0934,6.0841,6.0754,6.0622,6.0546,6.0512,6.0485,6.0431,6.0356,6.0361,6.0207,6.0237,6.0034,5.9774,5.9378,5.9084,5.8988,5.871,5.8348,5.8119,5.8047,5.7978,5.7978,5.8001,5.8051,5.8047,5.7997,5.802,5.8349,5.8755,5.7986,5.7978,5.8289,5.7546,5.7264,5.7338,5.7461,5.7534,5.7797,5.809,5.7891,5.736,5.6799,5.5894,5.4948,5.4443,5.4909,5.5692,5.6106,5.6529,5.7236,5.7463,5.7722,5.794,5.7933,5.7686,5.7239,5.6164,5.5998,5.625,5.6453,5.6846,5.7544,5.8211,5.8681,5.8689,5.9316,5.9765,5.9817,5.9793,5.9501,5.8609,5.7894,5.7258,5.6915,5.6474,5.6576,5.7437,5.8304,5.9151,5.992,6.0542,6.0744,6.0633,6.0805,6.1069,6.1428,6.1481,6.1549,6.1601,6.1479,6.1438,6.1598,6.1538,6.1456,6.1499,6.1537,6.1403,6.1246,6.1355,6.1476,6.1509,6.1588,6.1657,6.1576,6.1537,6.1528,6.1466,6.1353,6.1233,6.1184,6.1128,6.1036,6.0964,6.0864,6.075,6.0652,6.0597,6.0514,6.0453,6.0417,6.0417,6.0403,6.0313,6.0222,5.9922,5.9823,5.9675,5.936,5.8969,5.871,5.8646,5.8476,5.8164,5.8024,5.7978,5.7978,5.7978,5.7978,5.7978,5.795,5.7904,5.7839,5.9046,5.9215,5.8484,5.8484,5.8791,5.8009,5.7804,5.808,5.7982,5.8094,5.8357,5.8487,5.8607,5.8316,5.7434,5.6275,5.516,5.4592,5.5015,5.5574,5.5772,5.6193,5.6909,5.69,5.7386,5.7642,5.7425,5.7211,5.7286,5.6393,5.6302,5.6959,5.7415,5.7896,5.8323,5.9053,5.9129,5.9102,5.9539,6.001,6.0057,5.9991,5.9693,5.907,5.86,5.8162,5.7813,5.7751,5.7748,5.8298,5.9011,5.9426,5.9892,6.0579,6.1181,6.091,6.0882,6.11,6.1432,6.1537,6.1592,6.1694,6.1698,6.1715,6.1715,6.1672,6.1633,6.151,6.1408,6.1259,6.103,6.1163,6.1239,6.1373,6.1485,6.1549,6.1495,6.1426,6.1349,6.1272,6.1178,6.1079,6.1016,6.0954,6.086,6.0769,6.0707,6.0604,6.0493,6.0485,6.0458,6.037,6.0313,6.0159,6.0129,5.9984,5.9871,5.9622,5.9431,5.9289,5.9046,5.8669,5.8437,5.8301,5.8115,5.8001,5.7978,5.7978,5.7978,5.7978,5.7932,5.7904,5.7857,5.7834,5.7745,5.9649,5.9597,5.9025,5.9006,5.9234,5.8531,5.8408,5.8737,5.8593,5.8674,5.897,5.895,5.9215,5.9219,5.8105,5.6575,5.521,5.4754,5.4714,5.5045,5.5243,5.5715,5.6187,5.6542,5.6753,5.6941,5.653,5.6635,5.7228,5.6721,5.7063,5.773,5.8563,5.8815,5.8967,5.9333,5.9333,5.9376,5.968,6.008,6.0099,6.0091,5.9993,5.954,5.9549,5.9225,5.8954,5.8687,5.8859,5.9207,5.9688,5.996,5.9849,6.0788,6.1482,6.1409,6.0887,6.1042,6.1335,6.1595,6.1631,6.1688,6.1699,6.1717,6.1692,6.1635,6.155,6.1328,6.1204,6.1079,6.0911,6.0924,6.1053,6.1206,6.139,6.1481,6.1401,6.1305,6.1143,6.1064,6.0993,6.0934,6.0884,6.0852,6.0766,6.0702,6.0635,6.0553,6.0472,6.0458,6.0431,6.0294,6.0159,5.9937,5.9774,5.9554,5.9396,5.9159,5.9027,5.8929,5.8689,5.8437,5.8257,5.8115,5.807,5.7978,5.7978,5.7978,5.7955,5.7927,5.7857,5.781,5.7763,5.7673,5.7601,5.9869,5.9836,5.9453,5.9344,5.9363,5.8894,5.8797,5.8989,5.897,5.9008,5.9288,5.9466,5.9656,5.9308,5.8056,5.6998,5.6177,5.5291,5.4933,5.5197,5.5108,5.5076,5.5045,5.4719,5.5576,5.6094,5.5591,5.6174,5.713,5.6954,5.7344,5.8342,5.829,5.829,5.8826,5.9307,5.9035,5.9086,5.9699,6.0114,6.0114,6.0231,6.036,6.038,6.0055,5.9824,5.9904,5.9615,5.9499,6.0088,6.021,6.0619,6.1179,6.1388,6.1559,6.1559,6.1495,6.1498,6.1559,6.1598,6.1626,6.1676,6.1714,6.1699,6.1672,6.1576,6.1451,6.1227,6.1112,6.0983,6.0856,6.0942,6.1064,6.1177,6.1316,6.1342,6.1279,6.1218,6.1072,6.0914,6.0856,6.0823,6.0789,6.0738,6.0704,6.0629,6.0552,6.0499,6.0458,6.0444,6.0328,6.0173,5.9906,5.9656,5.9342,5.914,5.893,5.871,5.8628,5.8563,5.8412,5.8213,5.8142,5.8024,5.7978,5.7955,5.7932,5.7932,5.7927,5.7857,5.7745,5.7697,5.7649,5.7553,5.7412,5.9966,5.9931,5.9592,5.9643,5.9847,5.9447,5.9463,5.9706,5.9553,5.9622,5.9826,5.9774,5.9544,5.9004,5.7984,5.7116,5.6259,5.546,5.52,5.5345,5.5214,5.5127,5.5165,5.5052,5.5359,5.5833,5.606,5.6619,5.7281,5.7141,5.7122,5.7676,5.8268,5.8427,5.8705,5.9373,5.9364,5.9426,5.9774,6.0232,6.0285,6.0342,6.0559,6.0915,6.0548,6.0647,6.0767,6.0769,6.0614,6.1042,6.1023,6.1159,6.149,6.1588,6.1588,6.1588,6.1588,6.1563,6.1592,6.1588,6.1619,6.1656,6.1678,6.1705,6.1686,6.1565,6.1401,6.122,6.1079,6.0934,6.0864,6.0942,6.1002,6.1112,6.1246,6.1204,6.1151,6.1095,6.1011,6.0858,6.0729,6.0722,6.071,6.068,6.0617,6.0539,6.0499,6.0485,6.0444,6.0417,6.0237,6.0,5.9673,5.9324,5.895,5.8667,5.8479,5.8282,5.8282,5.8213,5.8142,5.8001,5.7978,5.7932,5.7909,5.7886,5.7886,5.7862,5.7815,5.7721,5.7625,5.7577,5.7504,5.7338,5.7163,6.0076,6.0041,5.9793,5.9944,6.0245,5.9918,6.0015,6.0313,6.0064,6.0114,6.0251,6.0061,5.9573,5.8882,5.8277,5.7381,5.6529,5.5736,5.5453,5.539,5.539,5.5358,5.5427,5.5536,5.5994,5.6658,5.684,5.709,5.7103,5.7021,5.6753,5.695,5.8096,5.8517,5.867,5.9243,5.9668,5.9649,6.0069,6.0337,6.0389,6.0389,6.064,6.0883,6.1039,6.1194,6.1509,6.1529,6.1529,6.1529,6.151,6.151,6.1588,6.1588,6.1588,6.1588,6.1588,6.1588,6.1584,6.1589,6.1583,6.1609,6.166,6.1699,6.1679,6.1549,6.139,6.1213,6.1019,6.0911,6.0853,6.089,6.0954,6.101,6.1095,6.1064,6.1039,6.102,6.0945,6.0811,6.0697,6.068,6.0635,6.0617,6.0539,6.0458,6.0444,6.0444,6.0403,6.0328,6.0099,5.9823,5.936,5.9027,5.875,5.8391,5.8142,5.7978,5.7978,5.7978,5.7978,5.7978,5.7955,5.7909,5.7857,5.7745,5.7679,5.7703,5.7703,5.7601,5.7504,5.7431,5.7313,5.7138,5.6767,6.0298,6.0264,6.025,6.025,6.0313,6.0332,6.0342,6.0403,6.0361,6.0342,6.0389,6.0323,6.0223,5.9769,5.8566,5.7777,5.7578,5.6097,5.5536,5.5384,5.539,5.546,5.567,5.6091,5.6568,5.6912,5.7409,5.739,5.695,5.7008,5.7179,5.7772,5.7982,5.8421,5.8822,5.9262,5.9873,5.9988,6.0346,6.0384,6.0403,6.0425,6.0564,6.0837,6.0991,6.1194,6.1534,6.1568,6.1588,6.1588,6.1588,6.1588,6.1588,6.1588,6.1588,6.1588,6.1588,6.1588,6.1591,6.1598,6.1603,6.1618,6.1657,6.1707,6.1696,6.1397,6.124,6.1184,6.0993,6.0845,6.0804,6.0808,6.0913,6.0944,6.1002,6.1002,6.0993,6.0974,6.0902,6.0762,6.0685,6.0648,6.0597,6.0565,6.0525,6.0444,6.0403,6.0403,6.0222,6.0114,5.989,5.9571,5.9046,5.873,5.8605,5.8326,5.8051,5.7978,5.7978,5.7978,5.7978,5.7978,5.7955,5.7862,5.781,5.7649,5.751,5.7534,5.751,5.7437,5.7338,5.7069,5.6696,5.6384,5.5999,6.0342,6.0366,6.0347,6.0347,6.0366,6.0389,6.0403,6.0403,6.0403,6.0403,6.0403,6.0384,6.0102,5.9428,5.857,5.7647,5.7073,5.5983,5.5543,5.5384,5.5409,5.567,5.6052,5.6581,5.7084,5.7905,5.844,5.8211,5.7523,5.7313,5.7065,5.7332,5.7676,5.7982,5.8479,5.9357,6.0026,6.0236,6.0403,6.0403,6.0403,6.0392,6.0348,6.0191,6.0857,6.0841,6.091,6.1349,6.151,6.1588,6.1588,6.1588,6.1588,6.1588,6.1588,6.1588,6.1588,6.1588,6.1582,6.1595,6.1619,6.166,6.1686,6.1698,6.1691,6.1397,6.124,6.1108,6.0945,6.0804,6.0793,6.0867,6.0934,6.0913,6.0922,6.0933,6.0923,6.0922,6.088,6.0769,6.0697,6.068,6.0585,6.052,6.0466,6.0412,6.0403,6.0313,6.0114,5.9807,5.9554,5.9307,5.8791,5.8458,5.8326,5.8164,5.7978,5.7978,5.7978,5.7978,5.7978,5.7978,5.7973,5.7857,5.7697,5.7577,5.7461,5.7388,5.7313,5.7213,5.6889,5.6501,5.6101,5.5658,5.5278,6.0337,6.0389,6.0403,6.0403,6.0403,6.0403,6.0403,6.0403,6.0403,6.0403,6.0403,6.0365,6.0083,5.939,5.8699,5.7908,5.7175,5.6326,5.5782,5.5655,5.5771,5.6129,5.6646,5.7289,5.8058,5.9,5.9357,5.9071,5.8268,5.802,5.7638,5.7447,5.7562,5.7963,5.867,5.9568,6.0403,6.0403,6.0403,6.0403,6.0403,6.0455,6.0224,6.0017,6.0631,6.0789,6.0783,6.1101,6.1549,6.1588,6.1588,6.1588,6.1588,6.1588,6.1588,6.1588,6.1588,6.1588,6.1576,6.1595,6.1608,6.1636,6.1678,6.1679,6.1602,6.1392,6.12,6.1158,6.0954,6.0781,6.0793,6.0856,6.0888,6.0864,6.0867,6.0888,6.0845,6.0831,6.0819,6.0769,6.0734,6.0685,6.0591,6.0512,6.0444,6.0342,6.0159,6.0084,5.9906,5.9571,5.914,5.887,5.8521,5.8279,5.8047,5.8024,5.7978,5.7978,5.7978,5.7978,5.7978,5.7978,5.7886,5.7745,5.7625,5.7504,5.7381,5.7264,5.7112,5.6933,5.6447,5.5904,5.5379,5.4961,5.4579,6.0318,6.0389,6.0346,6.0327,6.0384,6.0403,6.0403,6.0403,6.0403,6.0403,6.0403,6.0403,6.0384,6.0035,5.9228,5.8348,5.7627,5.6874,5.618,5.5762,5.6146,5.6616,5.7313,5.8062,5.8822,5.9243,5.9663,5.9701,5.8962,5.823,5.7848,5.7982,5.8192,5.8536,5.9147,5.9931,6.0384,6.0403,6.0403,6.0384,6.0288,6.0367,6.0071,5.9909,6.0499,6.067,6.0618,6.114,6.1549,6.1588,6.1588,6.1588,6.1588,6.1588,6.1588,6.1588,6.1588,6.1582,6.1592,6.1588,6.1601,6.16,6.1637,6.166,6.158,6.1376,6.1184,6.114,6.0944,6.0827,6.0804,6.0804,6.0804,6.0842,6.0856,6.0831,6.0804,6.08,6.08,6.0781,6.0769,6.0734,6.0617,6.0499,6.0417,6.0256,6.0003,5.9826,5.9675,5.9306,5.887,5.8563,5.8279,5.8168,5.8024,5.8001,5.7978,5.7978,5.7978,5.7978,5.7955,5.7927,5.7792,5.7649,5.7504,5.7406,5.7239,5.7112,5.659,5.5999,5.5744,5.5249,5.4734,5.4313,5.3977,5.9864,6.0307,5.9205,5.9376,6.0307,6.0403,6.0403,6.0403,6.0403,6.0403,6.0403,6.0403,6.0403,6.0015,5.9171,5.8342,5.7864,5.6421,5.5616,5.5703,5.644,5.7028,5.7743,5.8597,5.9415,5.9892,6.0274,5.9969,5.9038,5.8383,5.8383,5.8593,5.9071,5.9682,5.995,6.0327,6.0403,6.0403,6.036,6.0223,5.9805,5.9842,5.9694,5.9234,6.0083,6.0487,6.039,6.1159,6.1549,6.1588,6.1588,6.1588,6.1588,6.1588,6.1588,6.1588,6.1592,6.158,6.1583,6.1581,6.1591,6.1581,6.1598,6.1588,6.1466,6.1324,6.1196,6.1081,6.0932,6.0853,6.0902,6.0831,6.0839,6.0901,6.0892,6.0831,6.08,6.08,6.08,6.0769,6.0757,6.068,6.0565,6.0439,6.0361,6.0114,5.9842,5.9554,5.9379,5.9008,5.8605,5.8323,5.8092,5.8047,5.7978,5.7978,5.7978,5.7978,5.7978,5.7978,5.7932,5.7881,5.7745,5.7625,5.7437,5.7264,5.6793,5.6248,5.5507,5.4961,5.4795,5.4565,5.4124,5.3749,5.3483,5.8967,5.9376,5.8345,5.8498,5.9491,5.9816,6.0083,6.0346,6.0403,6.0403,6.0403,6.0417,6.0417,6.0087,5.9433,5.8553,5.831,5.7449,5.6517,5.6534,5.7213,5.7947,5.8553,5.9131,5.983,6.0307,6.0346,6.0026,5.9606,5.8746,5.8651,5.9147,5.995,6.0174,6.0346,6.0384,6.0403,6.0403,6.036,6.0248,6.0009,5.9881,5.9737,5.9595,5.9969,6.0528,6.0599,6.1003,6.1588,6.1588,6.1588,6.1588,6.1588,6.1588,6.1588,6.1588,6.1588,6.1576,6.1561,6.1564,6.1537,6.151,6.1561,6.1504,6.1392,6.1259,6.1143,6.103,6.0877,6.0867,6.089,6.0816,6.0842,6.0892,6.0869,6.0804,6.08,6.08,6.0757,6.0746,6.0722,6.0629,6.0525,6.0398,6.0299,5.9988,5.9656,5.9379,5.9084,5.8689,5.8391,5.8186,5.802,5.7978,5.7978,5.7978,5.7978,5.7978,5.7978,5.7978,5.7909,5.7839,5.7721,5.751,5.712,5.6617,5.5953,5.532,5.4747,5.431,5.404,5.3765,5.345,5.328,5.311,5.7761,5.7886,5.7848,5.7829,5.8077,5.8803,5.951,6.025,6.0307,6.0307,6.0327,6.0382,6.0444,6.0431,6.0372,5.9791,5.9029,5.8872,5.8335,5.8191,5.8406,5.8936,5.9351,5.9905,6.0207,6.0327,6.0384,6.0327,6.025,5.9568,5.9243,5.9286,5.9988,6.0307,6.0403,6.0403,6.0403,6.0403,6.0384,6.025,6.0078,6.0376,6.0112,6.0057,6.0475,6.0755,6.0906,6.1198,6.149,6.1588,6.1588,6.1588,6.1588,6.1588,6.1588,6.1588,6.1579,6.1557,6.1515,6.1511,6.1504,6.1505,6.1519,6.145,6.1331,6.1209,6.109,6.0964,6.0845,6.085,6.0816,6.0804,6.0785,6.0819,6.0808,6.0781,6.08,6.0788,6.0746,6.0722,6.0697,6.061,6.0512,6.0389,6.0193,5.9758,5.9396,5.9046,5.8749,5.8409,5.8164,5.8119,5.7978,5.7978,5.7978,5.7978,5.7978,5.7978,5.7978,5.7978,5.7886,5.7726,5.7534,5.7195,5.6617,5.5999,5.5273,5.4668,5.4151,5.3797,5.3449,5.3332,5.3127,5.3024,5.2868,5.73,5.7753,5.6625,5.6797,5.7848,5.8135,5.8421,5.8651,5.9185,5.9472,5.951,6.0168,6.0412,6.0365,5.98,5.9423,5.9081,5.8642,5.8266,5.84,5.9026,5.9147,5.9503,6.0005,6.0307,6.0403,6.0403,6.0403,6.0365,5.9988,5.9568,5.9324,6.0026,6.0327,6.0403,6.0403,6.0365,6.0346,6.0327,6.0265,6.0089,6.021,6.014,6.0424,6.0592,6.0847,6.1257,6.1373,6.1588,6.1588,6.1588,6.1588,6.1588,6.1592,6.1582,6.1582,6.1577,6.1582,6.1512,6.1499,6.148,6.1446,6.1419,6.1356,6.1244,6.1137,6.0992,6.0902,6.0834,6.0827,6.0827,6.0808,6.0819,6.08,6.0785,6.0757,6.0765,6.0741,6.0717,6.0685,6.066,6.0578,6.0458,6.0342,6.0099,5.9605,5.9159,5.8791,5.8476,5.8183,5.802,5.7978,5.7978,5.7978,5.7978,5.7978,5.7978,5.7978,5.7978,5.7909,5.7726,5.7559,5.732,5.6704,5.5851,5.5184,5.4544,5.399,5.355,5.3264,5.299,5.2921,5.2868,5.2764,5.2711,5.6434,5.6759,5.5842,5.6014,5.6797,5.6912,5.6912,5.7179,5.8427,5.9114,5.9224,6.0076,6.0444,6.036,5.9999,5.975,5.9658,5.9444,5.9152,5.9272,5.9395,5.9655,5.992,6.0064,6.0327,6.0403,6.0403,6.0403,6.0403,6.0365,6.0026,5.9778,6.025,6.0327,6.0403,6.0365,6.0141,6.0102,6.0114,6.0219,6.017,6.0113,6.0433,6.0616,6.0721,6.114,6.149,6.1568,6.1588,6.1588,6.1588,6.1588,6.1578,6.1595,6.1576,6.1593,6.1561,6.1536,6.1484,6.1373,6.1369,6.1317,6.1221,6.1083,6.1094,6.103,6.0933,6.0842,6.0808,6.0785,6.0819,6.0823,6.0814,6.0825,6.0777,6.0734,6.0717,6.068,6.0667,6.0655,6.0591,6.0499,6.0403,6.0285,5.9988,5.9467,5.8988,5.8626,5.8344,5.8097,5.8001,5.7978,5.7978,5.7978,5.7978,5.7978,5.7997,5.7997,5.7978,5.7886,5.7631,5.7109,5.666,5.5833,5.4896,5.4325,5.3845,5.3382,5.2972,5.2781,5.2676,5.264,5.264,5.2587,5.2551,5.5409,5.546,5.539,5.546,5.5409,5.5504,5.5517,5.5676,5.793,5.8975,5.9155,6.0104,6.0499,6.0392,6.0307,6.0313,6.022,6.0067,6.0005,6.0346,6.0196,6.022,6.0231,6.0403,6.0403,6.0403,6.0403,6.0403,6.0403,6.0384,6.0384,6.0403,6.0384,6.0403,6.0403,6.0466,6.0263,5.9989,6.0227,6.0472,6.0556,6.0771,6.1117,6.1259,6.1395,6.1568,6.1588,6.1588,6.1588,6.1588,6.1588,6.1588,6.1584,6.1582,6.1585,6.1598,6.1601,6.1555,6.1451,6.1322,6.123,6.1117,6.0915,6.0884,6.0905,6.0904,6.0811,6.0816,6.0793,6.0769,6.0762,6.0785,6.0808,6.0766,6.0714,6.0673,6.0655,6.0629,6.0617,6.0546,6.0379,6.0313,6.0328,6.0193,5.9725,5.9252,5.889,5.8519,5.8213,5.8024,5.7978,5.7978,5.7978,5.7978,5.7978,5.7978,5.7973,5.7973,5.7909,5.7565,5.7134,5.6536,5.59,5.5089,5.4279,5.3681,5.3196,5.2903,5.2711,5.2605,5.2516,5.2409,5.2373,5.2338,5.2302,5.539,5.539,5.539,5.539,5.539,5.539,5.539,5.5575,5.7371,5.8211,5.8473,5.9707,6.0485,6.0431,6.0466,6.0485,6.0431,6.0431,6.0431,6.0412,6.0412,6.0431,6.0403,6.0403,6.0403,6.0403,6.0403,6.0403,6.0403,6.0403,6.0403,6.0403,6.0403,6.0403,6.0417,6.0487,6.0361,5.9995,6.0461,6.0445,6.0152,6.0816,6.1304,6.1456,6.1588,6.1588,6.1588,6.1588,6.1588,6.1588,6.1588,6.1576,6.1582,6.1586,6.163,6.1679,6.1635,6.1579,6.1446,6.1279,6.1186,6.1064,6.0915,6.0843,6.0768,6.0735,6.0707,6.0738,6.0757,6.0734,6.0753,6.0777,6.0777,6.071,6.0673,6.0635,6.0591,6.052,6.0506,6.0318,6.0159,6.0129,6.0129,5.9874,5.945,5.9103,5.8831,5.85,5.819,5.7978,5.7978,5.7978,5.7978,5.7978,5.7978,5.7909,5.7881,5.7655,5.7449,5.7083,5.6625,5.572,5.4913,5.4419,5.3764,5.3264,5.2921,5.2729,5.257,5.2516,5.2409,5.2338,5.2069,5.1961,5.1924,5.539,5.539,5.539,5.539,5.539,5.539,5.539,5.5708,5.7179,5.7886,5.8167,5.9597,6.0458,6.0417,6.0472,6.0458,6.0417,6.0412,6.0417,6.0417,6.0431,6.0417,6.0417,6.0403,6.0403,6.0403,6.0403,6.0403,6.0403,6.0403,6.0403,6.0403,6.0403,6.0403,6.0431,6.0501,6.0441,6.0119,6.0722,6.0564,6.0021,6.0738,6.1362,6.1539,6.1588,6.1588,6.1588,6.1588,6.1588,6.1588,6.1588,6.1588,6.1595,6.1594,6.1619,6.1617,6.161,6.1559,6.1376,6.123,6.1098,6.0925,6.0745,6.0596,6.0628,6.0578,6.0629,6.066,6.071,6.071,6.0746,6.0788,6.0765,6.0729,6.0629,6.0578,6.0251,5.9946,5.9868,5.9739,5.9622,5.9605,5.9554,5.9324,5.8968,5.8831,5.8584,5.8391,5.8119,5.7978,5.7978,5.7978,5.7978,5.7978,5.7978,5.7862,5.7721,5.7443,5.7033,5.6358,5.572,5.4717,5.3913,5.3633,5.3365,5.3025,5.2711,5.257,5.2499,5.2445,5.2373,5.2302,5.1908,5.1434,5.1118,5.539,5.539,5.539,5.539,5.539,5.539,5.5498,5.5842,5.7218,5.7982,5.8307,5.9808,6.0349,6.0444,6.0472,6.0431,6.0417,6.0417,6.0403,6.0403,6.0403,6.0403,6.0403,6.0403,6.0403,6.0403,6.0403,6.0403,6.0403,6.0403,6.0403,6.0403,6.0403,6.0417,6.0444,6.0437,6.0402,6.0352,6.0611,6.0736,6.0764,6.089,6.134,6.1544,6.1588,6.1588,6.1588,6.1588,6.1588,6.1591,6.158,6.1586,6.1605,6.1594,6.1621,6.1641,6.1579,6.1466,6.1278,6.1092,6.0865,6.0649,6.0468,6.0412,6.0453,6.0493,6.0533,6.0585,6.0648,6.0697,6.0746,6.0678,6.0641,6.0533,6.0449,6.033,5.9861,5.9465,5.9342,5.9215,5.9178,5.9178,5.9065,5.8831,5.8607,5.8479,5.8348,5.8142,5.7978,5.7978,5.7978,5.7978,5.7978,5.7978,5.7973,5.7679,5.7443,5.6912,5.6403,5.5616,5.4835,5.4089,5.35,5.3162,5.2868,5.2711,5.257,5.248,5.2409,5.2338,5.2194,5.1997,5.1268,5.0745,5.0119,5.539,5.539,5.539,5.539,5.539,5.539,5.5766,5.6473,5.7409,5.823,5.8956,5.9791,6.0403,6.0403,6.0453,6.0458,6.0403,6.0403,6.0403,6.0403,6.0403,6.0403,6.0403,6.0403,6.0403,6.0403,6.0403,6.0403,6.0403,6.0403,6.0403,6.0403,6.0403,6.0474,6.0652,6.0692,6.0788,6.0784,6.0983,6.1238,6.1306,6.1397,6.1466,6.1588,6.1588,6.1588,6.1588,6.1588,6.1588,6.158,6.1592,6.1586,6.161,6.1621,6.1647,6.1601,6.1565,6.1406,6.1235,6.102,6.079,6.0577,6.0441,6.0403,6.0431,6.0431,6.0485,6.0539,6.0591,6.0648,6.0629,6.0384,6.0255,5.9988,5.9814,5.9666,5.9339,5.9196,5.9122,5.895,5.8852,5.8911,5.9008,5.871,5.8369,5.8279,5.8213,5.8047,5.7978,5.7978,5.7978,5.7992,5.7992,5.7909,5.7839,5.7327,5.6964,5.6421,5.5766,5.4913,5.4168,5.3633,5.3144,5.2938,5.2781,5.2605,5.248,5.2338,5.2214,5.2089,5.1961,5.1651,5.0783,4.9978,4.9247]}]]